<?xml version="1.0" encoding="UTF-8" standalone="no" ?>
<gpx xmlns="http://www.topografix.com/GPX/1/1" xmlns:xsi="http://www.w3.org/2001/XMLSchema-instance" xsi:schemaLocation="http://www.topografix.com/GPX/1/1 http://www.topografix.com/GPX/1/1/gpx.xsd" version="1.1" creator="VisuGPX - https://www.visugpx.com">
  <metadata>
    <name>La Cadière d'Azur Evenos par le val d'Aran</name>
    <desc><![CDATA[Circuit au départ de la Cadière empruntant des petites routes au milieu des vignes et permettant d'observer un panorama magnifique du haut du village d'Evenos]]></desc>
  </metadata>
  <trk>
    <name><![CDATA[EVENOS  E-BIKE]]></name>
    <trkseg>
      <trkpt lat="43.19574" lon="5.75741">
        <ele>135</ele>
        <time>2016-04-12T12:25:00.000Z</time>
      </trkpt>
      <trkpt lat="43.19574" lon="5.75742">
        <ele>135</ele>
        <time>2016-04-12T12:29:59.000Z</time>
      </trkpt>
      <trkpt lat="43.1957" lon="5.75749">
        <ele>133.39999389648</ele>
        <time>2016-04-12T12:30:02.000Z</time>
      </trkpt>
      <trkpt lat="43.19558" lon="5.75764">
        <ele>129.80000305176</ele>
        <time>2016-04-12T12:30:07.000Z</time>
      </trkpt>
      <trkpt lat="43.1955" lon="5.75774">
        <ele>128.60000610352</ele>
        <time>2016-04-12T12:30:10.000Z</time>
      </trkpt>
      <trkpt lat="43.19544" lon="5.7578">
        <ele>127.80000305176</ele>
        <time>2016-04-12T12:30:12.000Z</time>
      </trkpt>
      <trkpt lat="43.19541" lon="5.75782">
        <ele>127.40000152588</ele>
        <time>2016-04-12T12:30:13.000Z</time>
      </trkpt>
      <trkpt lat="43.19539" lon="5.75783">
        <ele>127.19999694824</ele>
        <time>2016-04-12T12:30:14.000Z</time>
      </trkpt>
      <trkpt lat="43.19537" lon="5.75786">
        <ele>127</ele>
        <time>2016-04-12T12:30:16.000Z</time>
      </trkpt>
      <trkpt lat="43.19535" lon="5.75792">
        <ele>126.59999847412</ele>
        <time>2016-04-12T12:30:18.000Z</time>
      </trkpt>
      <trkpt lat="43.19534" lon="5.75803">
        <ele>126.40000152588</ele>
        <time>2016-04-12T12:30:20.000Z</time>
      </trkpt>
      <trkpt lat="43.19535" lon="5.75809">
        <ele>126.19999694824</ele>
        <time>2016-04-12T12:30:21.000Z</time>
      </trkpt>
      <trkpt lat="43.19535" lon="5.75815">
        <ele>125.80000305176</ele>
        <time>2016-04-12T12:30:22.000Z</time>
      </trkpt>
      <trkpt lat="43.19532" lon="5.75829">
        <ele>124.80000305176</ele>
        <time>2016-04-12T12:30:25.000Z</time>
      </trkpt>
      <trkpt lat="43.19529" lon="5.75832">
        <ele>124.19999694824</ele>
        <time>2016-04-12T12:30:26.000Z</time>
      </trkpt>
      <trkpt lat="43.19518" lon="5.75847">
        <ele>122.19999694824</ele>
        <time>2016-04-12T12:30:29.000Z</time>
      </trkpt>
      <trkpt lat="43.19511" lon="5.75859">
        <ele>120.59999847412</ele>
        <time>2016-04-12T12:30:31.000Z</time>
      </trkpt>
      <trkpt lat="43.195" lon="5.75879">
        <ele>117.59999847412</ele>
        <time>2016-04-12T12:30:34.000Z</time>
      </trkpt>
      <trkpt lat="43.19496" lon="5.75886">
        <ele>116.40000152588</ele>
        <time>2016-04-12T12:30:35.000Z</time>
      </trkpt>
      <trkpt lat="43.19488" lon="5.75898">
        <ele>114.59999847412</ele>
        <time>2016-04-12T12:30:37.000Z</time>
      </trkpt>
      <trkpt lat="43.19484" lon="5.75902">
        <ele>113.80000305176</ele>
        <time>2016-04-12T12:30:38.000Z</time>
      </trkpt>
      <trkpt lat="43.19478" lon="5.75903">
        <ele>112.59999847412</ele>
        <time>2016-04-12T12:30:39.000Z</time>
      </trkpt>
      <trkpt lat="43.19471" lon="5.75901">
        <ele>111.59999847412</ele>
        <time>2016-04-12T12:30:40.000Z</time>
      </trkpt>
      <trkpt lat="43.19461" lon="5.75893">
        <ele>109.80000305176</ele>
        <time>2016-04-12T12:30:42.000Z</time>
      </trkpt>
      <trkpt lat="43.19454" lon="5.75883">
        <ele>109</ele>
        <time>2016-04-12T12:30:44.000Z</time>
      </trkpt>
      <trkpt lat="43.19449" lon="5.75874">
        <ele>109</ele>
        <time>2016-04-12T12:30:46.000Z</time>
      </trkpt>
      <trkpt lat="43.19447" lon="5.7587">
        <ele>108.80000305176</ele>
        <time>2016-04-12T12:30:47.000Z</time>
      </trkpt>
      <trkpt lat="43.19437" lon="5.75862">
        <ele>107.59999847412</ele>
        <time>2016-04-12T12:30:50.000Z</time>
      </trkpt>
      <trkpt lat="43.19433" lon="5.75857">
        <ele>107.40000152588</ele>
        <time>2016-04-12T12:30:51.000Z</time>
      </trkpt>
      <trkpt lat="43.1943" lon="5.75844">
        <ele>108</ele>
        <time>2016-04-12T12:30:53.000Z</time>
      </trkpt>
      <trkpt lat="43.19429" lon="5.75806">
        <ele>111</ele>
        <time>2016-04-12T12:30:58.000Z</time>
      </trkpt>
      <trkpt lat="43.19428" lon="5.7579">
        <ele>111.19999694824</ele>
        <time>2016-04-12T12:31:00.000Z</time>
      </trkpt>
      <trkpt lat="43.19427" lon="5.75773">
        <ele>111.19999694824</ele>
        <time>2016-04-12T12:31:02.000Z</time>
      </trkpt>
      <trkpt lat="43.19419" lon="5.75757">
        <ele>109.80000305176</ele>
        <time>2016-04-12T12:31:04.000Z</time>
      </trkpt>
      <trkpt lat="43.19399" lon="5.75742">
        <ele>105.80000305176</ele>
        <time>2016-04-12T12:31:07.000Z</time>
      </trkpt>
      <trkpt lat="43.19392" lon="5.75737">
        <ele>104.40000152588</ele>
        <time>2016-04-12T12:31:08.000Z</time>
      </trkpt>
      <trkpt lat="43.1938" lon="5.75721">
        <ele>102.19999694824</ele>
        <time>2016-04-12T12:31:10.000Z</time>
      </trkpt>
      <trkpt lat="43.19373" lon="5.75702">
        <ele>101.40000152588</ele>
        <time>2016-04-12T12:31:12.000Z</time>
      </trkpt>
      <trkpt lat="43.19365" lon="5.75683">
        <ele>100.40000152588</ele>
        <time>2016-04-12T12:31:14.000Z</time>
      </trkpt>
      <trkpt lat="43.19355" lon="5.75664">
        <ele>99</ele>
        <time>2016-04-12T12:31:16.000Z</time>
      </trkpt>
      <trkpt lat="43.19344" lon="5.75647">
        <ele>97.599998474121</ele>
        <time>2016-04-12T12:31:18.000Z</time>
      </trkpt>
      <trkpt lat="43.19338" lon="5.75639">
        <ele>97.599998474121</ele>
        <time>2016-04-12T12:31:19.000Z</time>
      </trkpt>
      <trkpt lat="43.19326" lon="5.75622">
        <ele>97.599998474121</ele>
        <time>2016-04-12T12:31:21.000Z</time>
      </trkpt>
      <trkpt lat="43.19315" lon="5.75606">
        <ele>97.800003051758</ele>
        <time>2016-04-12T12:31:23.000Z</time>
      </trkpt>
      <trkpt lat="43.19304" lon="5.7559">
        <ele>98</ele>
        <time>2016-04-12T12:31:25.000Z</time>
      </trkpt>
      <trkpt lat="43.19299" lon="5.75584">
        <ele>98</ele>
        <time>2016-04-12T12:31:26.000Z</time>
      </trkpt>
      <trkpt lat="43.19294" lon="5.75579">
        <ele>98</ele>
        <time>2016-04-12T12:31:27.000Z</time>
      </trkpt>
      <trkpt lat="43.19289" lon="5.75575">
        <ele>97.800003051758</ele>
        <time>2016-04-12T12:31:28.000Z</time>
      </trkpt>
      <trkpt lat="43.19284" lon="5.75572">
        <ele>97.599998474121</ele>
        <time>2016-04-12T12:31:29.000Z</time>
      </trkpt>
      <trkpt lat="43.19278" lon="5.7557">
        <ele>97.199996948242</ele>
        <time>2016-04-12T12:31:30.000Z</time>
      </trkpt>
      <trkpt lat="43.19266" lon="5.75572">
        <ele>96.599998474121</ele>
        <time>2016-04-12T12:31:32.000Z</time>
      </trkpt>
      <trkpt lat="43.1925" lon="5.75582">
        <ele>95.400001525879</ele>
        <time>2016-04-12T12:31:35.000Z</time>
      </trkpt>
      <trkpt lat="43.19244" lon="5.75584">
        <ele>94.800003051758</ele>
        <time>2016-04-12T12:31:36.000Z</time>
      </trkpt>
      <trkpt lat="43.19239" lon="5.75587">
        <ele>94.400001525879</ele>
        <time>2016-04-12T12:31:37.000Z</time>
      </trkpt>
      <trkpt lat="43.19233" lon="5.75589">
        <ele>94</ele>
        <time>2016-04-12T12:31:38.000Z</time>
      </trkpt>
      <trkpt lat="43.19223" lon="5.75596">
        <ele>93.199996948242</ele>
        <time>2016-04-12T12:31:40.000Z</time>
      </trkpt>
      <trkpt lat="43.19217" lon="5.75609">
        <ele>93.400001525879</ele>
        <time>2016-04-12T12:31:42.000Z</time>
      </trkpt>
      <trkpt lat="43.19215" lon="5.75622">
        <ele>93.599998474121</ele>
        <time>2016-04-12T12:31:44.000Z</time>
      </trkpt>
      <trkpt lat="43.19213" lon="5.75633">
        <ele>93.800003051758</ele>
        <time>2016-04-12T12:31:46.000Z</time>
      </trkpt>
      <trkpt lat="43.19204" lon="5.75656">
        <ele>94</ele>
        <time>2016-04-12T12:31:51.000Z</time>
      </trkpt>
      <trkpt lat="43.19185" lon="5.75687">
        <ele>94</ele>
        <time>2016-04-12T12:31:58.000Z</time>
      </trkpt>
      <trkpt lat="43.19158" lon="5.7572">
        <ele>92.599998474121</ele>
        <time>2016-04-12T12:32:06.000Z</time>
      </trkpt>
      <trkpt lat="43.19132" lon="5.75753">
        <ele>89.599998474121</ele>
        <time>2016-04-12T12:32:12.000Z</time>
      </trkpt>
      <trkpt lat="43.19114" lon="5.75773">
        <ele>88.400001525879</ele>
        <time>2016-04-12T12:32:15.000Z</time>
      </trkpt>
      <trkpt lat="43.19095" lon="5.75792">
        <ele>87.199996948242</ele>
        <time>2016-04-12T12:32:18.000Z</time>
      </trkpt>
      <trkpt lat="43.19088" lon="5.75797">
        <ele>86.599998474121</ele>
        <time>2016-04-12T12:32:19.000Z</time>
      </trkpt>
      <trkpt lat="43.19073" lon="5.75805">
        <ele>84.800003051758</ele>
        <time>2016-04-12T12:32:21.000Z</time>
      </trkpt>
      <trkpt lat="43.19064" lon="5.75808">
        <ele>84</ele>
        <time>2016-04-12T12:32:22.000Z</time>
      </trkpt>
      <trkpt lat="43.19056" lon="5.7581">
        <ele>83.199996948242</ele>
        <time>2016-04-12T12:32:23.000Z</time>
      </trkpt>
      <trkpt lat="43.19039" lon="5.75818">
        <ele>81.599998474121</ele>
        <time>2016-04-12T12:32:25.000Z</time>
      </trkpt>
      <trkpt lat="43.19022" lon="5.75826">
        <ele>80</ele>
        <time>2016-04-12T12:32:27.000Z</time>
      </trkpt>
      <trkpt lat="43.18996" lon="5.75836">
        <ele>78.800003051758</ele>
        <time>2016-04-12T12:32:30.000Z</time>
      </trkpt>
      <trkpt lat="43.18979" lon="5.75841">
        <ele>78.199996948242</ele>
        <time>2016-04-12T12:32:32.000Z</time>
      </trkpt>
      <trkpt lat="43.18962" lon="5.75847">
        <ele>77.800003051758</ele>
        <time>2016-04-12T12:32:34.000Z</time>
      </trkpt>
      <trkpt lat="43.18945" lon="5.75854">
        <ele>77.599998474121</ele>
        <time>2016-04-12T12:32:36.000Z</time>
      </trkpt>
      <trkpt lat="43.1893" lon="5.75863">
        <ele>77.400001525879</ele>
        <time>2016-04-12T12:32:38.000Z</time>
      </trkpt>
      <trkpt lat="43.18924" lon="5.75869">
        <ele>77.599998474121</ele>
        <time>2016-04-12T12:32:39.000Z</time>
      </trkpt>
      <trkpt lat="43.18914" lon="5.75882">
        <ele>78</ele>
        <time>2016-04-12T12:32:41.000Z</time>
      </trkpt>
      <trkpt lat="43.18905" lon="5.75895">
        <ele>77.400001525879</ele>
        <time>2016-04-12T12:32:43.000Z</time>
      </trkpt>
      <trkpt lat="43.189" lon="5.75901">
        <ele>77.199996948242</ele>
        <time>2016-04-12T12:32:44.000Z</time>
      </trkpt>
      <trkpt lat="43.1889" lon="5.75907">
        <ele>76.800003051758</ele>
        <time>2016-04-12T12:32:46.000Z</time>
      </trkpt>
      <trkpt lat="43.18878" lon="5.75908">
        <ele>76.599998474121</ele>
        <time>2016-04-12T12:32:48.000Z</time>
      </trkpt>
      <trkpt lat="43.18861" lon="5.75909">
        <ele>76.599998474121</ele>
        <time>2016-04-12T12:32:51.000Z</time>
      </trkpt>
      <trkpt lat="43.18824" lon="5.75912">
        <ele>77.800003051758</ele>
        <time>2016-04-12T12:32:58.000Z</time>
      </trkpt>
      <trkpt lat="43.18803" lon="5.75914">
        <ele>78.599998474121</ele>
        <time>2016-04-12T12:33:02.000Z</time>
      </trkpt>
      <trkpt lat="43.18782" lon="5.7592">
        <ele>79.800003051758</ele>
        <time>2016-04-12T12:33:06.000Z</time>
      </trkpt>
      <trkpt lat="43.18753" lon="5.75932">
        <ele>82.400001525879</ele>
        <time>2016-04-12T12:33:12.000Z</time>
      </trkpt>
      <trkpt lat="43.18748" lon="5.75934">
        <ele>83</ele>
        <time>2016-04-12T12:33:13.000Z</time>
      </trkpt>
      <trkpt lat="43.18733" lon="5.75936">
        <ele>84.599998474121</ele>
        <time>2016-04-12T12:33:16.000Z</time>
      </trkpt>
      <trkpt lat="43.18713" lon="5.7594">
        <ele>86</ele>
        <time>2016-04-12T12:33:20.000Z</time>
      </trkpt>
      <trkpt lat="43.18694" lon="5.75948">
        <ele>86.800003051758</ele>
        <time>2016-04-12T12:33:24.000Z</time>
      </trkpt>
      <trkpt lat="43.18685" lon="5.75953">
        <ele>87.199996948242</ele>
        <time>2016-04-12T12:33:26.000Z</time>
      </trkpt>
      <trkpt lat="43.1868" lon="5.75956">
        <ele>87.400001525879</ele>
        <time>2016-04-12T12:33:27.000Z</time>
      </trkpt>
      <trkpt lat="43.18661" lon="5.75966">
        <ele>88.599998474121</ele>
        <time>2016-04-12T12:33:31.000Z</time>
      </trkpt>
      <trkpt lat="43.18638" lon="5.7598">
        <ele>89</ele>
        <time>2016-04-12T12:33:36.000Z</time>
      </trkpt>
      <trkpt lat="43.18633" lon="5.75983">
        <ele>89.199996948242</ele>
        <time>2016-04-12T12:33:37.000Z</time>
      </trkpt>
      <trkpt lat="43.18613" lon="5.76001">
        <ele>89.199996948242</ele>
        <time>2016-04-12T12:33:42.000Z</time>
      </trkpt>
      <trkpt lat="43.18588" lon="5.76034">
        <ele>87.599998474121</ele>
        <time>2016-04-12T12:33:49.000Z</time>
      </trkpt>
      <trkpt lat="43.18585" lon="5.7604">
        <ele>87.199996948242</ele>
        <time>2016-04-12T12:33:50.000Z</time>
      </trkpt>
      <trkpt lat="43.18562" lon="5.76085">
        <ele>84.599998474121</ele>
        <time>2016-04-12T12:33:58.000Z</time>
      </trkpt>
      <trkpt lat="43.18543" lon="5.76129">
        <ele>81.800003051758</ele>
        <time>2016-04-12T12:34:05.000Z</time>
      </trkpt>
      <trkpt lat="43.18539" lon="5.76134">
        <ele>81.599998474121</ele>
        <time>2016-04-12T12:34:06.000Z</time>
      </trkpt>
      <trkpt lat="43.18521" lon="5.76146">
        <ele>81.400001525879</ele>
        <time>2016-04-12T12:34:09.000Z</time>
      </trkpt>
      <trkpt lat="43.18515" lon="5.7615">
        <ele>81</ele>
        <time>2016-04-12T12:34:10.000Z</time>
      </trkpt>
      <trkpt lat="43.18494" lon="5.76162">
        <ele>81.400001525879</ele>
        <time>2016-04-12T12:34:13.000Z</time>
      </trkpt>
      <trkpt lat="43.1848" lon="5.76171">
        <ele>81.800003051758</ele>
        <time>2016-04-12T12:34:15.000Z</time>
      </trkpt>
      <trkpt lat="43.18473" lon="5.76175">
        <ele>82.199996948242</ele>
        <time>2016-04-12T12:34:16.000Z</time>
      </trkpt>
      <trkpt lat="43.18455" lon="5.76186">
        <ele>83</ele>
        <time>2016-04-12T12:34:19.000Z</time>
      </trkpt>
      <trkpt lat="43.18446" lon="5.76191">
        <ele>83.400001525879</ele>
        <time>2016-04-12T12:34:21.000Z</time>
      </trkpt>
      <trkpt lat="43.18409" lon="5.7621">
        <ele>85.199996948242</ele>
        <time>2016-04-12T12:34:29.000Z</time>
      </trkpt>
      <trkpt lat="43.184" lon="5.76212">
        <ele>85.400001525879</ele>
        <time>2016-04-12T12:34:31.000Z</time>
      </trkpt>
      <trkpt lat="43.18386" lon="5.76213">
        <ele>86</ele>
        <time>2016-04-12T12:34:34.000Z</time>
      </trkpt>
      <trkpt lat="43.18376" lon="5.76212">
        <ele>86.599998474121</ele>
        <time>2016-04-12T12:34:36.000Z</time>
      </trkpt>
      <trkpt lat="43.18371" lon="5.76211">
        <ele>87</ele>
        <time>2016-04-12T12:34:37.000Z</time>
      </trkpt>
      <trkpt lat="43.18362" lon="5.76209">
        <ele>87.599998474121</ele>
        <time>2016-04-12T12:34:39.000Z</time>
      </trkpt>
      <trkpt lat="43.18349" lon="5.76208">
        <ele>88.400001525879</ele>
        <time>2016-04-12T12:34:42.000Z</time>
      </trkpt>
      <trkpt lat="43.1834" lon="5.76209">
        <ele>88.800003051758</ele>
        <time>2016-04-12T12:34:44.000Z</time>
      </trkpt>
      <trkpt lat="43.18335" lon="5.76209">
        <ele>89</ele>
        <time>2016-04-12T12:34:45.000Z</time>
      </trkpt>
      <trkpt lat="43.18326" lon="5.7621">
        <ele>89.599998474121</ele>
        <time>2016-04-12T12:34:47.000Z</time>
      </trkpt>
      <trkpt lat="43.18313" lon="5.76213">
        <ele>90.199996948242</ele>
        <time>2016-04-12T12:34:50.000Z</time>
      </trkpt>
      <trkpt lat="43.183" lon="5.76215">
        <ele>90.800003051758</ele>
        <time>2016-04-12T12:34:53.000Z</time>
      </trkpt>
      <trkpt lat="43.18263" lon="5.76221">
        <ele>92.800003051758</ele>
        <time>2016-04-12T12:35:01.000Z</time>
      </trkpt>
      <trkpt lat="43.18249" lon="5.76223">
        <ele>93.400001525879</ele>
        <time>2016-04-12T12:35:04.000Z</time>
      </trkpt>
      <trkpt lat="43.18244" lon="5.76222">
        <ele>93.599998474121</ele>
        <time>2016-04-12T12:35:05.000Z</time>
      </trkpt>
      <trkpt lat="43.18231" lon="5.7622">
        <ele>94.599998474121</ele>
        <time>2016-04-12T12:35:08.000Z</time>
      </trkpt>
      <trkpt lat="43.18192" lon="5.76215">
        <ele>97.199996948242</ele>
        <time>2016-04-12T12:35:16.000Z</time>
      </trkpt>
      <trkpt lat="43.18182" lon="5.76215">
        <ele>97.599998474121</ele>
        <time>2016-04-12T12:35:18.000Z</time>
      </trkpt>
      <trkpt lat="43.18162" lon="5.76216">
        <ele>98.199996948242</ele>
        <time>2016-04-12T12:35:22.000Z</time>
      </trkpt>
      <trkpt lat="43.18148" lon="5.76219">
        <ele>99</ele>
        <time>2016-04-12T12:35:25.000Z</time>
      </trkpt>
      <trkpt lat="43.18143" lon="5.7622">
        <ele>99.199996948242</ele>
        <time>2016-04-12T12:35:26.000Z</time>
      </trkpt>
      <trkpt lat="43.18124" lon="5.76226">
        <ele>99.800003051758</ele>
        <time>2016-04-12T12:35:30.000Z</time>
      </trkpt>
      <trkpt lat="43.18115" lon="5.76233">
        <ele>99.800003051758</ele>
        <time>2016-04-12T12:35:32.000Z</time>
      </trkpt>
      <trkpt lat="43.18108" lon="5.76249">
        <ele>99.599998474121</ele>
        <time>2016-04-12T12:35:35.000Z</time>
      </trkpt>
      <trkpt lat="43.18108" lon="5.76268">
        <ele>99.199996948242</ele>
        <time>2016-04-12T12:35:38.000Z</time>
      </trkpt>
      <trkpt lat="43.18107" lon="5.76282">
        <ele>99</ele>
        <time>2016-04-12T12:35:40.000Z</time>
      </trkpt>
      <trkpt lat="43.181" lon="5.76331">
        <ele>97.800003051758</ele>
        <time>2016-04-12T12:35:47.000Z</time>
      </trkpt>
      <trkpt lat="43.18088" lon="5.76382">
        <ele>94.199996948242</ele>
        <time>2016-04-12T12:35:53.000Z</time>
      </trkpt>
      <trkpt lat="43.18082" lon="5.76399">
        <ele>93</ele>
        <time>2016-04-12T12:35:55.000Z</time>
      </trkpt>
      <trkpt lat="43.18073" lon="5.76414">
        <ele>91.599998474121</ele>
        <time>2016-04-12T12:35:57.000Z</time>
      </trkpt>
      <trkpt lat="43.18051" lon="5.76429">
        <ele>90</ele>
        <time>2016-04-12T12:36:00.000Z</time>
      </trkpt>
      <trkpt lat="43.18034" lon="5.76435">
        <ele>89</ele>
        <time>2016-04-12T12:36:02.000Z</time>
      </trkpt>
      <trkpt lat="43.18016" lon="5.76444">
        <ele>87.800003051758</ele>
        <time>2016-04-12T12:36:04.000Z</time>
      </trkpt>
      <trkpt lat="43.18008" lon="5.76449">
        <ele>86.800003051758</ele>
        <time>2016-04-12T12:36:05.000Z</time>
      </trkpt>
      <trkpt lat="43.17999" lon="5.76454">
        <ele>85.800003051758</ele>
        <time>2016-04-12T12:36:06.000Z</time>
      </trkpt>
      <trkpt lat="43.17981" lon="5.76466">
        <ele>83.599998474121</ele>
        <time>2016-04-12T12:36:08.000Z</time>
      </trkpt>
      <trkpt lat="43.17964" lon="5.76478">
        <ele>81.400001525879</ele>
        <time>2016-04-12T12:36:10.000Z</time>
      </trkpt>
      <trkpt lat="43.17946" lon="5.76488">
        <ele>79.400001525879</ele>
        <time>2016-04-12T12:36:12.000Z</time>
      </trkpt>
      <trkpt lat="43.17926" lon="5.76491">
        <ele>78</ele>
        <time>2016-04-12T12:36:14.000Z</time>
      </trkpt>
      <trkpt lat="43.17907" lon="5.76493">
        <ele>77.800003051758</ele>
        <time>2016-04-12T12:36:16.000Z</time>
      </trkpt>
      <trkpt lat="43.17888" lon="5.76496">
        <ele>77.599998474121</ele>
        <time>2016-04-12T12:36:18.000Z</time>
      </trkpt>
      <trkpt lat="43.1787" lon="5.765">
        <ele>77.400001525879</ele>
        <time>2016-04-12T12:36:20.000Z</time>
      </trkpt>
      <trkpt lat="43.17862" lon="5.76504">
        <ele>77.800003051758</ele>
        <time>2016-04-12T12:36:21.000Z</time>
      </trkpt>
      <trkpt lat="43.17855" lon="5.76511">
        <ele>78</ele>
        <time>2016-04-12T12:36:22.000Z</time>
      </trkpt>
      <trkpt lat="43.17844" lon="5.76527">
        <ele>78</ele>
        <time>2016-04-12T12:36:24.000Z</time>
      </trkpt>
      <trkpt lat="43.17836" lon="5.76544">
        <ele>78</ele>
        <time>2016-04-12T12:36:26.000Z</time>
      </trkpt>
      <trkpt lat="43.17829" lon="5.76558">
        <ele>77.599998474121</ele>
        <time>2016-04-12T12:36:28.000Z</time>
      </trkpt>
      <trkpt lat="43.17826" lon="5.76565">
        <ele>77.400001525879</ele>
        <time>2016-04-12T12:36:29.000Z</time>
      </trkpt>
      <trkpt lat="43.17815" lon="5.76582">
        <ele>76.800003051758</ele>
        <time>2016-04-12T12:36:32.000Z</time>
      </trkpt>
      <trkpt lat="43.17807" lon="5.7659">
        <ele>76.800003051758</ele>
        <time>2016-04-12T12:36:34.000Z</time>
      </trkpt>
      <trkpt lat="43.17798" lon="5.76597">
        <ele>76.599998474121</ele>
        <time>2016-04-12T12:36:36.000Z</time>
      </trkpt>
      <trkpt lat="43.17783" lon="5.76602">
        <ele>76.599998474121</ele>
        <time>2016-04-12T12:36:39.000Z</time>
      </trkpt>
      <trkpt lat="43.17739" lon="5.76619">
        <ele>76.800003051758</ele>
        <time>2016-04-12T12:36:48.000Z</time>
      </trkpt>
      <trkpt lat="43.17707" lon="5.76645">
        <ele>74.599998474121</ele>
        <time>2016-04-12T12:36:55.000Z</time>
      </trkpt>
      <trkpt lat="43.17701" lon="5.76648">
        <ele>74.400001525879</ele>
        <time>2016-04-12T12:36:56.000Z</time>
      </trkpt>
      <trkpt lat="43.17679" lon="5.76659">
        <ele>73.199996948242</ele>
        <time>2016-04-12T12:37:01.000Z</time>
      </trkpt>
      <trkpt lat="43.17673" lon="5.76662">
        <ele>72.800003051758</ele>
        <time>2016-04-12T12:37:02.000Z</time>
      </trkpt>
      <trkpt lat="43.17654" lon="5.76673">
        <ele>71.400001525879</ele>
        <time>2016-04-12T12:37:05.000Z</time>
      </trkpt>
      <trkpt lat="43.17642" lon="5.76682">
        <ele>70.199996948242</ele>
        <time>2016-04-12T12:37:07.000Z</time>
      </trkpt>
      <trkpt lat="43.1763" lon="5.76692">
        <ele>69.800003051758</ele>
        <time>2016-04-12T12:37:09.000Z</time>
      </trkpt>
      <trkpt lat="43.17625" lon="5.76697">
        <ele>69.599998474121</ele>
        <time>2016-04-12T12:37:10.000Z</time>
      </trkpt>
      <trkpt lat="43.17598" lon="5.76717">
        <ele>69.199996948242</ele>
        <time>2016-04-12T12:37:15.000Z</time>
      </trkpt>
      <trkpt lat="43.17565" lon="5.76737">
        <ele>68.599998474121</ele>
        <time>2016-04-12T12:37:22.000Z</time>
      </trkpt>
      <trkpt lat="43.17561" lon="5.7674">
        <ele>68.400001525879</ele>
        <time>2016-04-12T12:37:23.000Z</time>
      </trkpt>
      <trkpt lat="43.17543" lon="5.76759">
        <ele>67.599998474121</ele>
        <time>2016-04-12T12:37:27.000Z</time>
      </trkpt>
      <trkpt lat="43.17529" lon="5.76775">
        <ele>67.199996948242</ele>
        <time>2016-04-12T12:37:30.000Z</time>
      </trkpt>
      <trkpt lat="43.17524" lon="5.76782">
        <ele>66.800003051758</ele>
        <time>2016-04-12T12:37:31.000Z</time>
      </trkpt>
      <trkpt lat="43.17499" lon="5.76811">
        <ele>65.800003051758</ele>
        <time>2016-04-12T12:37:35.000Z</time>
      </trkpt>
      <trkpt lat="43.17487" lon="5.76823">
        <ele>65</ele>
        <time>2016-04-12T12:37:37.000Z</time>
      </trkpt>
      <trkpt lat="43.17476" lon="5.76834">
        <ele>64.400001525879</ele>
        <time>2016-04-12T12:37:39.000Z</time>
      </trkpt>
      <trkpt lat="43.17472" lon="5.76841">
        <ele>63.799999237061</ele>
        <time>2016-04-12T12:37:40.000Z</time>
      </trkpt>
      <trkpt lat="43.17469" lon="5.76848">
        <ele>63.200000762939</ele>
        <time>2016-04-12T12:37:41.000Z</time>
      </trkpt>
      <trkpt lat="43.1747" lon="5.76874">
        <ele>60.200000762939</ele>
        <time>2016-04-12T12:37:44.000Z</time>
      </trkpt>
      <trkpt lat="43.17482" lon="5.76897">
        <ele>57.799999237061</ele>
        <time>2016-04-12T12:37:47.000Z</time>
      </trkpt>
      <trkpt lat="43.17489" lon="5.76914">
        <ele>56.599998474121</ele>
        <time>2016-04-12T12:37:49.000Z</time>
      </trkpt>
      <trkpt lat="43.17493" lon="5.76934">
        <ele>55</ele>
        <time>2016-04-12T12:37:51.000Z</time>
      </trkpt>
      <trkpt lat="43.17494" lon="5.76944">
        <ele>54</ele>
        <time>2016-04-12T12:37:52.000Z</time>
      </trkpt>
      <trkpt lat="43.17495" lon="5.76965">
        <ele>52.400001525879</ele>
        <time>2016-04-12T12:37:54.000Z</time>
      </trkpt>
      <trkpt lat="43.17495" lon="5.76976">
        <ele>51.799999237061</ele>
        <time>2016-04-12T12:37:55.000Z</time>
      </trkpt>
      <trkpt lat="43.17496" lon="5.76986">
        <ele>51.599998474121</ele>
        <time>2016-04-12T12:37:56.000Z</time>
      </trkpt>
      <trkpt lat="43.17496" lon="5.77006">
        <ele>51.200000762939</ele>
        <time>2016-04-12T12:37:58.000Z</time>
      </trkpt>
      <trkpt lat="43.17496" lon="5.77032">
        <ele>50.599998474121</ele>
        <time>2016-04-12T12:38:01.000Z</time>
      </trkpt>
      <trkpt lat="43.17495" lon="5.77041">
        <ele>50.400001525879</ele>
        <time>2016-04-12T12:38:02.000Z</time>
      </trkpt>
      <trkpt lat="43.17486" lon="5.77062">
        <ele>49.799999237061</ele>
        <time>2016-04-12T12:38:05.000Z</time>
      </trkpt>
      <trkpt lat="43.17477" lon="5.77072">
        <ele>49.599998474121</ele>
        <time>2016-04-12T12:38:07.000Z</time>
      </trkpt>
      <trkpt lat="43.17466" lon="5.77078">
        <ele>49.400001525879</ele>
        <time>2016-04-12T12:38:09.000Z</time>
      </trkpt>
      <trkpt lat="43.17456" lon="5.7708">
        <ele>49.400001525879</ele>
        <time>2016-04-12T12:38:11.000Z</time>
      </trkpt>
      <trkpt lat="43.17451" lon="5.77082">
        <ele>49.200000762939</ele>
        <time>2016-04-12T12:38:13.000Z</time>
      </trkpt>
      <trkpt lat="43.17447" lon="5.77085">
        <ele>49</ele>
        <time>2016-04-12T12:38:15.000Z</time>
      </trkpt>
      <trkpt lat="43.17447" lon="5.77088">
        <ele>49</ele>
        <time>2016-04-12T12:38:16.000Z</time>
      </trkpt>
      <trkpt lat="43.17449" lon="5.77092">
        <ele>49</ele>
        <time>2016-04-12T12:38:17.000Z</time>
      </trkpt>
      <trkpt lat="43.17455" lon="5.77099">
        <ele>49.200000762939</ele>
        <time>2016-04-12T12:38:19.000Z</time>
      </trkpt>
      <trkpt lat="43.17459" lon="5.77103">
        <ele>49.200000762939</ele>
        <time>2016-04-12T12:38:20.000Z</time>
      </trkpt>
      <trkpt lat="43.17462" lon="5.77108">
        <ele>49.200000762939</ele>
        <time>2016-04-12T12:38:21.000Z</time>
      </trkpt>
      <trkpt lat="43.17475" lon="5.77131">
        <ele>49.200000762939</ele>
        <time>2016-04-12T12:38:26.000Z</time>
      </trkpt>
      <trkpt lat="43.17474" lon="5.77135">
        <ele>49.200000762939</ele>
        <time>2016-04-12T12:38:27.000Z</time>
      </trkpt>
      <trkpt lat="43.17464" lon="5.7714">
        <ele>49</ele>
        <time>2016-04-12T12:38:30.000Z</time>
      </trkpt>
      <trkpt lat="43.17459" lon="5.7714">
        <ele>48.799999237061</ele>
        <time>2016-04-12T12:38:31.000Z</time>
      </trkpt>
      <trkpt lat="43.17434" lon="5.77148">
        <ele>48.200000762939</ele>
        <time>2016-04-12T12:38:36.000Z</time>
      </trkpt>
      <trkpt lat="43.1743" lon="5.7715">
        <ele>48</ele>
        <time>2016-04-12T12:38:37.000Z</time>
      </trkpt>
      <trkpt lat="43.17406" lon="5.77161">
        <ele>47.400001525879</ele>
        <time>2016-04-12T12:38:42.000Z</time>
      </trkpt>
      <trkpt lat="43.17388" lon="5.77172">
        <ele>47.200000762939</ele>
        <time>2016-04-12T12:38:46.000Z</time>
      </trkpt>
      <trkpt lat="43.17374" lon="5.7718">
        <ele>46.599998474121</ele>
        <time>2016-04-12T12:38:49.000Z</time>
      </trkpt>
      <trkpt lat="43.17331" lon="5.77211">
        <ele>45.599998474121</ele>
        <time>2016-04-12T12:38:58.000Z</time>
      </trkpt>
      <trkpt lat="43.17312" lon="5.77226">
        <ele>45.599998474121</ele>
        <time>2016-04-12T12:39:02.000Z</time>
      </trkpt>
      <trkpt lat="43.1728" lon="5.77254">
        <ele>47.599998474121</ele>
        <time>2016-04-12T12:39:09.000Z</time>
      </trkpt>
      <trkpt lat="43.1727" lon="5.77262">
        <ele>48</ele>
        <time>2016-04-12T12:39:11.000Z</time>
      </trkpt>
      <trkpt lat="43.17243" lon="5.77287">
        <ele>48.599998474121</ele>
        <time>2016-04-12T12:39:17.000Z</time>
      </trkpt>
      <trkpt lat="43.17209" lon="5.77307">
        <ele>47</ele>
        <time>2016-04-12T12:39:24.000Z</time>
      </trkpt>
      <trkpt lat="43.17191" lon="5.77316">
        <ele>47</ele>
        <time>2016-04-12T12:39:29.000Z</time>
      </trkpt>
      <trkpt lat="43.17168" lon="5.77326">
        <ele>47.400001525879</ele>
        <time>2016-04-12T12:39:35.000Z</time>
      </trkpt>
      <trkpt lat="43.17135" lon="5.77339">
        <ele>48.599998474121</ele>
        <time>2016-04-12T12:39:42.000Z</time>
      </trkpt>
      <trkpt lat="43.17108" lon="5.77347">
        <ele>47.200000762939</ele>
        <time>2016-04-12T12:39:48.000Z</time>
      </trkpt>
      <trkpt lat="43.17079" lon="5.77349">
        <ele>45.799999237061</ele>
        <time>2016-04-12T12:39:54.000Z</time>
      </trkpt>
      <trkpt lat="43.17074" lon="5.77349">
        <ele>45.599998474121</ele>
        <time>2016-04-12T12:39:55.000Z</time>
      </trkpt>
      <trkpt lat="43.17045" lon="5.77342">
        <ele>44.599998474121</ele>
        <time>2016-04-12T12:40:01.000Z</time>
      </trkpt>
      <trkpt lat="43.1704" lon="5.77341">
        <ele>44.599998474121</ele>
        <time>2016-04-12T12:40:02.000Z</time>
      </trkpt>
      <trkpt lat="43.1701" lon="5.77338">
        <ele>44</ele>
        <time>2016-04-12T12:40:09.000Z</time>
      </trkpt>
      <trkpt lat="43.16991" lon="5.77341">
        <ele>44.200000762939</ele>
        <time>2016-04-12T12:40:13.000Z</time>
      </trkpt>
      <trkpt lat="43.16987" lon="5.77343">
        <ele>44.400001525879</ele>
        <time>2016-04-12T12:40:14.000Z</time>
      </trkpt>
      <trkpt lat="43.16971" lon="5.77362">
        <ele>45</ele>
        <time>2016-04-12T12:40:18.000Z</time>
      </trkpt>
      <trkpt lat="43.16941" lon="5.77401">
        <ele>45.799999237061</ele>
        <time>2016-04-12T12:40:26.000Z</time>
      </trkpt>
      <trkpt lat="43.16928" lon="5.77414">
        <ele>45.799999237061</ele>
        <time>2016-04-12T12:40:31.000Z</time>
      </trkpt>
      <trkpt lat="43.1691" lon="5.77432">
        <ele>46.799999237061</ele>
        <time>2016-04-12T12:40:38.000Z</time>
      </trkpt>
      <trkpt lat="43.16896" lon="5.77458">
        <ele>49</ele>
        <time>2016-04-12T12:40:44.000Z</time>
      </trkpt>
      <trkpt lat="43.16894" lon="5.77463">
        <ele>49.599998474121</ele>
        <time>2016-04-12T12:40:45.000Z</time>
      </trkpt>
      <trkpt lat="43.1689" lon="5.77492">
        <ele>51.799999237061</ele>
        <time>2016-04-12T12:40:51.000Z</time>
      </trkpt>
      <trkpt lat="43.1689" lon="5.77507">
        <ele>52.599998474121</ele>
        <time>2016-04-12T12:40:54.000Z</time>
      </trkpt>
      <trkpt lat="43.1689" lon="5.77521">
        <ele>53.599998474121</ele>
        <time>2016-04-12T12:40:57.000Z</time>
      </trkpt>
      <trkpt lat="43.16891" lon="5.77534">
        <ele>55.200000762939</ele>
        <time>2016-04-12T12:41:00.000Z</time>
      </trkpt>
      <trkpt lat="43.16891" lon="5.77548">
        <ele>56.799999237061</ele>
        <time>2016-04-12T12:41:03.000Z</time>
      </trkpt>
      <trkpt lat="43.16892" lon="5.77558">
        <ele>57.799999237061</ele>
        <time>2016-04-12T12:41:05.000Z</time>
      </trkpt>
      <trkpt lat="43.16895" lon="5.77572">
        <ele>58.200000762939</ele>
        <time>2016-04-12T12:41:08.000Z</time>
      </trkpt>
      <trkpt lat="43.16897" lon="5.77581">
        <ele>58.599998474121</ele>
        <time>2016-04-12T12:41:10.000Z</time>
      </trkpt>
      <trkpt lat="43.16898" lon="5.7759">
        <ele>58.799999237061</ele>
        <time>2016-04-12T12:41:12.000Z</time>
      </trkpt>
      <trkpt lat="43.16898" lon="5.776">
        <ele>59.400001525879</ele>
        <time>2016-04-12T12:41:14.000Z</time>
      </trkpt>
      <trkpt lat="43.16896" lon="5.77605">
        <ele>59.599998474121</ele>
        <time>2016-04-12T12:41:15.000Z</time>
      </trkpt>
      <trkpt lat="43.16893" lon="5.77608">
        <ele>60</ele>
        <time>2016-04-12T12:41:16.000Z</time>
      </trkpt>
      <trkpt lat="43.16889" lon="5.77607">
        <ele>60.400001525879</ele>
        <time>2016-04-12T12:41:17.000Z</time>
      </trkpt>
      <trkpt lat="43.16886" lon="5.77604">
        <ele>60.400001525879</ele>
        <time>2016-04-12T12:41:18.000Z</time>
      </trkpt>
      <trkpt lat="43.16882" lon="5.77601">
        <ele>60.599998474121</ele>
        <time>2016-04-12T12:41:19.000Z</time>
      </trkpt>
      <trkpt lat="43.16878" lon="5.77599">
        <ele>60.799999237061</ele>
        <time>2016-04-12T12:41:20.000Z</time>
      </trkpt>
      <trkpt lat="43.16874" lon="5.776">
        <ele>61.200000762939</ele>
        <time>2016-04-12T12:41:21.000Z</time>
      </trkpt>
      <trkpt lat="43.1687" lon="5.77603">
        <ele>61.799999237061</ele>
        <time>2016-04-12T12:41:22.000Z</time>
      </trkpt>
      <trkpt lat="43.16867" lon="5.77607">
        <ele>62.200000762939</ele>
        <time>2016-04-12T12:41:23.000Z</time>
      </trkpt>
      <trkpt lat="43.16864" lon="5.77619">
        <ele>63.200000762939</ele>
        <time>2016-04-12T12:41:25.000Z</time>
      </trkpt>
      <trkpt lat="43.16862" lon="5.77631">
        <ele>64</ele>
        <time>2016-04-12T12:41:27.000Z</time>
      </trkpt>
      <trkpt lat="43.16861" lon="5.77637">
        <ele>64.599998474121</ele>
        <time>2016-04-12T12:41:28.000Z</time>
      </trkpt>
      <trkpt lat="43.16861" lon="5.77643">
        <ele>65</ele>
        <time>2016-04-12T12:41:29.000Z</time>
      </trkpt>
      <trkpt lat="43.1686" lon="5.7765">
        <ele>65.599998474121</ele>
        <time>2016-04-12T12:41:30.000Z</time>
      </trkpt>
      <trkpt lat="43.16859" lon="5.77662">
        <ele>66.400001525879</ele>
        <time>2016-04-12T12:41:32.000Z</time>
      </trkpt>
      <trkpt lat="43.16859" lon="5.77669">
        <ele>66.599998474121</ele>
        <time>2016-04-12T12:41:33.000Z</time>
      </trkpt>
      <trkpt lat="43.16857" lon="5.77688">
        <ele>67.400001525879</ele>
        <time>2016-04-12T12:41:36.000Z</time>
      </trkpt>
      <trkpt lat="43.16855" lon="5.77706">
        <ele>68</ele>
        <time>2016-04-12T12:41:39.000Z</time>
      </trkpt>
      <trkpt lat="43.16856" lon="5.77718">
        <ele>68.400001525879</ele>
        <time>2016-04-12T12:41:41.000Z</time>
      </trkpt>
      <trkpt lat="43.16858" lon="5.77734">
        <ele>69.199996948242</ele>
        <time>2016-04-12T12:41:44.000Z</time>
      </trkpt>
      <trkpt lat="43.1686" lon="5.77747">
        <ele>69.800003051758</ele>
        <time>2016-04-12T12:41:47.000Z</time>
      </trkpt>
      <trkpt lat="43.16861" lon="5.7775">
        <ele>69.800003051758</ele>
        <time>2016-04-12T12:41:48.000Z</time>
      </trkpt>
      <trkpt lat="43.16862" lon="5.77768">
        <ele>70.400001525879</ele>
        <time>2016-04-12T12:41:52.000Z</time>
      </trkpt>
      <trkpt lat="43.16865" lon="5.77794">
        <ele>71.400001525879</ele>
        <time>2016-04-12T12:41:57.000Z</time>
      </trkpt>
      <trkpt lat="43.16867" lon="5.77804">
        <ele>71.800003051758</ele>
        <time>2016-04-12T12:41:59.000Z</time>
      </trkpt>
      <trkpt lat="43.1687" lon="5.77838">
        <ele>75</ele>
        <time>2016-04-12T12:42:06.000Z</time>
      </trkpt>
      <trkpt lat="43.16871" lon="5.77848">
        <ele>75.800003051758</ele>
        <time>2016-04-12T12:42:08.000Z</time>
      </trkpt>
      <trkpt lat="43.16872" lon="5.77857">
        <ele>76.400001525879</ele>
        <time>2016-04-12T12:42:10.000Z</time>
      </trkpt>
      <trkpt lat="43.16874" lon="5.7787">
        <ele>77.400001525879</ele>
        <time>2016-04-12T12:42:13.000Z</time>
      </trkpt>
      <trkpt lat="43.16877" lon="5.77884">
        <ele>78.400001525879</ele>
        <time>2016-04-12T12:42:16.000Z</time>
      </trkpt>
      <trkpt lat="43.16877" lon="5.77889">
        <ele>78.800003051758</ele>
        <time>2016-04-12T12:42:17.000Z</time>
      </trkpt>
      <trkpt lat="43.16881" lon="5.7791">
        <ele>79.599998474121</ele>
        <time>2016-04-12T12:42:21.000Z</time>
      </trkpt>
      <trkpt lat="43.16882" lon="5.77925">
        <ele>80.199996948242</ele>
        <time>2016-04-12T12:42:24.000Z</time>
      </trkpt>
      <trkpt lat="43.16883" lon="5.77934">
        <ele>80.599998474121</ele>
        <time>2016-04-12T12:42:26.000Z</time>
      </trkpt>
      <trkpt lat="43.16878" lon="5.77962">
        <ele>82</ele>
        <time>2016-04-12T12:42:32.000Z</time>
      </trkpt>
      <trkpt lat="43.16865" lon="5.7797">
        <ele>82.199996948242</ele>
        <time>2016-04-12T12:42:36.000Z</time>
      </trkpt>
      <trkpt lat="43.16858" lon="5.77979">
        <ele>82.800003051758</ele>
        <time>2016-04-12T12:42:39.000Z</time>
      </trkpt>
      <trkpt lat="43.16857" lon="5.77984">
        <ele>83</ele>
        <time>2016-04-12T12:42:40.000Z</time>
      </trkpt>
      <trkpt lat="43.16856" lon="5.77997">
        <ele>83.800003051758</ele>
        <time>2016-04-12T12:42:43.000Z</time>
      </trkpt>
      <trkpt lat="43.16856" lon="5.78007">
        <ele>84.400001525879</ele>
        <time>2016-04-12T12:42:45.000Z</time>
      </trkpt>
      <trkpt lat="43.16856" lon="5.78011">
        <ele>84.599998474121</ele>
        <time>2016-04-12T12:42:46.000Z</time>
      </trkpt>
      <trkpt lat="43.16855" lon="5.78039">
        <ele>86.400001525879</ele>
        <time>2016-04-12T12:42:52.000Z</time>
      </trkpt>
      <trkpt lat="43.16849" lon="5.78063">
        <ele>87.400001525879</ele>
        <time>2016-04-12T12:42:57.000Z</time>
      </trkpt>
      <trkpt lat="43.16847" lon="5.78078">
        <ele>88</ele>
        <time>2016-04-12T12:43:00.000Z</time>
      </trkpt>
      <trkpt lat="43.16847" lon="5.78087">
        <ele>88.199996948242</ele>
        <time>2016-04-12T12:43:02.000Z</time>
      </trkpt>
      <trkpt lat="43.16848" lon="5.78107">
        <ele>89</ele>
        <time>2016-04-12T12:43:06.000Z</time>
      </trkpt>
      <trkpt lat="43.16848" lon="5.78112">
        <ele>89.199996948242</ele>
        <time>2016-04-12T12:43:07.000Z</time>
      </trkpt>
      <trkpt lat="43.16848" lon="5.7814">
        <ele>90.199996948242</ele>
        <time>2016-04-12T12:43:13.000Z</time>
      </trkpt>
      <trkpt lat="43.16849" lon="5.78149">
        <ele>90.400001525879</ele>
        <time>2016-04-12T12:43:15.000Z</time>
      </trkpt>
      <trkpt lat="43.16856" lon="5.78188">
        <ele>91.400001525879</ele>
        <time>2016-04-12T12:43:23.000Z</time>
      </trkpt>
      <trkpt lat="43.16857" lon="5.78193">
        <ele>91.599998474121</ele>
        <time>2016-04-12T12:43:24.000Z</time>
      </trkpt>
      <trkpt lat="43.16869" lon="5.78248">
        <ele>94.400001525879</ele>
        <time>2016-04-12T12:43:35.000Z</time>
      </trkpt>
      <trkpt lat="43.16871" lon="5.78254">
        <ele>94.599998474121</ele>
        <time>2016-04-12T12:43:36.000Z</time>
      </trkpt>
      <trkpt lat="43.16877" lon="5.78285">
        <ele>96.400001525879</ele>
        <time>2016-04-12T12:43:42.000Z</time>
      </trkpt>
      <trkpt lat="43.1688" lon="5.78296">
        <ele>97</ele>
        <time>2016-04-12T12:43:44.000Z</time>
      </trkpt>
      <trkpt lat="43.16884" lon="5.78327">
        <ele>99.199996948242</ele>
        <time>2016-04-12T12:43:50.000Z</time>
      </trkpt>
      <trkpt lat="43.16886" lon="5.78338">
        <ele>100</ele>
        <time>2016-04-12T12:43:52.000Z</time>
      </trkpt>
      <trkpt lat="43.16886" lon="5.78343">
        <ele>100.19999694824</ele>
        <time>2016-04-12T12:43:53.000Z</time>
      </trkpt>
      <trkpt lat="43.16887" lon="5.78359">
        <ele>101.19999694824</ele>
        <time>2016-04-12T12:43:56.000Z</time>
      </trkpt>
      <trkpt lat="43.16885" lon="5.78379">
        <ele>102</ele>
        <time>2016-04-12T12:44:00.000Z</time>
      </trkpt>
      <trkpt lat="43.16882" lon="5.784">
        <ele>102.80000305176</ele>
        <time>2016-04-12T12:44:04.000Z</time>
      </trkpt>
      <trkpt lat="43.16879" lon="5.7842">
        <ele>103.59999847412</ele>
        <time>2016-04-12T12:44:08.000Z</time>
      </trkpt>
      <trkpt lat="43.16879" lon="5.7843">
        <ele>104</ele>
        <time>2016-04-12T12:44:10.000Z</time>
      </trkpt>
      <trkpt lat="43.16879" lon="5.78451">
        <ele>104.40000152588</ele>
        <time>2016-04-12T12:44:14.000Z</time>
      </trkpt>
      <trkpt lat="43.16879" lon="5.78462">
        <ele>104.80000305176</ele>
        <time>2016-04-12T12:44:16.000Z</time>
      </trkpt>
      <trkpt lat="43.1688" lon="5.78477">
        <ele>105.40000152588</ele>
        <time>2016-04-12T12:44:19.000Z</time>
      </trkpt>
      <trkpt lat="43.16881" lon="5.78487">
        <ele>106</ele>
        <time>2016-04-12T12:44:21.000Z</time>
      </trkpt>
      <trkpt lat="43.16883" lon="5.78498">
        <ele>106.80000305176</ele>
        <time>2016-04-12T12:44:23.000Z</time>
      </trkpt>
      <trkpt lat="43.16884" lon="5.78503">
        <ele>107.19999694824</ele>
        <time>2016-04-12T12:44:24.000Z</time>
      </trkpt>
      <trkpt lat="43.16886" lon="5.78518">
        <ele>108.19999694824</ele>
        <time>2016-04-12T12:44:27.000Z</time>
      </trkpt>
      <trkpt lat="43.16887" lon="5.78533">
        <ele>108.80000305176</ele>
        <time>2016-04-12T12:44:30.000Z</time>
      </trkpt>
      <trkpt lat="43.16889" lon="5.78553">
        <ele>109.80000305176</ele>
        <time>2016-04-12T12:44:34.000Z</time>
      </trkpt>
      <trkpt lat="43.16893" lon="5.78567">
        <ele>110.59999847412</ele>
        <time>2016-04-12T12:44:37.000Z</time>
      </trkpt>
      <trkpt lat="43.16899" lon="5.78574">
        <ele>111.40000152588</ele>
        <time>2016-04-12T12:44:39.000Z</time>
      </trkpt>
      <trkpt lat="43.16905" lon="5.78579">
        <ele>112.40000152588</ele>
        <time>2016-04-12T12:44:41.000Z</time>
      </trkpt>
      <trkpt lat="43.16916" lon="5.78584">
        <ele>114.19999694824</ele>
        <time>2016-04-12T12:44:44.000Z</time>
      </trkpt>
      <trkpt lat="43.16934" lon="5.78598">
        <ele>116</ele>
        <time>2016-04-12T12:44:50.000Z</time>
      </trkpt>
      <trkpt lat="43.16941" lon="5.78616">
        <ele>115.80000305176</ele>
        <time>2016-04-12T12:44:54.000Z</time>
      </trkpt>
      <trkpt lat="43.16943" lon="5.78626">
        <ele>115.80000305176</ele>
        <time>2016-04-12T12:44:56.000Z</time>
      </trkpt>
      <trkpt lat="43.16947" lon="5.78649">
        <ele>116.80000305176</ele>
        <time>2016-04-12T12:45:01.000Z</time>
      </trkpt>
      <trkpt lat="43.16951" lon="5.78663">
        <ele>118</ele>
        <time>2016-04-12T12:45:04.000Z</time>
      </trkpt>
      <trkpt lat="43.16951" lon="5.78668">
        <ele>118</ele>
        <time>2016-04-12T12:45:05.000Z</time>
      </trkpt>
      <trkpt lat="43.16955" lon="5.78694">
        <ele>118.19999694824</ele>
        <time>2016-04-12T12:45:12.000Z</time>
      </trkpt>
      <trkpt lat="43.16957" lon="5.78698">
        <ele>118.40000152588</ele>
        <time>2016-04-12T12:48:06.000Z</time>
      </trkpt>
      <trkpt lat="43.16961" lon="5.78716">
        <ele>118.80000305176</ele>
        <time>2016-04-12T12:48:11.000Z</time>
      </trkpt>
      <trkpt lat="43.16964" lon="5.78734">
        <ele>120.19999694824</ele>
        <time>2016-04-12T12:48:15.000Z</time>
      </trkpt>
      <trkpt lat="43.16968" lon="5.78752">
        <ele>122.19999694824</ele>
        <time>2016-04-12T12:48:19.000Z</time>
      </trkpt>
      <trkpt lat="43.16972" lon="5.7877">
        <ele>124.19999694824</ele>
        <time>2016-04-12T12:48:23.000Z</time>
      </trkpt>
      <trkpt lat="43.16975" lon="5.78784">
        <ele>125.80000305176</ele>
        <time>2016-04-12T12:48:26.000Z</time>
      </trkpt>
      <trkpt lat="43.16977" lon="5.78794">
        <ele>126.80000305176</ele>
        <time>2016-04-12T12:48:28.000Z</time>
      </trkpt>
      <trkpt lat="43.1698" lon="5.78809">
        <ele>128.39999389648</ele>
        <time>2016-04-12T12:48:31.000Z</time>
      </trkpt>
      <trkpt lat="43.16983" lon="5.78835">
        <ele>130.80000305176</ele>
        <time>2016-04-12T12:48:36.000Z</time>
      </trkpt>
      <trkpt lat="43.16981" lon="5.78846">
        <ele>131.60000610352</ele>
        <time>2016-04-12T12:48:38.000Z</time>
      </trkpt>
      <trkpt lat="43.16979" lon="5.78856">
        <ele>132.19999694824</ele>
        <time>2016-04-12T12:48:40.000Z</time>
      </trkpt>
      <trkpt lat="43.16977" lon="5.78861">
        <ele>132.39999389648</ele>
        <time>2016-04-12T12:48:41.000Z</time>
      </trkpt>
      <trkpt lat="43.16975" lon="5.78865">
        <ele>132.80000305176</ele>
        <time>2016-04-12T12:48:42.000Z</time>
      </trkpt>
      <trkpt lat="43.16972" lon="5.7887">
        <ele>133</ele>
        <time>2016-04-12T12:48:43.000Z</time>
      </trkpt>
      <trkpt lat="43.1697" lon="5.78875">
        <ele>133.19999694824</ele>
        <time>2016-04-12T12:48:44.000Z</time>
      </trkpt>
      <trkpt lat="43.16963" lon="5.78893">
        <ele>134.39999389648</ele>
        <time>2016-04-12T12:48:48.000Z</time>
      </trkpt>
      <trkpt lat="43.16955" lon="5.78913">
        <ele>135.39999389648</ele>
        <time>2016-04-12T12:48:52.000Z</time>
      </trkpt>
      <trkpt lat="43.16952" lon="5.78923">
        <ele>136</ele>
        <time>2016-04-12T12:48:54.000Z</time>
      </trkpt>
      <trkpt lat="43.1694" lon="5.78945">
        <ele>136.80000305176</ele>
        <time>2016-04-12T12:48:59.000Z</time>
      </trkpt>
      <trkpt lat="43.16933" lon="5.78948">
        <ele>136.39999389648</ele>
        <time>2016-04-12T12:49:01.000Z</time>
      </trkpt>
      <trkpt lat="43.16926" lon="5.78946">
        <ele>135.60000610352</ele>
        <time>2016-04-12T12:49:03.000Z</time>
      </trkpt>
      <trkpt lat="43.16915" lon="5.78943">
        <ele>133.80000305176</ele>
        <time>2016-04-12T12:49:06.000Z</time>
      </trkpt>
      <trkpt lat="43.16911" lon="5.78946">
        <ele>133.60000610352</ele>
        <time>2016-04-12T12:49:07.000Z</time>
      </trkpt>
      <trkpt lat="43.16907" lon="5.7896">
        <ele>134</ele>
        <time>2016-04-12T12:49:10.000Z</time>
      </trkpt>
      <trkpt lat="43.16906" lon="5.78965">
        <ele>134.19999694824</ele>
        <time>2016-04-12T12:49:11.000Z</time>
      </trkpt>
      <trkpt lat="43.16905" lon="5.7897">
        <ele>134.39999389648</ele>
        <time>2016-04-12T12:49:12.000Z</time>
      </trkpt>
      <trkpt lat="43.16905" lon="5.78979">
        <ele>134.80000305176</ele>
        <time>2016-04-12T12:49:14.000Z</time>
      </trkpt>
      <trkpt lat="43.16905" lon="5.78989">
        <ele>135.60000610352</ele>
        <time>2016-04-12T12:49:16.000Z</time>
      </trkpt>
      <trkpt lat="43.16905" lon="5.78995">
        <ele>135.80000305176</ele>
        <time>2016-04-12T12:49:17.000Z</time>
      </trkpt>
      <trkpt lat="43.16913" lon="5.79013">
        <ele>138.19999694824</ele>
        <time>2016-04-12T12:49:21.000Z</time>
      </trkpt>
      <trkpt lat="43.16916" lon="5.79015">
        <ele>138.80000305176</ele>
        <time>2016-04-12T12:49:22.000Z</time>
      </trkpt>
      <trkpt lat="43.16929" lon="5.79023">
        <ele>141.39999389648</ele>
        <time>2016-04-12T12:49:26.000Z</time>
      </trkpt>
      <trkpt lat="43.16933" lon="5.79025">
        <ele>142</ele>
        <time>2016-04-12T12:49:27.000Z</time>
      </trkpt>
      <trkpt lat="43.16951" lon="5.79035">
        <ele>145.60000610352</ele>
        <time>2016-04-12T12:49:32.000Z</time>
      </trkpt>
      <trkpt lat="43.16954" lon="5.79038">
        <ele>146.39999389648</ele>
        <time>2016-04-12T12:49:33.000Z</time>
      </trkpt>
      <trkpt lat="43.16987" lon="5.79054">
        <ele>152.80000305176</ele>
        <time>2016-04-12T12:49:42.000Z</time>
      </trkpt>
      <trkpt lat="43.1699" lon="5.79056">
        <ele>153.60000610352</ele>
        <time>2016-04-12T12:49:43.000Z</time>
      </trkpt>
      <trkpt lat="43.17002" lon="5.79066">
        <ele>155.80000305176</ele>
        <time>2016-04-12T12:49:47.000Z</time>
      </trkpt>
      <trkpt lat="43.17003" lon="5.79071">
        <ele>156</ele>
        <time>2016-04-12T12:49:48.000Z</time>
      </trkpt>
      <trkpt lat="43.17003" lon="5.79076">
        <ele>156.19999694824</ele>
        <time>2016-04-12T12:49:49.000Z</time>
      </trkpt>
      <trkpt lat="43.17" lon="5.79086">
        <ele>155.80000305176</ele>
        <time>2016-04-12T12:49:51.000Z</time>
      </trkpt>
      <trkpt lat="43.16997" lon="5.79096">
        <ele>155.60000610352</ele>
        <time>2016-04-12T12:49:53.000Z</time>
      </trkpt>
      <trkpt lat="43.16992" lon="5.7911">
        <ele>155.19999694824</ele>
        <time>2016-04-12T12:49:56.000Z</time>
      </trkpt>
      <trkpt lat="43.16988" lon="5.79123">
        <ele>154.39999389648</ele>
        <time>2016-04-12T12:49:59.000Z</time>
      </trkpt>
      <trkpt lat="43.16987" lon="5.79138">
        <ele>154</ele>
        <time>2016-04-12T12:50:02.000Z</time>
      </trkpt>
      <trkpt lat="43.16986" lon="5.79172">
        <ele>153.80000305176</ele>
        <time>2016-04-12T12:50:08.000Z</time>
      </trkpt>
      <trkpt lat="43.16989" lon="5.79201">
        <ele>154.19999694824</ele>
        <time>2016-04-12T12:50:12.000Z</time>
      </trkpt>
      <trkpt lat="43.16988" lon="5.79208">
        <ele>153.80000305176</ele>
        <time>2016-04-12T12:50:13.000Z</time>
      </trkpt>
      <trkpt lat="43.16988" lon="5.79216">
        <ele>153.39999389648</ele>
        <time>2016-04-12T12:50:14.000Z</time>
      </trkpt>
      <trkpt lat="43.16985" lon="5.79261">
        <ele>153.39999389648</ele>
        <time>2016-04-12T12:50:21.000Z</time>
      </trkpt>
      <trkpt lat="43.16985" lon="5.79301">
        <ele>155.19999694824</ele>
        <time>2016-04-12T12:50:29.000Z</time>
      </trkpt>
      <trkpt lat="43.16993" lon="5.79319">
        <ele>157.60000610352</ele>
        <time>2016-04-12T12:50:33.000Z</time>
      </trkpt>
      <trkpt lat="43.16995" lon="5.79324">
        <ele>158.19999694824</ele>
        <time>2016-04-12T12:50:34.000Z</time>
      </trkpt>
      <trkpt lat="43.17" lon="5.79356">
        <ele>160.39999389648</ele>
        <time>2016-04-12T12:50:40.000Z</time>
      </trkpt>
      <trkpt lat="43.16994" lon="5.79378">
        <ele>160</ele>
        <time>2016-04-12T12:50:44.000Z</time>
      </trkpt>
      <trkpt lat="43.16992" lon="5.79383">
        <ele>160</ele>
        <time>2016-04-12T12:50:45.000Z</time>
      </trkpt>
      <trkpt lat="43.16973" lon="5.7943">
        <ele>161.80000305176</ele>
        <time>2016-04-12T12:50:54.000Z</time>
      </trkpt>
      <trkpt lat="43.16972" lon="5.79435">
        <ele>161.80000305176</ele>
        <time>2016-04-12T12:50:55.000Z</time>
      </trkpt>
      <trkpt lat="43.16967" lon="5.79451">
        <ele>162</ele>
        <time>2016-04-12T12:50:58.000Z</time>
      </trkpt>
      <trkpt lat="43.16961" lon="5.79478">
        <ele>162.80000305176</ele>
        <time>2016-04-12T12:51:03.000Z</time>
      </trkpt>
      <trkpt lat="43.16959" lon="5.79488">
        <ele>163.60000610352</ele>
        <time>2016-04-12T12:51:05.000Z</time>
      </trkpt>
      <trkpt lat="43.16952" lon="5.79522">
        <ele>165.19999694824</ele>
        <time>2016-04-12T12:51:11.000Z</time>
      </trkpt>
      <trkpt lat="43.16951" lon="5.79528">
        <ele>165.60000610352</ele>
        <time>2016-04-12T12:51:12.000Z</time>
      </trkpt>
      <trkpt lat="43.16947" lon="5.79556">
        <ele>166.60000610352</ele>
        <time>2016-04-12T12:51:17.000Z</time>
      </trkpt>
      <trkpt lat="43.16945" lon="5.79561">
        <ele>167</ele>
        <time>2016-04-12T12:51:18.000Z</time>
      </trkpt>
      <trkpt lat="43.16942" lon="5.79572">
        <ele>167.80000305176</ele>
        <time>2016-04-12T12:51:20.000Z</time>
      </trkpt>
      <trkpt lat="43.16933" lon="5.79597">
        <ele>167.19999694824</ele>
        <time>2016-04-12T12:51:25.000Z</time>
      </trkpt>
      <trkpt lat="43.16931" lon="5.79603">
        <ele>167.19999694824</ele>
        <time>2016-04-12T12:51:26.000Z</time>
      </trkpt>
      <trkpt lat="43.16921" lon="5.79633">
        <ele>168.60000610352</ele>
        <time>2016-04-12T12:51:32.000Z</time>
      </trkpt>
      <trkpt lat="43.16911" lon="5.79651">
        <ele>168.60000610352</ele>
        <time>2016-04-12T12:51:36.000Z</time>
      </trkpt>
      <trkpt lat="43.16906" lon="5.79665">
        <ele>169</ele>
        <time>2016-04-12T12:51:39.000Z</time>
      </trkpt>
      <trkpt lat="43.16905" lon="5.79686">
        <ele>170.60000610352</ele>
        <time>2016-04-12T12:51:43.000Z</time>
      </trkpt>
      <trkpt lat="43.16905" lon="5.79691">
        <ele>171</ele>
        <time>2016-04-12T12:51:44.000Z</time>
      </trkpt>
      <trkpt lat="43.16904" lon="5.79701">
        <ele>171.60000610352</ele>
        <time>2016-04-12T12:51:46.000Z</time>
      </trkpt>
      <trkpt lat="43.16905" lon="5.79718">
        <ele>171.60000610352</ele>
        <time>2016-04-12T12:51:49.000Z</time>
      </trkpt>
      <trkpt lat="43.16908" lon="5.79735">
        <ele>172</ele>
        <time>2016-04-12T12:51:52.000Z</time>
      </trkpt>
      <trkpt lat="43.16913" lon="5.79757">
        <ele>172.39999389648</ele>
        <time>2016-04-12T12:51:56.000Z</time>
      </trkpt>
      <trkpt lat="43.16917" lon="5.79783">
        <ele>172.80000305176</ele>
        <time>2016-04-12T12:52:01.000Z</time>
      </trkpt>
      <trkpt lat="43.16918" lon="5.79793">
        <ele>173</ele>
        <time>2016-04-12T12:52:03.000Z</time>
      </trkpt>
      <trkpt lat="43.16925" lon="5.79828">
        <ele>173.80000305176</ele>
        <time>2016-04-12T12:52:09.000Z</time>
      </trkpt>
      <trkpt lat="43.1693" lon="5.79845">
        <ele>174.60000610352</ele>
        <time>2016-04-12T12:52:12.000Z</time>
      </trkpt>
      <trkpt lat="43.16937" lon="5.79872">
        <ele>176.19999694824</ele>
        <time>2016-04-12T12:52:17.000Z</time>
      </trkpt>
      <trkpt lat="43.16939" lon="5.79889">
        <ele>176.19999694824</ele>
        <time>2016-04-12T12:52:20.000Z</time>
      </trkpt>
      <trkpt lat="43.16938" lon="5.79912">
        <ele>173.80000305176</ele>
        <time>2016-04-12T12:52:24.000Z</time>
      </trkpt>
      <trkpt lat="43.16936" lon="5.79928">
        <ele>172.60000610352</ele>
        <time>2016-04-12T12:52:27.000Z</time>
      </trkpt>
      <trkpt lat="43.1694" lon="5.79945">
        <ele>172.39999389648</ele>
        <time>2016-04-12T12:52:30.000Z</time>
      </trkpt>
      <trkpt lat="43.16944" lon="5.79956">
        <ele>172.60000610352</ele>
        <time>2016-04-12T12:52:32.000Z</time>
      </trkpt>
      <trkpt lat="43.16953" lon="5.7997">
        <ele>173.80000305176</ele>
        <time>2016-04-12T12:52:35.000Z</time>
      </trkpt>
      <trkpt lat="43.16955" lon="5.79974">
        <ele>174.39999389648</ele>
        <time>2016-04-12T12:52:36.000Z</time>
      </trkpt>
      <trkpt lat="43.16959" lon="5.79978">
        <ele>175.39999389648</ele>
        <time>2016-04-12T12:52:37.000Z</time>
      </trkpt>
      <trkpt lat="43.16974" lon="5.79989">
        <ele>179.39999389648</ele>
        <time>2016-04-12T12:52:41.000Z</time>
      </trkpt>
      <trkpt lat="43.16981" lon="5.79993">
        <ele>181.19999694824</ele>
        <time>2016-04-12T12:52:43.000Z</time>
      </trkpt>
      <trkpt lat="43.17" lon="5.80006">
        <ele>186</ele>
        <time>2016-04-12T12:52:48.000Z</time>
      </trkpt>
      <trkpt lat="43.17019" lon="5.80016">
        <ele>191.80000305176</ele>
        <time>2016-04-12T12:52:53.000Z</time>
      </trkpt>
      <trkpt lat="43.17023" lon="5.80018">
        <ele>193</ele>
        <time>2016-04-12T12:52:54.000Z</time>
      </trkpt>
      <trkpt lat="43.17033" lon="5.80033">
        <ele>196.80000305176</ele>
        <time>2016-04-12T12:52:58.000Z</time>
      </trkpt>
      <trkpt lat="43.17025" lon="5.80045">
        <ele>194.80000305176</ele>
        <time>2016-04-12T12:53:01.000Z</time>
      </trkpt>
      <trkpt lat="43.17016" lon="5.8005">
        <ele>192.19999694824</ele>
        <time>2016-04-12T12:53:03.000Z</time>
      </trkpt>
      <trkpt lat="43.17007" lon="5.80055">
        <ele>190.19999694824</ele>
        <time>2016-04-12T12:53:05.000Z</time>
      </trkpt>
      <trkpt lat="43.16999" lon="5.80059">
        <ele>189.60000610352</ele>
        <time>2016-04-12T12:53:07.000Z</time>
      </trkpt>
      <trkpt lat="43.16992" lon="5.80065">
        <ele>189.60000610352</ele>
        <time>2016-04-12T12:53:09.000Z</time>
      </trkpt>
      <trkpt lat="43.16975" lon="5.80083">
        <ele>190</ele>
        <time>2016-04-12T12:53:14.000Z</time>
      </trkpt>
      <trkpt lat="43.16972" lon="5.80088">
        <ele>190.39999389648</ele>
        <time>2016-04-12T12:53:15.000Z</time>
      </trkpt>
      <trkpt lat="43.16951" lon="5.80115">
        <ele>187.60000610352</ele>
        <time>2016-04-12T12:53:22.000Z</time>
      </trkpt>
      <trkpt lat="43.16947" lon="5.80124">
        <ele>187.19999694824</ele>
        <time>2016-04-12T12:53:24.000Z</time>
      </trkpt>
      <trkpt lat="43.16947" lon="5.80139">
        <ele>188.39999389648</ele>
        <time>2016-04-12T12:53:27.000Z</time>
      </trkpt>
      <trkpt lat="43.16948" lon="5.8015">
        <ele>190.60000610352</ele>
        <time>2016-04-12T12:53:29.000Z</time>
      </trkpt>
      <trkpt lat="43.16949" lon="5.80156">
        <ele>191.80000305176</ele>
        <time>2016-04-12T12:53:30.000Z</time>
      </trkpt>
      <trkpt lat="43.16951" lon="5.80177">
        <ele>195.80000305176</ele>
        <time>2016-04-12T12:53:34.000Z</time>
      </trkpt>
      <trkpt lat="43.16948" lon="5.80188">
        <ele>196.60000610352</ele>
        <time>2016-04-12T12:53:36.000Z</time>
      </trkpt>
      <trkpt lat="43.16945" lon="5.80199">
        <ele>197.19999694824</ele>
        <time>2016-04-12T12:53:38.000Z</time>
      </trkpt>
      <trkpt lat="43.16934" lon="5.80232">
        <ele>198.39999389648</ele>
        <time>2016-04-12T12:53:44.000Z</time>
      </trkpt>
      <trkpt lat="43.16926" lon="5.80252">
        <ele>198.80000305176</ele>
        <time>2016-04-12T12:53:48.000Z</time>
      </trkpt>
      <trkpt lat="43.16924" lon="5.80258">
        <ele>199.39999389648</ele>
        <time>2016-04-12T12:53:49.000Z</time>
      </trkpt>
      <trkpt lat="43.16921" lon="5.80268">
        <ele>200.39999389648</ele>
        <time>2016-04-12T12:53:51.000Z</time>
      </trkpt>
      <trkpt lat="43.16917" lon="5.80278">
        <ele>201.19999694824</ele>
        <time>2016-04-12T12:53:53.000Z</time>
      </trkpt>
      <trkpt lat="43.16909" lon="5.80298">
        <ele>202.19999694824</ele>
        <time>2016-04-12T12:53:57.000Z</time>
      </trkpt>
      <trkpt lat="43.16901" lon="5.80311">
        <ele>201.60000610352</ele>
        <time>2016-04-12T12:54:00.000Z</time>
      </trkpt>
      <trkpt lat="43.16897" lon="5.80324">
        <ele>201</ele>
        <time>2016-04-12T12:54:03.000Z</time>
      </trkpt>
      <trkpt lat="43.16894" lon="5.80333">
        <ele>200.60000610352</ele>
        <time>2016-04-12T12:54:05.000Z</time>
      </trkpt>
      <trkpt lat="43.16892" lon="5.80341">
        <ele>200.39999389648</ele>
        <time>2016-04-12T12:54:07.000Z</time>
      </trkpt>
      <trkpt lat="43.16897" lon="5.80352">
        <ele>201.39999389648</ele>
        <time>2016-04-12T12:54:10.000Z</time>
      </trkpt>
      <trkpt lat="43.16905" lon="5.80352">
        <ele>202.60000610352</ele>
        <time>2016-04-12T12:54:12.000Z</time>
      </trkpt>
      <trkpt lat="43.16908" lon="5.8035">
        <ele>203.19999694824</ele>
        <time>2016-04-12T12:54:13.000Z</time>
      </trkpt>
      <trkpt lat="43.16921" lon="5.80354">
        <ele>205.39999389648</ele>
        <time>2016-04-12T12:54:17.000Z</time>
      </trkpt>
      <trkpt lat="43.16923" lon="5.80359">
        <ele>205.80000305176</ele>
        <time>2016-04-12T12:54:18.000Z</time>
      </trkpt>
      <trkpt lat="43.16928" lon="5.80371">
        <ele>206.80000305176</ele>
        <time>2016-04-12T12:54:20.000Z</time>
      </trkpt>
      <trkpt lat="43.1693" lon="5.80377">
        <ele>207.60000610352</ele>
        <time>2016-04-12T12:54:21.000Z</time>
      </trkpt>
      <trkpt lat="43.16932" lon="5.80383">
        <ele>208.39999389648</ele>
        <time>2016-04-12T12:54:22.000Z</time>
      </trkpt>
      <trkpt lat="43.16936" lon="5.80395">
        <ele>209.80000305176</ele>
        <time>2016-04-12T12:54:24.000Z</time>
      </trkpt>
      <trkpt lat="43.1694" lon="5.80406">
        <ele>210.80000305176</ele>
        <time>2016-04-12T12:54:26.000Z</time>
      </trkpt>
      <trkpt lat="43.16942" lon="5.80421">
        <ele>211.19999694824</ele>
        <time>2016-04-12T12:54:29.000Z</time>
      </trkpt>
      <trkpt lat="43.16943" lon="5.80438">
        <ele>211</ele>
        <time>2016-04-12T12:54:32.000Z</time>
      </trkpt>
      <trkpt lat="43.16944" lon="5.80456">
        <ele>210.60000610352</ele>
        <time>2016-04-12T12:54:35.000Z</time>
      </trkpt>
      <trkpt lat="43.16947" lon="5.80484">
        <ele>210</ele>
        <time>2016-04-12T12:54:40.000Z</time>
      </trkpt>
      <trkpt lat="43.16949" lon="5.80495">
        <ele>210.39999389648</ele>
        <time>2016-04-12T12:54:42.000Z</time>
      </trkpt>
      <trkpt lat="43.16951" lon="5.805">
        <ele>210.80000305176</ele>
        <time>2016-04-12T12:54:43.000Z</time>
      </trkpt>
      <trkpt lat="43.16959" lon="5.80514">
        <ele>213</ele>
        <time>2016-04-12T12:54:46.000Z</time>
      </trkpt>
      <trkpt lat="43.16962" lon="5.80518">
        <ele>213.80000305176</ele>
        <time>2016-04-12T12:54:47.000Z</time>
      </trkpt>
      <trkpt lat="43.16968" lon="5.80525">
        <ele>215.39999389648</ele>
        <time>2016-04-12T12:54:49.000Z</time>
      </trkpt>
      <trkpt lat="43.16976" lon="5.80536">
        <ele>218</ele>
        <time>2016-04-12T12:54:52.000Z</time>
      </trkpt>
      <trkpt lat="43.16984" lon="5.80546">
        <ele>220.19999694824</ele>
        <time>2016-04-12T12:54:55.000Z</time>
      </trkpt>
      <trkpt lat="43.16989" lon="5.80553">
        <ele>221.60000610352</ele>
        <time>2016-04-12T12:54:57.000Z</time>
      </trkpt>
      <trkpt lat="43.16993" lon="5.8056">
        <ele>222.60000610352</ele>
        <time>2016-04-12T12:54:59.000Z</time>
      </trkpt>
      <trkpt lat="43.16997" lon="5.80567">
        <ele>223.19999694824</ele>
        <time>2016-04-12T12:55:01.000Z</time>
      </trkpt>
      <trkpt lat="43.16998" lon="5.80571">
        <ele>223.39999389648</ele>
        <time>2016-04-12T12:55:02.000Z</time>
      </trkpt>
      <trkpt lat="43.16999" lon="5.80574">
        <ele>223.60000610352</ele>
        <time>2016-04-12T12:55:03.000Z</time>
      </trkpt>
      <trkpt lat="43.17002" lon="5.8058">
        <ele>224.19999694824</ele>
        <time>2016-04-12T12:55:05.000Z</time>
      </trkpt>
      <trkpt lat="43.17009" lon="5.80597">
        <ele>225.39999389648</ele>
        <time>2016-04-12T12:55:09.000Z</time>
      </trkpt>
      <trkpt lat="43.17024" lon="5.80623">
        <ele>227</ele>
        <time>2016-04-12T12:55:15.000Z</time>
      </trkpt>
      <trkpt lat="43.17042" lon="5.80649">
        <ele>230.39999389648</ele>
        <time>2016-04-12T12:55:22.000Z</time>
      </trkpt>
      <trkpt lat="43.17046" lon="5.80656">
        <ele>231.60000610352</ele>
        <time>2016-04-12T12:55:24.000Z</time>
      </trkpt>
      <trkpt lat="43.1705" lon="5.80666">
        <ele>232.80000305176</ele>
        <time>2016-04-12T12:55:26.000Z</time>
      </trkpt>
      <trkpt lat="43.1705" lon="5.80672">
        <ele>233</ele>
        <time>2016-04-12T12:55:27.000Z</time>
      </trkpt>
      <trkpt lat="43.17043" lon="5.80688">
        <ele>234.39999389648</ele>
        <time>2016-04-12T12:55:30.000Z</time>
      </trkpt>
      <trkpt lat="43.17027" lon="5.80701">
        <ele>235.19999694824</ele>
        <time>2016-04-12T12:55:34.000Z</time>
      </trkpt>
      <trkpt lat="43.17023" lon="5.80704">
        <ele>235.19999694824</ele>
        <time>2016-04-12T12:55:35.000Z</time>
      </trkpt>
      <trkpt lat="43.16998" lon="5.80715">
        <ele>233</ele>
        <time>2016-04-12T12:55:41.000Z</time>
      </trkpt>
      <trkpt lat="43.16985" lon="5.80718">
        <ele>230.60000610352</ele>
        <time>2016-04-12T12:55:44.000Z</time>
      </trkpt>
      <trkpt lat="43.16973" lon="5.80718">
        <ele>228</ele>
        <time>2016-04-12T12:55:47.000Z</time>
      </trkpt>
      <trkpt lat="43.16946" lon="5.80724">
        <ele>223.39999389648</ele>
        <time>2016-04-12T12:55:53.000Z</time>
      </trkpt>
      <trkpt lat="43.16942" lon="5.80728">
        <ele>223.19999694824</ele>
        <time>2016-04-12T12:55:54.000Z</time>
      </trkpt>
      <trkpt lat="43.16935" lon="5.80745">
        <ele>224.60000610352</ele>
        <time>2016-04-12T12:55:57.000Z</time>
      </trkpt>
      <trkpt lat="43.16934" lon="5.80752">
        <ele>225.39999389648</ele>
        <time>2016-04-12T12:55:58.000Z</time>
      </trkpt>
      <trkpt lat="43.16926" lon="5.80798">
        <ele>230.60000610352</ele>
        <time>2016-04-12T12:56:05.000Z</time>
      </trkpt>
      <trkpt lat="43.16915" lon="5.80826">
        <ele>230.80000305176</ele>
        <time>2016-04-12T12:56:11.000Z</time>
      </trkpt>
      <trkpt lat="43.16898" lon="5.80856">
        <ele>229.80000305176</ele>
        <time>2016-04-12T12:56:17.000Z</time>
      </trkpt>
      <trkpt lat="43.16878" lon="5.80885">
        <ele>226.39999389648</ele>
        <time>2016-04-12T12:56:22.000Z</time>
      </trkpt>
      <trkpt lat="43.16861" lon="5.80889">
        <ele>221.39999389648</ele>
        <time>2016-04-12T12:56:25.000Z</time>
      </trkpt>
      <trkpt lat="43.16855" lon="5.80888">
        <ele>219.39999389648</ele>
        <time>2016-04-12T12:56:26.000Z</time>
      </trkpt>
      <trkpt lat="43.16842" lon="5.80889">
        <ele>215.80000305176</ele>
        <time>2016-04-12T12:56:28.000Z</time>
      </trkpt>
      <trkpt lat="43.1683" lon="5.80893">
        <ele>214.19999694824</ele>
        <time>2016-04-12T12:56:30.000Z</time>
      </trkpt>
      <trkpt lat="43.16824" lon="5.80897">
        <ele>213.80000305176</ele>
        <time>2016-04-12T12:56:31.000Z</time>
      </trkpt>
      <trkpt lat="43.16819" lon="5.80903">
        <ele>213.80000305176</ele>
        <time>2016-04-12T12:56:32.000Z</time>
      </trkpt>
      <trkpt lat="43.16809" lon="5.80916">
        <ele>214</ele>
        <time>2016-04-12T12:56:34.000Z</time>
      </trkpt>
      <trkpt lat="43.16803" lon="5.80925">
        <ele>214.80000305176</ele>
        <time>2016-04-12T12:56:35.000Z</time>
      </trkpt>
      <trkpt lat="43.16797" lon="5.80934">
        <ele>214.60000610352</ele>
        <time>2016-04-12T12:56:36.000Z</time>
      </trkpt>
      <trkpt lat="43.16779" lon="5.80963">
        <ele>213.39999389648</ele>
        <time>2016-04-12T12:56:40.000Z</time>
      </trkpt>
      <trkpt lat="43.16757" lon="5.81">
        <ele>214.39999389648</ele>
        <time>2016-04-12T12:56:47.000Z</time>
      </trkpt>
      <trkpt lat="43.16723" lon="5.81053">
        <ele>219.60000610352</ele>
        <time>2016-04-12T12:56:58.000Z</time>
      </trkpt>
      <trkpt lat="43.16717" lon="5.81063">
        <ele>220.39999389648</ele>
        <time>2016-04-12T12:57:00.000Z</time>
      </trkpt>
      <trkpt lat="43.167" lon="5.81098">
        <ele>222.60000610352</ele>
        <time>2016-04-12T12:57:07.000Z</time>
      </trkpt>
      <trkpt lat="43.16691" lon="5.81115">
        <ele>222.39999389648</ele>
        <time>2016-04-12T12:57:11.000Z</time>
      </trkpt>
      <trkpt lat="43.16683" lon="5.81126">
        <ele>222</ele>
        <time>2016-04-12T12:57:14.000Z</time>
      </trkpt>
      <trkpt lat="43.1668" lon="5.8113">
        <ele>221.80000305176</ele>
        <time>2016-04-12T12:57:15.000Z</time>
      </trkpt>
      <trkpt lat="43.16673" lon="5.81135">
        <ele>221.39999389648</ele>
        <time>2016-04-12T12:57:17.000Z</time>
      </trkpt>
      <trkpt lat="43.16661" lon="5.81146">
        <ele>221.39999389648</ele>
        <time>2016-04-12T12:57:21.000Z</time>
      </trkpt>
      <trkpt lat="43.16658" lon="5.81149">
        <ele>221.60000610352</ele>
        <time>2016-04-12T12:57:22.000Z</time>
      </trkpt>
      <trkpt lat="43.16651" lon="5.81159">
        <ele>222</ele>
        <time>2016-04-12T12:57:25.000Z</time>
      </trkpt>
      <trkpt lat="43.16647" lon="5.81171">
        <ele>222.39999389648</ele>
        <time>2016-04-12T12:57:28.000Z</time>
      </trkpt>
      <trkpt lat="43.16645" lon="5.81178">
        <ele>222.80000305176</ele>
        <time>2016-04-12T12:57:30.000Z</time>
      </trkpt>
      <trkpt lat="43.16646" lon="5.81195">
        <ele>224.19999694824</ele>
        <time>2016-04-12T12:57:34.000Z</time>
      </trkpt>
      <trkpt lat="43.16648" lon="5.81208">
        <ele>225.39999389648</ele>
        <time>2016-04-12T12:57:37.000Z</time>
      </trkpt>
      <trkpt lat="43.16651" lon="5.81242">
        <ele>229.39999389648</ele>
        <time>2016-04-12T12:57:44.000Z</time>
      </trkpt>
      <trkpt lat="43.16646" lon="5.81262">
        <ele>231.80000305176</ele>
        <time>2016-04-12T12:57:49.000Z</time>
      </trkpt>
      <trkpt lat="43.16636" lon="5.81285">
        <ele>233.39999389648</ele>
        <time>2016-04-12T12:57:55.000Z</time>
      </trkpt>
      <trkpt lat="43.16632" lon="5.81291">
        <ele>233.80000305176</ele>
        <time>2016-04-12T12:57:57.000Z</time>
      </trkpt>
      <trkpt lat="43.16629" lon="5.81298">
        <ele>234.19999694824</ele>
        <time>2016-04-12T12:57:59.000Z</time>
      </trkpt>
      <trkpt lat="43.16625" lon="5.81307">
        <ele>234.80000305176</ele>
        <time>2016-04-12T12:58:02.000Z</time>
      </trkpt>
      <trkpt lat="43.16623" lon="5.81314">
        <ele>235.39999389648</ele>
        <time>2016-04-12T12:58:04.000Z</time>
      </trkpt>
      <trkpt lat="43.1662" lon="5.81321">
        <ele>235.80000305176</ele>
        <time>2016-04-12T12:58:06.000Z</time>
      </trkpt>
      <trkpt lat="43.16615" lon="5.81335">
        <ele>236.39999389648</ele>
        <time>2016-04-12T12:58:10.000Z</time>
      </trkpt>
      <trkpt lat="43.16613" lon="5.81341">
        <ele>236.60000610352</ele>
        <time>2016-04-12T12:58:12.000Z</time>
      </trkpt>
      <trkpt lat="43.16612" lon="5.81347">
        <ele>236.80000305176</ele>
        <time>2016-04-12T12:58:14.000Z</time>
      </trkpt>
      <trkpt lat="43.16609" lon="5.81356">
        <ele>237</ele>
        <time>2016-04-12T12:58:17.000Z</time>
      </trkpt>
      <trkpt lat="43.16606" lon="5.81365">
        <ele>237.19999694824</ele>
        <time>2016-04-12T12:58:19.000Z</time>
      </trkpt>
      <trkpt lat="43.16605" lon="5.81371">
        <ele>237.39999389648</ele>
        <time>2016-04-12T12:58:20.000Z</time>
      </trkpt>
      <trkpt lat="43.16603" lon="5.81393">
        <ele>237.60000610352</ele>
        <time>2016-04-12T12:58:24.000Z</time>
      </trkpt>
      <trkpt lat="43.16603" lon="5.81404">
        <ele>237</ele>
        <time>2016-04-12T12:58:26.000Z</time>
      </trkpt>
      <trkpt lat="43.16604" lon="5.81415">
        <ele>236.39999389648</ele>
        <time>2016-04-12T12:58:28.000Z</time>
      </trkpt>
      <trkpt lat="43.16607" lon="5.81444">
        <ele>235.19999694824</ele>
        <time>2016-04-12T12:58:33.000Z</time>
      </trkpt>
      <trkpt lat="43.16616" lon="5.81468">
        <ele>234.80000305176</ele>
        <time>2016-04-12T12:58:37.000Z</time>
      </trkpt>
      <trkpt lat="43.16619" lon="5.81474">
        <ele>234.60000610352</ele>
        <time>2016-04-12T12:58:38.000Z</time>
      </trkpt>
      <trkpt lat="43.16634" lon="5.81511">
        <ele>231.19999694824</ele>
        <time>2016-04-12T12:58:44.000Z</time>
      </trkpt>
      <trkpt lat="43.16639" lon="5.81522">
        <ele>230.60000610352</ele>
        <time>2016-04-12T12:58:46.000Z</time>
      </trkpt>
      <trkpt lat="43.16649" lon="5.81548">
        <ele>229.39999389648</ele>
        <time>2016-04-12T12:58:50.000Z</time>
      </trkpt>
      <trkpt lat="43.16654" lon="5.81567">
        <ele>228.19999694824</ele>
        <time>2016-04-12T12:58:53.000Z</time>
      </trkpt>
      <trkpt lat="43.16658" lon="5.8158">
        <ele>227.19999694824</ele>
        <time>2016-04-12T12:58:55.000Z</time>
      </trkpt>
      <trkpt lat="43.16673" lon="5.81626">
        <ele>224</ele>
        <time>2016-04-12T12:59:02.000Z</time>
      </trkpt>
      <trkpt lat="43.1668" lon="5.81645">
        <ele>222.80000305176</ele>
        <time>2016-04-12T12:59:05.000Z</time>
      </trkpt>
      <trkpt lat="43.16683" lon="5.81651">
        <ele>222.80000305176</ele>
        <time>2016-04-12T12:59:06.000Z</time>
      </trkpt>
      <trkpt lat="43.16701" lon="5.81696">
        <ele>222.19999694824</ele>
        <time>2016-04-12T12:59:13.000Z</time>
      </trkpt>
      <trkpt lat="43.16715" lon="5.8173">
        <ele>221.39999389648</ele>
        <time>2016-04-12T12:59:18.000Z</time>
      </trkpt>
      <trkpt lat="43.16722" lon="5.81743">
        <ele>221.19999694824</ele>
        <time>2016-04-12T12:59:20.000Z</time>
      </trkpt>
      <trkpt lat="43.16744" lon="5.81781">
        <ele>220.80000305176</ele>
        <time>2016-04-12T12:59:26.000Z</time>
      </trkpt>
      <trkpt lat="43.16747" lon="5.81787">
        <ele>220.60000610352</ele>
        <time>2016-04-12T12:59:27.000Z</time>
      </trkpt>
      <trkpt lat="43.16753" lon="5.81797">
        <ele>220.60000610352</ele>
        <time>2016-04-12T12:59:29.000Z</time>
      </trkpt>
      <trkpt lat="43.16772" lon="5.81829">
        <ele>220.60000610352</ele>
        <time>2016-04-12T12:59:35.000Z</time>
      </trkpt>
      <trkpt lat="43.16799" lon="5.8187">
        <ele>221</ele>
        <time>2016-04-12T12:59:42.000Z</time>
      </trkpt>
      <trkpt lat="43.16806" lon="5.81882">
        <ele>221</ele>
        <time>2016-04-12T12:59:44.000Z</time>
      </trkpt>
      <trkpt lat="43.1682" lon="5.81905">
        <ele>221.39999389648</ele>
        <time>2016-04-12T12:59:48.000Z</time>
      </trkpt>
      <trkpt lat="43.16832" lon="5.81927">
        <ele>221.39999389648</ele>
        <time>2016-04-12T12:59:52.000Z</time>
      </trkpt>
      <trkpt lat="43.16848" lon="5.81965">
        <ele>221</ele>
        <time>2016-04-12T12:59:59.000Z</time>
      </trkpt>
      <trkpt lat="43.16854" lon="5.81982">
        <ele>220.60000610352</ele>
        <time>2016-04-12T13:00:04.000Z</time>
      </trkpt>
      <trkpt lat="43.16856" lon="5.81985">
        <ele>220.60000610352</ele>
        <time>2016-04-12T13:00:37.000Z</time>
      </trkpt>
      <trkpt lat="43.16858" lon="5.82001">
        <ele>219.80000305176</ele>
        <time>2016-04-12T13:00:41.000Z</time>
      </trkpt>
      <trkpt lat="43.16858" lon="5.82016">
        <ele>218.60000610352</ele>
        <time>2016-04-12T13:00:43.000Z</time>
      </trkpt>
      <trkpt lat="43.16855" lon="5.82033">
        <ele>217</ele>
        <time>2016-04-12T13:00:45.000Z</time>
      </trkpt>
      <trkpt lat="43.1684" lon="5.82056">
        <ele>213.39999389648</ele>
        <time>2016-04-12T13:00:48.000Z</time>
      </trkpt>
      <trkpt lat="43.16834" lon="5.82064">
        <ele>211.60000610352</ele>
        <time>2016-04-12T13:00:49.000Z</time>
      </trkpt>
      <trkpt lat="43.16828" lon="5.82072">
        <ele>209.80000305176</ele>
        <time>2016-04-12T13:00:50.000Z</time>
      </trkpt>
      <trkpt lat="43.16816" lon="5.82088">
        <ele>206.39999389648</ele>
        <time>2016-04-12T13:00:52.000Z</time>
      </trkpt>
      <trkpt lat="43.16803" lon="5.82105">
        <ele>203</ele>
        <time>2016-04-12T13:00:54.000Z</time>
      </trkpt>
      <trkpt lat="43.16796" lon="5.82113">
        <ele>201.80000305176</ele>
        <time>2016-04-12T13:00:55.000Z</time>
      </trkpt>
      <trkpt lat="43.1679" lon="5.82121">
        <ele>200.60000610352</ele>
        <time>2016-04-12T13:00:56.000Z</time>
      </trkpt>
      <trkpt lat="43.16784" lon="5.8213">
        <ele>199.60000610352</ele>
        <time>2016-04-12T13:00:57.000Z</time>
      </trkpt>
      <trkpt lat="43.16779" lon="5.82139">
        <ele>198.39999389648</ele>
        <time>2016-04-12T13:00:58.000Z</time>
      </trkpt>
      <trkpt lat="43.16775" lon="5.82149">
        <ele>197.39999389648</ele>
        <time>2016-04-12T13:00:59.000Z</time>
      </trkpt>
      <trkpt lat="43.16773" lon="5.82161">
        <ele>196.39999389648</ele>
        <time>2016-04-12T13:01:00.000Z</time>
      </trkpt>
      <trkpt lat="43.16772" lon="5.82174">
        <ele>195.60000610352</ele>
        <time>2016-04-12T13:01:01.000Z</time>
      </trkpt>
      <trkpt lat="43.16772" lon="5.82188">
        <ele>194.80000305176</ele>
        <time>2016-04-12T13:01:02.000Z</time>
      </trkpt>
      <trkpt lat="43.16771" lon="5.82201">
        <ele>194</ele>
        <time>2016-04-12T13:01:03.000Z</time>
      </trkpt>
      <trkpt lat="43.1677" lon="5.82213">
        <ele>193.19999694824</ele>
        <time>2016-04-12T13:01:04.000Z</time>
      </trkpt>
      <trkpt lat="43.16767" lon="5.82224">
        <ele>192.19999694824</ele>
        <time>2016-04-12T13:01:05.000Z</time>
      </trkpt>
      <trkpt lat="43.16764" lon="5.82234">
        <ele>191.39999389648</ele>
        <time>2016-04-12T13:01:06.000Z</time>
      </trkpt>
      <trkpt lat="43.16759" lon="5.82244">
        <ele>190.80000305176</ele>
        <time>2016-04-12T13:01:07.000Z</time>
      </trkpt>
      <trkpt lat="43.16754" lon="5.82253">
        <ele>189.80000305176</ele>
        <time>2016-04-12T13:01:08.000Z</time>
      </trkpt>
      <trkpt lat="43.16743" lon="5.8227">
        <ele>188</ele>
        <time>2016-04-12T13:01:10.000Z</time>
      </trkpt>
      <trkpt lat="43.16738" lon="5.82279">
        <ele>187</ele>
        <time>2016-04-12T13:01:11.000Z</time>
      </trkpt>
      <trkpt lat="43.16735" lon="5.8229">
        <ele>186.60000610352</ele>
        <time>2016-04-12T13:01:12.000Z</time>
      </trkpt>
      <trkpt lat="43.16727" lon="5.82313">
        <ele>185.39999389648</ele>
        <time>2016-04-12T13:01:14.000Z</time>
      </trkpt>
      <trkpt lat="43.16723" lon="5.82325">
        <ele>184.19999694824</ele>
        <time>2016-04-12T13:01:15.000Z</time>
      </trkpt>
      <trkpt lat="43.16719" lon="5.82336">
        <ele>183</ele>
        <time>2016-04-12T13:01:16.000Z</time>
      </trkpt>
      <trkpt lat="43.16709" lon="5.82358">
        <ele>181.80000305176</ele>
        <time>2016-04-12T13:01:18.000Z</time>
      </trkpt>
      <trkpt lat="43.167" lon="5.82378">
        <ele>181.19999694824</ele>
        <time>2016-04-12T13:01:20.000Z</time>
      </trkpt>
      <trkpt lat="43.16696" lon="5.82386">
        <ele>181</ele>
        <time>2016-04-12T13:01:21.000Z</time>
      </trkpt>
      <trkpt lat="43.16694" lon="5.82394">
        <ele>180.60000610352</ele>
        <time>2016-04-12T13:01:22.000Z</time>
      </trkpt>
      <trkpt lat="43.16692" lon="5.82401">
        <ele>180</ele>
        <time>2016-04-12T13:01:23.000Z</time>
      </trkpt>
      <trkpt lat="43.16693" lon="5.82409">
        <ele>179.60000610352</ele>
        <time>2016-04-12T13:01:24.000Z</time>
      </trkpt>
      <trkpt lat="43.16699" lon="5.82421">
        <ele>179</ele>
        <time>2016-04-12T13:01:26.000Z</time>
      </trkpt>
      <trkpt lat="43.16702" lon="5.82427">
        <ele>178.60000610352</ele>
        <time>2016-04-12T13:01:27.000Z</time>
      </trkpt>
      <trkpt lat="43.16705" lon="5.82432">
        <ele>178.19999694824</ele>
        <time>2016-04-12T13:01:28.000Z</time>
      </trkpt>
      <trkpt lat="43.16711" lon="5.82444">
        <ele>177.60000610352</ele>
        <time>2016-04-12T13:01:31.000Z</time>
      </trkpt>
      <trkpt lat="43.16713" lon="5.82448">
        <ele>177.39999389648</ele>
        <time>2016-04-12T13:01:32.000Z</time>
      </trkpt>
      <trkpt lat="43.16716" lon="5.82454">
        <ele>177</ele>
        <time>2016-04-12T13:01:33.000Z</time>
      </trkpt>
      <trkpt lat="43.16721" lon="5.82467">
        <ele>176.19999694824</ele>
        <time>2016-04-12T13:01:35.000Z</time>
      </trkpt>
      <trkpt lat="43.16724" lon="5.82475">
        <ele>175.80000305176</ele>
        <time>2016-04-12T13:01:36.000Z</time>
      </trkpt>
      <trkpt lat="43.16732" lon="5.82499">
        <ele>175.39999389648</ele>
        <time>2016-04-12T13:01:39.000Z</time>
      </trkpt>
      <trkpt lat="43.16748" lon="5.82531">
        <ele>174.60000610352</ele>
        <time>2016-04-12T13:01:43.000Z</time>
      </trkpt>
      <trkpt lat="43.16765" lon="5.82563">
        <ele>173.39999389648</ele>
        <time>2016-04-12T13:01:47.000Z</time>
      </trkpt>
      <trkpt lat="43.1678" lon="5.82598">
        <ele>171.19999694824</ele>
        <time>2016-04-12T13:01:51.000Z</time>
      </trkpt>
      <trkpt lat="43.16786" lon="5.8262">
        <ele>170.19999694824</ele>
        <time>2016-04-12T13:01:53.000Z</time>
      </trkpt>
      <trkpt lat="43.16789" lon="5.82632">
        <ele>169.80000305176</ele>
        <time>2016-04-12T13:01:54.000Z</time>
      </trkpt>
      <trkpt lat="43.16793" lon="5.82644">
        <ele>169.19999694824</ele>
        <time>2016-04-12T13:01:55.000Z</time>
      </trkpt>
      <trkpt lat="43.16797" lon="5.82656">
        <ele>168.39999389648</ele>
        <time>2016-04-12T13:01:56.000Z</time>
      </trkpt>
      <trkpt lat="43.16805" lon="5.82679">
        <ele>167.39999389648</ele>
        <time>2016-04-12T13:01:58.000Z</time>
      </trkpt>
      <trkpt lat="43.16812" lon="5.82702">
        <ele>164.80000305176</ele>
        <time>2016-04-12T13:02:00.000Z</time>
      </trkpt>
      <trkpt lat="43.16822" lon="5.82723">
        <ele>162.19999694824</ele>
        <time>2016-04-12T13:02:02.000Z</time>
      </trkpt>
      <trkpt lat="43.16827" lon="5.82744">
        <ele>158</ele>
        <time>2016-04-12T13:02:04.000Z</time>
      </trkpt>
      <trkpt lat="43.16827" lon="5.82755">
        <ele>155.80000305176</ele>
        <time>2016-04-12T13:02:05.000Z</time>
      </trkpt>
      <trkpt lat="43.16825" lon="5.82765">
        <ele>154</ele>
        <time>2016-04-12T13:02:06.000Z</time>
      </trkpt>
      <trkpt lat="43.16823" lon="5.82784">
        <ele>150.19999694824</ele>
        <time>2016-04-12T13:02:08.000Z</time>
      </trkpt>
      <trkpt lat="43.16823" lon="5.82793">
        <ele>148</ele>
        <time>2016-04-12T13:02:09.000Z</time>
      </trkpt>
      <trkpt lat="43.16824" lon="5.82808">
        <ele>144.60000610352</ele>
        <time>2016-04-12T13:02:11.000Z</time>
      </trkpt>
      <trkpt lat="43.16833" lon="5.82823">
        <ele>143.80000305176</ele>
        <time>2016-04-12T13:02:13.000Z</time>
      </trkpt>
      <trkpt lat="43.16849" lon="5.82829">
        <ele>144</ele>
        <time>2016-04-12T13:02:15.000Z</time>
      </trkpt>
      <trkpt lat="43.16865" lon="5.82832">
        <ele>144.19999694824</ele>
        <time>2016-04-12T13:02:17.000Z</time>
      </trkpt>
      <trkpt lat="43.1688" lon="5.82831">
        <ele>144.60000610352</ele>
        <time>2016-04-12T13:02:19.000Z</time>
      </trkpt>
      <trkpt lat="43.16886" lon="5.82827">
        <ele>145</ele>
        <time>2016-04-12T13:02:20.000Z</time>
      </trkpt>
      <trkpt lat="43.16891" lon="5.82823">
        <ele>145.39999389648</ele>
        <time>2016-04-12T13:02:21.000Z</time>
      </trkpt>
      <trkpt lat="43.16895" lon="5.82819">
        <ele>145.60000610352</ele>
        <time>2016-04-12T13:02:22.000Z</time>
      </trkpt>
      <trkpt lat="43.16899" lon="5.82818">
        <ele>145.80000305176</ele>
        <time>2016-04-12T13:02:23.000Z</time>
      </trkpt>
      <trkpt lat="43.16906" lon="5.82822">
        <ele>145.60000610352</ele>
        <time>2016-04-12T13:02:25.000Z</time>
      </trkpt>
      <trkpt lat="43.16907" lon="5.82833">
        <ele>144.80000305176</ele>
        <time>2016-04-12T13:02:27.000Z</time>
      </trkpt>
      <trkpt lat="43.16907" lon="5.8284">
        <ele>144.19999694824</ele>
        <time>2016-04-12T13:02:28.000Z</time>
      </trkpt>
      <trkpt lat="43.16905" lon="5.82847">
        <ele>143.80000305176</ele>
        <time>2016-04-12T13:02:29.000Z</time>
      </trkpt>
      <trkpt lat="43.16903" lon="5.82853">
        <ele>143.19999694824</ele>
        <time>2016-04-12T13:02:30.000Z</time>
      </trkpt>
      <trkpt lat="43.16901" lon="5.82859">
        <ele>142.80000305176</ele>
        <time>2016-04-12T13:02:31.000Z</time>
      </trkpt>
      <trkpt lat="43.16899" lon="5.8287">
        <ele>141.80000305176</ele>
        <time>2016-04-12T13:02:33.000Z</time>
      </trkpt>
      <trkpt lat="43.16894" lon="5.82879">
        <ele>141</ele>
        <time>2016-04-12T13:02:36.000Z</time>
      </trkpt>
      <trkpt lat="43.16894" lon="5.82881">
        <ele>140.80000305176</ele>
        <time>2016-04-12T13:02:37.000Z</time>
      </trkpt>
      <trkpt lat="43.16894" lon="5.82882">
        <ele>140.80000305176</ele>
        <time>2016-04-12T13:02:38.000Z</time>
      </trkpt>
      <trkpt lat="43.16897" lon="5.8288">
        <ele>141</ele>
        <time>2016-04-12T13:02:40.000Z</time>
      </trkpt>
      <trkpt lat="43.16897" lon="5.82878">
        <ele>141.19999694824</ele>
        <time>2016-04-12T13:02:41.000Z</time>
      </trkpt>
      <trkpt lat="43.16898" lon="5.8287">
        <ele>141.80000305176</ele>
        <time>2016-04-12T13:02:45.000Z</time>
      </trkpt>
      <trkpt lat="43.16899" lon="5.82865">
        <ele>142.39999389648</ele>
        <time>2016-04-12T13:02:47.000Z</time>
      </trkpt>
      <trkpt lat="43.16905" lon="5.82842">
        <ele>144</ele>
        <time>2016-04-12T13:02:53.000Z</time>
      </trkpt>
      <trkpt lat="43.16907" lon="5.82817">
        <ele>146</ele>
        <time>2016-04-12T13:02:59.000Z</time>
      </trkpt>
      <trkpt lat="43.16906" lon="5.82814">
        <ele>146</ele>
        <time>2016-04-12T13:03:00.000Z</time>
      </trkpt>
      <trkpt lat="43.16906" lon="5.82811">
        <ele>146.39999389648</ele>
        <time>2016-04-12T13:03:02.000Z</time>
      </trkpt>
      <trkpt lat="43.16906" lon="5.82816">
        <ele>146</ele>
        <time>2016-04-12T13:05:00.000Z</time>
      </trkpt>
      <trkpt lat="43.16905" lon="5.8283">
        <ele>145</ele>
        <time>2016-04-12T13:05:03.000Z</time>
      </trkpt>
      <trkpt lat="43.16904" lon="5.82836">
        <ele>144.39999389648</ele>
        <time>2016-04-12T13:05:04.000Z</time>
      </trkpt>
      <trkpt lat="43.16895" lon="5.82876">
        <ele>141.19999694824</ele>
        <time>2016-04-12T13:05:10.000Z</time>
      </trkpt>
      <trkpt lat="43.16894" lon="5.8288">
        <ele>141</ele>
        <time>2016-04-12T13:05:11.000Z</time>
      </trkpt>
      <trkpt lat="43.16894" lon="5.82884">
        <ele>140.60000610352</ele>
        <time>2016-04-12T13:05:13.000Z</time>
      </trkpt>
      <trkpt lat="43.16894" lon="5.82885">
        <ele>140.60000610352</ele>
        <time>2016-04-12T13:05:29.000Z</time>
      </trkpt>
      <trkpt lat="43.16895" lon="5.82887">
        <ele>140.39999389648</ele>
        <time>2016-04-12T13:05:30.000Z</time>
      </trkpt>
      <trkpt lat="43.16897" lon="5.8289">
        <ele>140.19999694824</ele>
        <time>2016-04-12T13:05:31.000Z</time>
      </trkpt>
      <trkpt lat="43.16908" lon="5.82897">
        <ele>140.80000305176</ele>
        <time>2016-04-12T13:05:34.000Z</time>
      </trkpt>
      <trkpt lat="43.16913" lon="5.82899">
        <ele>140.80000305176</ele>
        <time>2016-04-12T13:05:35.000Z</time>
      </trkpt>
      <trkpt lat="43.16949" lon="5.8292">
        <ele>141.80000305176</ele>
        <time>2016-04-12T13:05:42.000Z</time>
      </trkpt>
      <trkpt lat="43.16986" lon="5.8295">
        <ele>142.39999389648</ele>
        <time>2016-04-12T13:05:50.000Z</time>
      </trkpt>
      <trkpt lat="43.1699" lon="5.82953">
        <ele>142.60000610352</ele>
        <time>2016-04-12T13:05:51.000Z</time>
      </trkpt>
      <trkpt lat="43.17022" lon="5.82979">
        <ele>143.19999694824</ele>
        <time>2016-04-12T13:05:58.000Z</time>
      </trkpt>
      <trkpt lat="43.17055" lon="5.83004">
        <ele>144</ele>
        <time>2016-04-12T13:06:05.000Z</time>
      </trkpt>
      <trkpt lat="43.17074" lon="5.83018">
        <ele>144.19999694824</ele>
        <time>2016-04-12T13:06:09.000Z</time>
      </trkpt>
      <trkpt lat="43.17088" lon="5.83027">
        <ele>144.60000610352</ele>
        <time>2016-04-12T13:06:12.000Z</time>
      </trkpt>
      <trkpt lat="43.17098" lon="5.83031">
        <ele>144.80000305176</ele>
        <time>2016-04-12T13:06:14.000Z</time>
      </trkpt>
      <trkpt lat="43.17125" lon="5.83038">
        <ele>145.60000610352</ele>
        <time>2016-04-12T13:06:19.000Z</time>
      </trkpt>
      <trkpt lat="43.17135" lon="5.8304">
        <ele>145.80000305176</ele>
        <time>2016-04-12T13:06:21.000Z</time>
      </trkpt>
      <trkpt lat="43.17151" lon="5.83038">
        <ele>146.19999694824</ele>
        <time>2016-04-12T13:06:24.000Z</time>
      </trkpt>
      <trkpt lat="43.17157" lon="5.83037">
        <ele>146.19999694824</ele>
        <time>2016-04-12T13:06:25.000Z</time>
      </trkpt>
      <trkpt lat="43.17176" lon="5.83031">
        <ele>147.19999694824</ele>
        <time>2016-04-12T13:06:30.000Z</time>
      </trkpt>
      <trkpt lat="43.17182" lon="5.83029">
        <ele>147.39999389648</ele>
        <time>2016-04-12T13:06:59.000Z</time>
      </trkpt>
      <trkpt lat="43.172" lon="5.83021">
        <ele>147.39999389648</ele>
        <time>2016-04-12T13:07:03.000Z</time>
      </trkpt>
      <trkpt lat="43.17208" lon="5.8302">
        <ele>147.39999389648</ele>
        <time>2016-04-12T13:07:05.000Z</time>
      </trkpt>
      <trkpt lat="43.17214" lon="5.83025">
        <ele>147.39999389648</ele>
        <time>2016-04-12T13:07:07.000Z</time>
      </trkpt>
      <trkpt lat="43.17216" lon="5.83041">
        <ele>147.19999694824</ele>
        <time>2016-04-12T13:07:10.000Z</time>
      </trkpt>
      <trkpt lat="43.17216" lon="5.83047">
        <ele>147</ele>
        <time>2016-04-12T13:07:11.000Z</time>
      </trkpt>
      <trkpt lat="43.17217" lon="5.83054">
        <ele>147</ele>
        <time>2016-04-12T13:07:12.000Z</time>
      </trkpt>
      <trkpt lat="43.17221" lon="5.83089">
        <ele>148.19999694824</ele>
        <time>2016-04-12T13:07:18.000Z</time>
      </trkpt>
      <trkpt lat="43.17222" lon="5.83101">
        <ele>148.60000610352</ele>
        <time>2016-04-12T13:07:20.000Z</time>
      </trkpt>
      <trkpt lat="43.17225" lon="5.83122">
        <ele>149.39999389648</ele>
        <time>2016-04-12T13:07:24.000Z</time>
      </trkpt>
      <trkpt lat="43.17227" lon="5.83139">
        <ele>150</ele>
        <time>2016-04-12T13:07:27.000Z</time>
      </trkpt>
      <trkpt lat="43.17227" lon="5.83144">
        <ele>150.39999389648</ele>
        <time>2016-04-12T13:07:28.000Z</time>
      </trkpt>
      <trkpt lat="43.17231" lon="5.83172">
        <ele>152.39999389648</ele>
        <time>2016-04-12T13:07:33.000Z</time>
      </trkpt>
      <trkpt lat="43.17234" lon="5.83188">
        <ele>153.60000610352</ele>
        <time>2016-04-12T13:07:36.000Z</time>
      </trkpt>
      <trkpt lat="43.17234" lon="5.83194">
        <ele>154</ele>
        <time>2016-04-12T13:07:37.000Z</time>
      </trkpt>
      <trkpt lat="43.17231" lon="5.83219">
        <ele>154.80000305176</ele>
        <time>2016-04-12T13:07:42.000Z</time>
      </trkpt>
      <trkpt lat="43.17226" lon="5.83245">
        <ele>155.60000610352</ele>
        <time>2016-04-12T13:07:47.000Z</time>
      </trkpt>
      <trkpt lat="43.17223" lon="5.83261">
        <ele>156</ele>
        <time>2016-04-12T13:07:50.000Z</time>
      </trkpt>
      <trkpt lat="43.17218" lon="5.83283">
        <ele>157.60000610352</ele>
        <time>2016-04-12T13:07:54.000Z</time>
      </trkpt>
      <trkpt lat="43.17216" lon="5.83304">
        <ele>159.39999389648</ele>
        <time>2016-04-12T13:07:58.000Z</time>
      </trkpt>
      <trkpt lat="43.17215" lon="5.83309">
        <ele>159.80000305176</ele>
        <time>2016-04-12T13:07:59.000Z</time>
      </trkpt>
      <trkpt lat="43.17215" lon="5.83326">
        <ele>160.80000305176</ele>
        <time>2016-04-12T13:08:02.000Z</time>
      </trkpt>
      <trkpt lat="43.17216" lon="5.8335">
        <ele>162.19999694824</ele>
        <time>2016-04-12T13:08:06.000Z</time>
      </trkpt>
      <trkpt lat="43.17221" lon="5.83379">
        <ele>163.60000610352</ele>
        <time>2016-04-12T13:08:11.000Z</time>
      </trkpt>
      <trkpt lat="43.17223" lon="5.83391">
        <ele>164.19999694824</ele>
        <time>2016-04-12T13:08:13.000Z</time>
      </trkpt>
      <trkpt lat="43.17226" lon="5.83408">
        <ele>165.60000610352</ele>
        <time>2016-04-12T13:08:16.000Z</time>
      </trkpt>
      <trkpt lat="43.17233" lon="5.83444">
        <ele>168.60000610352</ele>
        <time>2016-04-12T13:08:22.000Z</time>
      </trkpt>
      <trkpt lat="43.17241" lon="5.83473">
        <ele>170.80000305176</ele>
        <time>2016-04-12T13:08:27.000Z</time>
      </trkpt>
      <trkpt lat="43.17249" lon="5.83497">
        <ele>170.19999694824</ele>
        <time>2016-04-12T13:08:31.000Z</time>
      </trkpt>
      <trkpt lat="43.17255" lon="5.83514">
        <ele>170</ele>
        <time>2016-04-12T13:08:34.000Z</time>
      </trkpt>
      <trkpt lat="43.17257" lon="5.8352">
        <ele>169.80000305176</ele>
        <time>2016-04-12T13:08:35.000Z</time>
      </trkpt>
      <trkpt lat="43.17268" lon="5.8355">
        <ele>170</ele>
        <time>2016-04-12T13:08:40.000Z</time>
      </trkpt>
      <trkpt lat="43.17275" lon="5.83587">
        <ele>172.39999389648</ele>
        <time>2016-04-12T13:08:46.000Z</time>
      </trkpt>
      <trkpt lat="43.17276" lon="5.83605">
        <ele>172.60000610352</ele>
        <time>2016-04-12T13:08:49.000Z</time>
      </trkpt>
      <trkpt lat="43.17275" lon="5.83645">
        <ele>172</ele>
        <time>2016-04-12T13:08:55.000Z</time>
      </trkpt>
      <trkpt lat="43.17277" lon="5.83671">
        <ele>174.39999389648</ele>
        <time>2016-04-12T13:08:59.000Z</time>
      </trkpt>
      <trkpt lat="43.17281" lon="5.83683">
        <ele>176.19999694824</ele>
        <time>2016-04-12T13:09:01.000Z</time>
      </trkpt>
      <trkpt lat="43.17286" lon="5.83694">
        <ele>178.19999694824</ele>
        <time>2016-04-12T13:09:03.000Z</time>
      </trkpt>
      <trkpt lat="43.17295" lon="5.83711">
        <ele>180.80000305176</ele>
        <time>2016-04-12T13:09:06.000Z</time>
      </trkpt>
      <trkpt lat="43.17299" lon="5.83722">
        <ele>182.60000610352</ele>
        <time>2016-04-12T13:09:08.000Z</time>
      </trkpt>
      <trkpt lat="43.17304" lon="5.83732">
        <ele>181.80000305176</ele>
        <time>2016-04-12T13:09:10.000Z</time>
      </trkpt>
      <trkpt lat="43.17315" lon="5.83752">
        <ele>180.19999694824</ele>
        <time>2016-04-12T13:09:14.000Z</time>
      </trkpt>
      <trkpt lat="43.17325" lon="5.83773">
        <ele>178.39999389648</ele>
        <time>2016-04-12T13:09:18.000Z</time>
      </trkpt>
      <trkpt lat="43.17336" lon="5.83794">
        <ele>176.80000305176</ele>
        <time>2016-04-12T13:09:22.000Z</time>
      </trkpt>
      <trkpt lat="43.17347" lon="5.83814">
        <ele>176.60000610352</ele>
        <time>2016-04-12T13:09:26.000Z</time>
      </trkpt>
      <trkpt lat="43.17353" lon="5.83823">
        <ele>177.80000305176</ele>
        <time>2016-04-12T13:09:28.000Z</time>
      </trkpt>
      <trkpt lat="43.17359" lon="5.83831">
        <ele>179.19999694824</ele>
        <time>2016-04-12T13:09:30.000Z</time>
      </trkpt>
      <trkpt lat="43.17373" lon="5.8385">
        <ele>182.39999389648</ele>
        <time>2016-04-12T13:09:34.000Z</time>
      </trkpt>
      <trkpt lat="43.17376" lon="5.83855">
        <ele>183</ele>
        <time>2016-04-12T13:09:35.000Z</time>
      </trkpt>
      <trkpt lat="43.17378" lon="5.83861">
        <ele>183.39999389648</ele>
        <time>2016-04-12T13:09:36.000Z</time>
      </trkpt>
      <trkpt lat="43.17382" lon="5.83879">
        <ele>184.39999389648</ele>
        <time>2016-04-12T13:09:39.000Z</time>
      </trkpt>
      <trkpt lat="43.17382" lon="5.83885">
        <ele>184.60000610352</ele>
        <time>2016-04-12T13:09:40.000Z</time>
      </trkpt>
      <trkpt lat="43.17382" lon="5.83892">
        <ele>184.80000305176</ele>
        <time>2016-04-12T13:09:41.000Z</time>
      </trkpt>
      <trkpt lat="43.17384" lon="5.83938">
        <ele>188.60000610352</ele>
        <time>2016-04-12T13:09:48.000Z</time>
      </trkpt>
      <trkpt lat="43.17388" lon="5.83957">
        <ele>193.60000610352</ele>
        <time>2016-04-12T13:09:51.000Z</time>
      </trkpt>
      <trkpt lat="43.17395" lon="5.83975">
        <ele>197.60000610352</ele>
        <time>2016-04-12T13:09:54.000Z</time>
      </trkpt>
      <trkpt lat="43.17406" lon="5.84003">
        <ele>197.39999389648</ele>
        <time>2016-04-12T13:09:59.000Z</time>
      </trkpt>
      <trkpt lat="43.17413" lon="5.84019">
        <ele>197.19999694824</ele>
        <time>2016-04-12T13:10:02.000Z</time>
      </trkpt>
      <trkpt lat="43.17415" lon="5.84024">
        <ele>197.19999694824</ele>
        <time>2016-04-12T13:10:03.000Z</time>
      </trkpt>
      <trkpt lat="43.17419" lon="5.84035">
        <ele>197.19999694824</ele>
        <time>2016-04-12T13:10:05.000Z</time>
      </trkpt>
      <trkpt lat="43.17428" lon="5.84056">
        <ele>197.19999694824</ele>
        <time>2016-04-12T13:10:09.000Z</time>
      </trkpt>
      <trkpt lat="43.17433" lon="5.84066">
        <ele>198.60000610352</ele>
        <time>2016-04-12T13:10:11.000Z</time>
      </trkpt>
      <trkpt lat="43.17439" lon="5.84075">
        <ele>200</ele>
        <time>2016-04-12T13:10:13.000Z</time>
      </trkpt>
      <trkpt lat="43.17453" lon="5.84092">
        <ele>202.80000305176</ele>
        <time>2016-04-12T13:10:17.000Z</time>
      </trkpt>
      <trkpt lat="43.1746" lon="5.84101">
        <ele>204.39999389648</ele>
        <time>2016-04-12T13:10:19.000Z</time>
      </trkpt>
      <trkpt lat="43.17469" lon="5.84114">
        <ele>206.39999389648</ele>
        <time>2016-04-12T13:10:22.000Z</time>
      </trkpt>
      <trkpt lat="43.17478" lon="5.84127">
        <ele>208.60000610352</ele>
        <time>2016-04-12T13:10:25.000Z</time>
      </trkpt>
      <trkpt lat="43.17481" lon="5.84132">
        <ele>209.19999694824</ele>
        <time>2016-04-12T13:10:26.000Z</time>
      </trkpt>
      <trkpt lat="43.17486" lon="5.84141">
        <ele>210.39999389648</ele>
        <time>2016-04-12T13:10:28.000Z</time>
      </trkpt>
      <trkpt lat="43.17494" lon="5.84154">
        <ele>209.80000305176</ele>
        <time>2016-04-12T13:10:31.000Z</time>
      </trkpt>
      <trkpt lat="43.17497" lon="5.84165">
        <ele>209.19999694824</ele>
        <time>2016-04-12T13:10:33.000Z</time>
      </trkpt>
      <trkpt lat="43.17498" lon="5.8417">
        <ele>209</ele>
        <time>2016-04-12T13:10:34.000Z</time>
      </trkpt>
      <trkpt lat="43.175" lon="5.84182">
        <ele>208.19999694824</ele>
        <time>2016-04-12T13:10:36.000Z</time>
      </trkpt>
      <trkpt lat="43.175" lon="5.84188">
        <ele>207.80000305176</ele>
        <time>2016-04-12T13:10:37.000Z</time>
      </trkpt>
      <trkpt lat="43.175" lon="5.842">
        <ele>207</ele>
        <time>2016-04-12T13:10:39.000Z</time>
      </trkpt>
      <trkpt lat="43.17501" lon="5.84218">
        <ele>207</ele>
        <time>2016-04-12T13:10:42.000Z</time>
      </trkpt>
      <trkpt lat="43.17502" lon="5.8424">
        <ele>208.19999694824</ele>
        <time>2016-04-12T13:10:46.000Z</time>
      </trkpt>
      <trkpt lat="43.17503" lon="5.84257">
        <ele>208.80000305176</ele>
        <time>2016-04-12T13:10:49.000Z</time>
      </trkpt>
      <trkpt lat="43.17504" lon="5.84269">
        <ele>209</ele>
        <time>2016-04-12T13:10:51.000Z</time>
      </trkpt>
      <trkpt lat="43.17506" lon="5.84291">
        <ele>209.39999389648</ele>
        <time>2016-04-12T13:10:55.000Z</time>
      </trkpt>
      <trkpt lat="43.17508" lon="5.84304">
        <ele>209.60000610352</ele>
        <time>2016-04-12T13:10:57.000Z</time>
      </trkpt>
      <trkpt lat="43.1751" lon="5.8431">
        <ele>210.39999389648</ele>
        <time>2016-04-12T13:10:58.000Z</time>
      </trkpt>
      <trkpt lat="43.17515" lon="5.84328">
        <ele>213.80000305176</ele>
        <time>2016-04-12T13:11:01.000Z</time>
      </trkpt>
      <trkpt lat="43.17519" lon="5.84344">
        <ele>217.60000610352</ele>
        <time>2016-04-12T13:11:04.000Z</time>
      </trkpt>
      <trkpt lat="43.17521" lon="5.84349">
        <ele>218.80000305176</ele>
        <time>2016-04-12T13:11:05.000Z</time>
      </trkpt>
      <trkpt lat="43.17523" lon="5.84354">
        <ele>220</ele>
        <time>2016-04-12T13:11:06.000Z</time>
      </trkpt>
      <trkpt lat="43.17527" lon="5.8437">
        <ele>223.60000610352</ele>
        <time>2016-04-12T13:11:09.000Z</time>
      </trkpt>
      <trkpt lat="43.17531" lon="5.84385">
        <ele>227.19999694824</ele>
        <time>2016-04-12T13:11:12.000Z</time>
      </trkpt>
      <trkpt lat="43.17533" lon="5.84391">
        <ele>228</ele>
        <time>2016-04-12T13:11:13.000Z</time>
      </trkpt>
      <trkpt lat="43.17537" lon="5.844">
        <ele>228.39999389648</ele>
        <time>2016-04-12T13:11:15.000Z</time>
      </trkpt>
      <trkpt lat="43.17545" lon="5.84412">
        <ele>229</ele>
        <time>2016-04-12T13:11:18.000Z</time>
      </trkpt>
      <trkpt lat="43.1755" lon="5.8442">
        <ele>229.39999389648</ele>
        <time>2016-04-12T13:11:20.000Z</time>
      </trkpt>
      <trkpt lat="43.17552" lon="5.84424">
        <ele>229.60000610352</ele>
        <time>2016-04-12T13:11:21.000Z</time>
      </trkpt>
      <trkpt lat="43.1756" lon="5.84435">
        <ele>230.39999389648</ele>
        <time>2016-04-12T13:11:24.000Z</time>
      </trkpt>
      <trkpt lat="43.1757" lon="5.84446">
        <ele>231.39999389648</ele>
        <time>2016-04-12T13:11:27.000Z</time>
      </trkpt>
      <trkpt lat="43.17572" lon="5.8445">
        <ele>231.60000610352</ele>
        <time>2016-04-12T13:11:28.000Z</time>
      </trkpt>
      <trkpt lat="43.17578" lon="5.84457">
        <ele>232.39999389648</ele>
        <time>2016-04-12T13:11:30.000Z</time>
      </trkpt>
      <trkpt lat="43.17583" lon="5.84464">
        <ele>233.39999389648</ele>
        <time>2016-04-12T13:11:32.000Z</time>
      </trkpt>
      <trkpt lat="43.17588" lon="5.84472">
        <ele>234.39999389648</ele>
        <time>2016-04-12T13:11:34.000Z</time>
      </trkpt>
      <trkpt lat="43.17596" lon="5.84484">
        <ele>235.39999389648</ele>
        <time>2016-04-12T13:11:37.000Z</time>
      </trkpt>
      <trkpt lat="43.17603" lon="5.84497">
        <ele>238.39999389648</ele>
        <time>2016-04-12T13:11:40.000Z</time>
      </trkpt>
      <trkpt lat="43.17609" lon="5.84511">
        <ele>241.19999694824</ele>
        <time>2016-04-12T13:11:43.000Z</time>
      </trkpt>
      <trkpt lat="43.17617" lon="5.84529">
        <ele>245</ele>
        <time>2016-04-12T13:11:47.000Z</time>
      </trkpt>
      <trkpt lat="43.17623" lon="5.84542">
        <ele>247.60000610352</ele>
        <time>2016-04-12T13:11:50.000Z</time>
      </trkpt>
      <trkpt lat="43.17627" lon="5.84557">
        <ele>250</ele>
        <time>2016-04-12T13:11:53.000Z</time>
      </trkpt>
      <trkpt lat="43.17629" lon="5.84567">
        <ele>250</ele>
        <time>2016-04-12T13:11:55.000Z</time>
      </trkpt>
      <trkpt lat="43.17634" lon="5.84588">
        <ele>250.39999389648</ele>
        <time>2016-04-12T13:11:59.000Z</time>
      </trkpt>
      <trkpt lat="43.17639" lon="5.84608">
        <ele>253</ele>
        <time>2016-04-12T13:12:03.000Z</time>
      </trkpt>
      <trkpt lat="43.17644" lon="5.84625">
        <ele>256.60000610352</ele>
        <time>2016-04-12T13:12:06.000Z</time>
      </trkpt>
      <trkpt lat="43.17648" lon="5.84641">
        <ele>259.79998779297</ele>
        <time>2016-04-12T13:12:09.000Z</time>
      </trkpt>
      <trkpt lat="43.17653" lon="5.84657">
        <ele>260</ele>
        <time>2016-04-12T13:12:12.000Z</time>
      </trkpt>
      <trkpt lat="43.17655" lon="5.84662">
        <ele>260</ele>
        <time>2016-04-12T13:12:13.000Z</time>
      </trkpt>
      <trkpt lat="43.17659" lon="5.84672">
        <ele>260</ele>
        <time>2016-04-12T13:12:15.000Z</time>
      </trkpt>
      <trkpt lat="43.17665" lon="5.84687">
        <ele>260</ele>
        <time>2016-04-12T13:12:18.000Z</time>
      </trkpt>
      <trkpt lat="43.17671" lon="5.84702">
        <ele>260</ele>
        <time>2016-04-12T13:12:21.000Z</time>
      </trkpt>
      <trkpt lat="43.17673" lon="5.84707">
        <ele>260</ele>
        <time>2016-04-12T13:12:22.000Z</time>
      </trkpt>
      <trkpt lat="43.17676" lon="5.84718">
        <ele>260</ele>
        <time>2016-04-12T13:12:24.000Z</time>
      </trkpt>
      <trkpt lat="43.17682" lon="5.84733">
        <ele>261.79998779297</ele>
        <time>2016-04-12T13:12:27.000Z</time>
      </trkpt>
      <trkpt lat="43.17689" lon="5.84747">
        <ele>264.20001220703</ele>
        <time>2016-04-12T13:12:30.000Z</time>
      </trkpt>
      <trkpt lat="43.17695" lon="5.84762">
        <ele>266.79998779297</ele>
        <time>2016-04-12T13:12:33.000Z</time>
      </trkpt>
      <trkpt lat="43.17699" lon="5.84771">
        <ele>268.20001220703</ele>
        <time>2016-04-12T13:12:35.000Z</time>
      </trkpt>
      <trkpt lat="43.17708" lon="5.84785">
        <ele>270.20001220703</ele>
        <time>2016-04-12T13:12:38.000Z</time>
      </trkpt>
      <trkpt lat="43.17719" lon="5.84802">
        <ele>272.60000610352</ele>
        <time>2016-04-12T13:12:42.000Z</time>
      </trkpt>
      <trkpt lat="43.1773" lon="5.84816">
        <ele>272.20001220703</ele>
        <time>2016-04-12T13:12:46.000Z</time>
      </trkpt>
      <trkpt lat="43.17733" lon="5.8482">
        <ele>271.79998779297</ele>
        <time>2016-04-12T13:12:47.000Z</time>
      </trkpt>
      <trkpt lat="43.17746" lon="5.84838">
        <ele>270</ele>
        <time>2016-04-12T13:12:52.000Z</time>
      </trkpt>
      <trkpt lat="43.17752" lon="5.84846">
        <ele>269.20001220703</ele>
        <time>2016-04-12T13:12:54.000Z</time>
      </trkpt>
      <trkpt lat="43.17768" lon="5.8487">
        <ele>268</ele>
        <time>2016-04-12T13:13:00.000Z</time>
      </trkpt>
      <trkpt lat="43.1778" lon="5.84888">
        <ele>267.79998779297</ele>
        <time>2016-04-12T13:13:04.000Z</time>
      </trkpt>
      <trkpt lat="43.17787" lon="5.84896">
        <ele>267.79998779297</ele>
        <time>2016-04-12T13:13:06.000Z</time>
      </trkpt>
      <trkpt lat="43.17811" lon="5.84926">
        <ele>267.79998779297</ele>
        <time>2016-04-12T13:13:13.000Z</time>
      </trkpt>
      <trkpt lat="43.17833" lon="5.84955">
        <ele>268</ele>
        <time>2016-04-12T13:13:20.000Z</time>
      </trkpt>
      <trkpt lat="43.17841" lon="5.84968">
        <ele>268</ele>
        <time>2016-04-12T13:13:23.000Z</time>
      </trkpt>
      <trkpt lat="43.17854" lon="5.8499">
        <ele>269.60000610352</ele>
        <time>2016-04-12T13:13:28.000Z</time>
      </trkpt>
      <trkpt lat="43.17856" lon="5.84995">
        <ele>270.20001220703</ele>
        <time>2016-04-12T13:13:29.000Z</time>
      </trkpt>
      <trkpt lat="43.17853" lon="5.85013">
        <ele>274</ele>
        <time>2016-04-12T13:13:33.000Z</time>
      </trkpt>
      <trkpt lat="43.17841" lon="5.85022">
        <ele>277.39999389648</ele>
        <time>2016-04-12T13:13:36.000Z</time>
      </trkpt>
      <trkpt lat="43.17836" lon="5.85021">
        <ele>278.39999389648</ele>
        <time>2016-04-12T13:13:37.000Z</time>
      </trkpt>
      <trkpt lat="43.17826" lon="5.85016">
        <ele>279.39999389648</ele>
        <time>2016-04-12T13:13:39.000Z</time>
      </trkpt>
      <trkpt lat="43.17822" lon="5.85013">
        <ele>279.60000610352</ele>
        <time>2016-04-12T13:13:40.000Z</time>
      </trkpt>
      <trkpt lat="43.17814" lon="5.85007">
        <ele>280.20001220703</ele>
        <time>2016-04-12T13:13:42.000Z</time>
      </trkpt>
      <trkpt lat="43.17803" lon="5.84997">
        <ele>280.60000610352</ele>
        <time>2016-04-12T13:13:45.000Z</time>
      </trkpt>
      <trkpt lat="43.17795" lon="5.84991">
        <ele>280.79998779297</ele>
        <time>2016-04-12T13:13:47.000Z</time>
      </trkpt>
      <trkpt lat="43.17791" lon="5.84988">
        <ele>281</ele>
        <time>2016-04-12T13:13:48.000Z</time>
      </trkpt>
      <trkpt lat="43.17781" lon="5.84978">
        <ele>281.39999389648</ele>
        <time>2016-04-12T13:13:51.000Z</time>
      </trkpt>
      <trkpt lat="43.17771" lon="5.84968">
        <ele>281.20001220703</ele>
        <time>2016-04-12T13:13:54.000Z</time>
      </trkpt>
      <trkpt lat="43.17765" lon="5.8496">
        <ele>281</ele>
        <time>2016-04-12T13:13:56.000Z</time>
      </trkpt>
      <trkpt lat="43.17761" lon="5.84957">
        <ele>281</ele>
        <time>2016-04-12T13:13:57.000Z</time>
      </trkpt>
      <trkpt lat="43.17751" lon="5.84947">
        <ele>281.60000610352</ele>
        <time>2016-04-12T13:14:00.000Z</time>
      </trkpt>
      <trkpt lat="43.1774" lon="5.84938">
        <ele>282.20001220703</ele>
        <time>2016-04-12T13:14:03.000Z</time>
      </trkpt>
      <trkpt lat="43.17733" lon="5.84934">
        <ele>283</ele>
        <time>2016-04-12T13:14:05.000Z</time>
      </trkpt>
      <trkpt lat="43.17725" lon="5.84932">
        <ele>284.39999389648</ele>
        <time>2016-04-12T13:14:07.000Z</time>
      </trkpt>
      <trkpt lat="43.17721" lon="5.84931">
        <ele>285.20001220703</ele>
        <time>2016-04-12T13:14:08.000Z</time>
      </trkpt>
      <trkpt lat="43.17713" lon="5.84932">
        <ele>286</ele>
        <time>2016-04-12T13:14:10.000Z</time>
      </trkpt>
      <trkpt lat="43.17709" lon="5.84934">
        <ele>286.20001220703</ele>
        <time>2016-04-12T13:14:11.000Z</time>
      </trkpt>
      <trkpt lat="43.17701" lon="5.84938">
        <ele>286.79998779297</ele>
        <time>2016-04-12T13:14:13.000Z</time>
      </trkpt>
      <trkpt lat="43.17698" lon="5.84941">
        <ele>287</ele>
        <time>2016-04-12T13:14:14.000Z</time>
      </trkpt>
      <trkpt lat="43.17688" lon="5.84949">
        <ele>287.79998779297</ele>
        <time>2016-04-12T13:14:17.000Z</time>
      </trkpt>
      <trkpt lat="43.17682" lon="5.84956">
        <ele>288.39999389648</ele>
        <time>2016-04-12T13:14:19.000Z</time>
      </trkpt>
      <trkpt lat="43.17676" lon="5.84969">
        <ele>289.20001220703</ele>
        <time>2016-04-12T13:14:22.000Z</time>
      </trkpt>
      <trkpt lat="43.17677" lon="5.84985">
        <ele>291</ele>
        <time>2016-04-12T13:14:25.000Z</time>
      </trkpt>
      <trkpt lat="43.17677" lon="5.8499">
        <ele>291.60000610352</ele>
        <time>2016-04-12T13:14:26.000Z</time>
      </trkpt>
      <trkpt lat="43.17679" lon="5.84996">
        <ele>292.39999389648</ele>
        <time>2016-04-12T13:14:27.000Z</time>
      </trkpt>
      <trkpt lat="43.1768" lon="5.85001">
        <ele>293</ele>
        <time>2016-04-12T13:14:28.000Z</time>
      </trkpt>
      <trkpt lat="43.17686" lon="5.85018">
        <ele>295</ele>
        <time>2016-04-12T13:14:31.000Z</time>
      </trkpt>
      <trkpt lat="43.17688" lon="5.85029">
        <ele>296.39999389648</ele>
        <time>2016-04-12T13:14:33.000Z</time>
      </trkpt>
      <trkpt lat="43.1769" lon="5.8504">
        <ele>297.79998779297</ele>
        <time>2016-04-12T13:14:35.000Z</time>
      </trkpt>
      <trkpt lat="43.17689" lon="5.85054">
        <ele>299.79998779297</ele>
        <time>2016-04-12T13:14:38.000Z</time>
      </trkpt>
      <trkpt lat="43.17687" lon="5.85059">
        <ele>300.39999389648</ele>
        <time>2016-04-12T13:14:39.000Z</time>
      </trkpt>
      <trkpt lat="43.17678" lon="5.85065">
        <ele>302.20001220703</ele>
        <time>2016-04-12T13:14:41.000Z</time>
      </trkpt>
      <trkpt lat="43.1767" lon="5.85067">
        <ele>304</ele>
        <time>2016-04-12T13:14:43.000Z</time>
      </trkpt>
      <trkpt lat="43.17657" lon="5.85062">
        <ele>305.39999389648</ele>
        <time>2016-04-12T13:14:46.000Z</time>
      </trkpt>
      <trkpt lat="43.17654" lon="5.85059">
        <ele>305.39999389648</ele>
        <time>2016-04-12T13:14:47.000Z</time>
      </trkpt>
      <trkpt lat="43.17647" lon="5.85051">
        <ele>305.60000610352</ele>
        <time>2016-04-12T13:14:49.000Z</time>
      </trkpt>
      <trkpt lat="43.17639" lon="5.85039">
        <ele>305.60000610352</ele>
        <time>2016-04-12T13:14:52.000Z</time>
      </trkpt>
      <trkpt lat="43.17633" lon="5.85031">
        <ele>305.60000610352</ele>
        <time>2016-04-12T13:14:54.000Z</time>
      </trkpt>
      <trkpt lat="43.1763" lon="5.85028">
        <ele>305.60000610352</ele>
        <time>2016-04-12T13:14:55.000Z</time>
      </trkpt>
      <trkpt lat="43.17621" lon="5.85017">
        <ele>305.79998779297</ele>
        <time>2016-04-12T13:14:58.000Z</time>
      </trkpt>
      <trkpt lat="43.17613" lon="5.85005">
        <ele>305.79998779297</ele>
        <time>2016-04-12T13:15:01.000Z</time>
      </trkpt>
      <trkpt lat="43.1761" lon="5.85002">
        <ele>306</ele>
        <time>2016-04-12T13:15:02.000Z</time>
      </trkpt>
      <trkpt lat="43.17596" lon="5.84989">
        <ele>306.79998779297</ele>
        <time>2016-04-12T13:15:06.000Z</time>
      </trkpt>
      <trkpt lat="43.17584" lon="5.84975">
        <ele>307</ele>
        <time>2016-04-12T13:15:10.000Z</time>
      </trkpt>
      <trkpt lat="43.17573" lon="5.84961">
        <ele>307.60000610352</ele>
        <time>2016-04-12T13:15:14.000Z</time>
      </trkpt>
      <trkpt lat="43.1756" lon="5.84946">
        <ele>308.20001220703</ele>
        <time>2016-04-12T13:15:18.000Z</time>
      </trkpt>
      <trkpt lat="43.17549" lon="5.8493">
        <ele>308.60000610352</ele>
        <time>2016-04-12T13:15:22.000Z</time>
      </trkpt>
      <trkpt lat="43.17537" lon="5.84913">
        <ele>309</ele>
        <time>2016-04-12T13:15:26.000Z</time>
      </trkpt>
      <trkpt lat="43.17529" lon="5.849">
        <ele>309.39999389648</ele>
        <time>2016-04-12T13:15:29.000Z</time>
      </trkpt>
      <trkpt lat="43.17526" lon="5.84895">
        <ele>309.39999389648</ele>
        <time>2016-04-12T13:15:30.000Z</time>
      </trkpt>
      <trkpt lat="43.17518" lon="5.84882">
        <ele>310</ele>
        <time>2016-04-12T13:15:33.000Z</time>
      </trkpt>
      <trkpt lat="43.17507" lon="5.84865">
        <ele>311.20001220703</ele>
        <time>2016-04-12T13:15:37.000Z</time>
      </trkpt>
      <trkpt lat="43.17505" lon="5.84861">
        <ele>311.39999389648</ele>
        <time>2016-04-12T13:15:38.000Z</time>
      </trkpt>
      <trkpt lat="43.17498" lon="5.84848">
        <ele>312</ele>
        <time>2016-04-12T13:15:41.000Z</time>
      </trkpt>
      <trkpt lat="43.17492" lon="5.84833">
        <ele>312.60000610352</ele>
        <time>2016-04-12T13:15:44.000Z</time>
      </trkpt>
      <trkpt lat="43.17491" lon="5.84818">
        <ele>312.60000610352</ele>
        <time>2016-04-12T13:15:47.000Z</time>
      </trkpt>
      <trkpt lat="43.17491" lon="5.84807">
        <ele>312.39999389648</ele>
        <time>2016-04-12T13:15:49.000Z</time>
      </trkpt>
      <trkpt lat="43.17491" lon="5.84802">
        <ele>312.20001220703</ele>
        <time>2016-04-12T13:15:50.000Z</time>
      </trkpt>
      <trkpt lat="43.17492" lon="5.84786">
        <ele>311.60000610352</ele>
        <time>2016-04-12T13:15:53.000Z</time>
      </trkpt>
      <trkpt lat="43.17491" lon="5.8477">
        <ele>310.79998779297</ele>
        <time>2016-04-12T13:15:56.000Z</time>
      </trkpt>
      <trkpt lat="43.17487" lon="5.8475">
        <ele>310</ele>
        <time>2016-04-12T13:16:00.000Z</time>
      </trkpt>
      <trkpt lat="43.17483" lon="5.84742">
        <ele>310.20001220703</ele>
        <time>2016-04-12T13:16:02.000Z</time>
      </trkpt>
      <trkpt lat="43.17477" lon="5.84736">
        <ele>310.79998779297</ele>
        <time>2016-04-12T13:16:04.000Z</time>
      </trkpt>
      <trkpt lat="43.17463" lon="5.84724">
        <ele>312</ele>
        <time>2016-04-12T13:16:08.000Z</time>
      </trkpt>
      <trkpt lat="43.17456" lon="5.84718">
        <ele>312.60000610352</ele>
        <time>2016-04-12T13:16:10.000Z</time>
      </trkpt>
      <trkpt lat="43.1745" lon="5.84713">
        <ele>313.39999389648</ele>
        <time>2016-04-12T13:16:12.000Z</time>
      </trkpt>
      <trkpt lat="43.17434" lon="5.84707">
        <ele>315.39999389648</ele>
        <time>2016-04-12T13:16:16.000Z</time>
      </trkpt>
      <trkpt lat="43.17426" lon="5.84706">
        <ele>316.39999389648</ele>
        <time>2016-04-12T13:16:18.000Z</time>
      </trkpt>
      <trkpt lat="43.174" lon="5.84701">
        <ele>318.79998779297</ele>
        <time>2016-04-12T13:16:24.000Z</time>
      </trkpt>
      <trkpt lat="43.17391" lon="5.847">
        <ele>319.39999389648</ele>
        <time>2016-04-12T13:16:26.000Z</time>
      </trkpt>
      <trkpt lat="43.17382" lon="5.84699">
        <ele>320</ele>
        <time>2016-04-12T13:16:28.000Z</time>
      </trkpt>
      <trkpt lat="43.1736" lon="5.84696">
        <ele>321.60000610352</ele>
        <time>2016-04-12T13:16:33.000Z</time>
      </trkpt>
      <trkpt lat="43.17352" lon="5.84696">
        <ele>322.20001220703</ele>
        <time>2016-04-12T13:16:35.000Z</time>
      </trkpt>
      <trkpt lat="43.17339" lon="5.84694">
        <ele>322.60000610352</ele>
        <time>2016-04-12T13:16:38.000Z</time>
      </trkpt>
      <trkpt lat="43.17319" lon="5.8469">
        <ele>322.60000610352</ele>
        <time>2016-04-12T13:16:43.000Z</time>
      </trkpt>
      <trkpt lat="43.17292" lon="5.84684">
        <ele>323</ele>
        <time>2016-04-12T13:16:50.000Z</time>
      </trkpt>
      <trkpt lat="43.17262" lon="5.84679">
        <ele>323.79998779297</ele>
        <time>2016-04-12T13:16:57.000Z</time>
      </trkpt>
      <trkpt lat="43.1723" lon="5.84674">
        <ele>323</ele>
        <time>2016-04-12T13:17:04.000Z</time>
      </trkpt>
      <trkpt lat="43.17183" lon="5.84666">
        <ele>320.79998779297</ele>
        <time>2016-04-12T13:17:13.000Z</time>
      </trkpt>
      <trkpt lat="43.17151" lon="5.84659">
        <ele>318.79998779297</ele>
        <time>2016-04-12T13:17:19.000Z</time>
      </trkpt>
      <trkpt lat="43.17142" lon="5.84657">
        <ele>318.20001220703</ele>
        <time>2016-04-12T13:17:21.000Z</time>
      </trkpt>
      <trkpt lat="43.17113" lon="5.8465">
        <ele>316.39999389648</ele>
        <time>2016-04-12T13:17:28.000Z</time>
      </trkpt>
      <trkpt lat="43.17088" lon="5.84645">
        <ele>315.39999389648</ele>
        <time>2016-04-12T13:17:35.000Z</time>
      </trkpt>
      <trkpt lat="43.17063" lon="5.8464">
        <ele>316.60000610352</ele>
        <time>2016-04-12T13:17:42.000Z</time>
      </trkpt>
      <trkpt lat="43.17026" lon="5.84628">
        <ele>319.79998779297</ele>
        <time>2016-04-12T13:17:51.000Z</time>
      </trkpt>
      <trkpt lat="43.17003" lon="5.84624">
        <ele>321</ele>
        <time>2016-04-12T13:17:57.000Z</time>
      </trkpt>
      <trkpt lat="43.16989" lon="5.84633">
        <ele>320</ele>
        <time>2016-04-12T13:18:01.000Z</time>
      </trkpt>
      <trkpt lat="43.1698" lon="5.84644">
        <ele>319</ele>
        <time>2016-04-12T13:18:04.000Z</time>
      </trkpt>
      <trkpt lat="43.16971" lon="5.84659">
        <ele>318</ele>
        <time>2016-04-12T13:18:07.000Z</time>
      </trkpt>
      <trkpt lat="43.16966" lon="5.84665">
        <ele>317.60000610352</ele>
        <time>2016-04-12T13:18:08.000Z</time>
      </trkpt>
      <trkpt lat="43.1695" lon="5.84678">
        <ele>316.20001220703</ele>
        <time>2016-04-12T13:18:11.000Z</time>
      </trkpt>
      <trkpt lat="43.16944" lon="5.84682">
        <ele>315.79998779297</ele>
        <time>2016-04-12T13:18:12.000Z</time>
      </trkpt>
      <trkpt lat="43.16939" lon="5.84686">
        <ele>315.20001220703</ele>
        <time>2016-04-12T13:18:13.000Z</time>
      </trkpt>
      <trkpt lat="43.16935" lon="5.84691">
        <ele>314.60000610352</ele>
        <time>2016-04-12T13:18:14.000Z</time>
      </trkpt>
      <trkpt lat="43.16929" lon="5.847">
        <ele>313.39999389648</ele>
        <time>2016-04-12T13:18:16.000Z</time>
      </trkpt>
      <trkpt lat="43.16927" lon="5.84706">
        <ele>312.60000610352</ele>
        <time>2016-04-12T13:18:17.000Z</time>
      </trkpt>
      <trkpt lat="43.16924" lon="5.84711">
        <ele>311.60000610352</ele>
        <time>2016-04-12T13:18:18.000Z</time>
      </trkpt>
      <trkpt lat="43.1692" lon="5.84714">
        <ele>310.60000610352</ele>
        <time>2016-04-12T13:18:19.000Z</time>
      </trkpt>
      <trkpt lat="43.16915" lon="5.84715">
        <ele>310.20001220703</ele>
        <time>2016-04-12T13:18:20.000Z</time>
      </trkpt>
      <trkpt lat="43.1691" lon="5.84712">
        <ele>310</ele>
        <time>2016-04-12T13:18:21.000Z</time>
      </trkpt>
      <trkpt lat="43.16903" lon="5.84705">
        <ele>309.60000610352</ele>
        <time>2016-04-12T13:18:23.000Z</time>
      </trkpt>
      <trkpt lat="43.16893" lon="5.84691">
        <ele>309.20001220703</ele>
        <time>2016-04-12T13:18:26.000Z</time>
      </trkpt>
      <trkpt lat="43.16884" lon="5.84678">
        <ele>309</ele>
        <time>2016-04-12T13:18:29.000Z</time>
      </trkpt>
      <trkpt lat="43.16857" lon="5.84642">
        <ele>308.60000610352</ele>
        <time>2016-04-12T13:18:37.000Z</time>
      </trkpt>
      <trkpt lat="43.16847" lon="5.8463">
        <ele>308.79998779297</ele>
        <time>2016-04-12T13:18:40.000Z</time>
      </trkpt>
      <trkpt lat="43.16827" lon="5.84602">
        <ele>310</ele>
        <time>2016-04-12T13:18:46.000Z</time>
      </trkpt>
      <trkpt lat="43.16821" lon="5.84591">
        <ele>310.79998779297</ele>
        <time>2016-04-12T13:18:48.000Z</time>
      </trkpt>
      <trkpt lat="43.16814" lon="5.84574">
        <ele>312.39999389648</ele>
        <time>2016-04-12T13:18:51.000Z</time>
      </trkpt>
      <trkpt lat="43.16803" lon="5.84548">
        <ele>314.60000610352</ele>
        <time>2016-04-12T13:18:56.000Z</time>
      </trkpt>
      <trkpt lat="43.16798" lon="5.84537">
        <ele>315.60000610352</ele>
        <time>2016-04-12T13:18:58.000Z</time>
      </trkpt>
      <trkpt lat="43.16788" lon="5.84516">
        <ele>317.20001220703</ele>
        <time>2016-04-12T13:19:02.000Z</time>
      </trkpt>
      <trkpt lat="43.16779" lon="5.84503">
        <ele>318</ele>
        <time>2016-04-12T13:19:05.000Z</time>
      </trkpt>
      <trkpt lat="43.16755" lon="5.84484">
        <ele>318.39999389648</ele>
        <time>2016-04-12T13:19:11.000Z</time>
      </trkpt>
      <trkpt lat="43.16751" lon="5.84481">
        <ele>318.79998779297</ele>
        <time>2016-04-12T13:19:12.000Z</time>
      </trkpt>
      <trkpt lat="43.16732" lon="5.84476">
        <ele>319.60000610352</ele>
        <time>2016-04-12T13:19:17.000Z</time>
      </trkpt>
      <trkpt lat="43.16702" lon="5.84475">
        <ele>319.60000610352</ele>
        <time>2016-04-12T13:19:23.000Z</time>
      </trkpt>
      <trkpt lat="43.16692" lon="5.84473">
        <ele>319.79998779297</ele>
        <time>2016-04-12T13:19:25.000Z</time>
      </trkpt>
      <trkpt lat="43.16668" lon="5.84473">
        <ele>321.39999389648</ele>
        <time>2016-04-12T13:19:30.000Z</time>
      </trkpt>
      <trkpt lat="43.16654" lon="5.84475">
        <ele>322.79998779297</ele>
        <time>2016-04-12T13:19:33.000Z</time>
      </trkpt>
      <trkpt lat="43.1665" lon="5.84476">
        <ele>323</ele>
        <time>2016-04-12T13:19:34.000Z</time>
      </trkpt>
      <trkpt lat="43.16629" lon="5.84486">
        <ele>324.39999389648</ele>
        <time>2016-04-12T13:19:39.000Z</time>
      </trkpt>
      <trkpt lat="43.16612" lon="5.84496">
        <ele>324.60000610352</ele>
        <time>2016-04-12T13:19:43.000Z</time>
      </trkpt>
      <trkpt lat="43.16596" lon="5.84505">
        <ele>323.79998779297</ele>
        <time>2016-04-12T13:19:47.000Z</time>
      </trkpt>
      <trkpt lat="43.16579" lon="5.84513">
        <ele>323.39999389648</ele>
        <time>2016-04-12T13:19:51.000Z</time>
      </trkpt>
      <trkpt lat="43.16574" lon="5.84515">
        <ele>323.60000610352</ele>
        <time>2016-04-12T13:19:52.000Z</time>
      </trkpt>
      <trkpt lat="43.1657" lon="5.84516">
        <ele>323.79998779297</ele>
        <time>2016-04-12T13:19:53.000Z</time>
      </trkpt>
      <trkpt lat="43.16543" lon="5.84521">
        <ele>325.79998779297</ele>
        <time>2016-04-12T13:19:59.000Z</time>
      </trkpt>
      <trkpt lat="43.16529" lon="5.84525">
        <ele>327.20001220703</ele>
        <time>2016-04-12T13:20:02.000Z</time>
      </trkpt>
      <trkpt lat="43.16516" lon="5.84529">
        <ele>328.39999389648</ele>
        <time>2016-04-12T13:20:05.000Z</time>
      </trkpt>
      <trkpt lat="43.16498" lon="5.84535">
        <ele>325.60000610352</ele>
        <time>2016-04-12T13:20:09.000Z</time>
      </trkpt>
      <trkpt lat="43.16494" lon="5.84537">
        <ele>324.39999389648</ele>
        <time>2016-04-12T13:20:10.000Z</time>
      </trkpt>
      <trkpt lat="43.16474" lon="5.84547">
        <ele>326.20001220703</ele>
        <time>2016-04-12T13:20:15.000Z</time>
      </trkpt>
      <trkpt lat="43.16466" lon="5.8455">
        <ele>327</ele>
        <time>2016-04-12T13:20:17.000Z</time>
      </trkpt>
      <trkpt lat="43.16442" lon="5.84561">
        <ele>327.79998779297</ele>
        <time>2016-04-12T13:20:24.000Z</time>
      </trkpt>
      <trkpt lat="43.16428" lon="5.84569">
        <ele>328.39999389648</ele>
        <time>2016-04-12T13:20:30.000Z</time>
      </trkpt>
      <trkpt lat="43.16422" lon="5.84583">
        <ele>327</ele>
        <time>2016-04-12T13:20:35.000Z</time>
      </trkpt>
      <trkpt lat="43.16417" lon="5.84584">
        <ele>326.79998779297</ele>
        <time>2016-04-12T13:20:37.000Z</time>
      </trkpt>
      <trkpt lat="43.16415" lon="5.84585">
        <ele>326.60000610352</ele>
        <time>2016-04-12T13:20:38.000Z</time>
      </trkpt>
      <trkpt lat="43.16406" lon="5.8459">
        <ele>326</ele>
        <time>2016-04-12T13:20:41.000Z</time>
      </trkpt>
      <trkpt lat="43.16402" lon="5.84593">
        <ele>325.60000610352</ele>
        <time>2016-04-12T13:20:43.000Z</time>
      </trkpt>
      <trkpt lat="43.16395" lon="5.84596">
        <ele>325.39999389648</ele>
        <time>2016-04-12T13:20:46.000Z</time>
      </trkpt>
      <trkpt lat="43.16394" lon="5.84594">
        <ele>325.39999389648</ele>
        <time>2016-04-12T13:20:47.000Z</time>
      </trkpt>
      <trkpt lat="43.16393" lon="5.84587">
        <ele>326.20001220703</ele>
        <time>2016-04-12T13:20:50.000Z</time>
      </trkpt>
      <trkpt lat="43.16391" lon="5.84582">
        <ele>326.79998779297</ele>
        <time>2016-04-12T13:20:53.000Z</time>
      </trkpt>
      <trkpt lat="43.16398" lon="5.84597">
        <ele>325.20001220703</ele>
        <time>2016-04-12T13:27:49.000Z</time>
      </trkpt>
      <trkpt lat="43.164" lon="5.84598">
        <ele>325.20001220703</ele>
        <time>2016-04-12T13:27:51.000Z</time>
      </trkpt>
      <trkpt lat="43.16403" lon="5.84595">
        <ele>325.39999389648</ele>
        <time>2016-04-12T13:28:18.000Z</time>
      </trkpt>
      <trkpt lat="43.16405" lon="5.84593">
        <ele>325.79998779297</ele>
        <time>2016-04-12T13:28:19.000Z</time>
      </trkpt>
      <trkpt lat="43.16421" lon="5.84584">
        <ele>327</ele>
        <time>2016-04-12T13:28:23.000Z</time>
      </trkpt>
      <trkpt lat="43.16425" lon="5.84581">
        <ele>327.20001220703</ele>
        <time>2016-04-12T13:28:24.000Z</time>
      </trkpt>
      <trkpt lat="43.16434" lon="5.84568">
        <ele>327.20001220703</ele>
        <time>2016-04-12T13:28:27.000Z</time>
      </trkpt>
      <trkpt lat="43.16446" lon="5.84562">
        <ele>327.20001220703</ele>
        <time>2016-04-12T13:28:30.000Z</time>
      </trkpt>
      <trkpt lat="43.1645" lon="5.84561">
        <ele>327.39999389648</ele>
        <time>2016-04-12T13:28:31.000Z</time>
      </trkpt>
      <trkpt lat="43.16479" lon="5.84546">
        <ele>325.79998779297</ele>
        <time>2016-04-12T13:28:38.000Z</time>
      </trkpt>
      <trkpt lat="43.16501" lon="5.84536">
        <ele>325.79998779297</ele>
        <time>2016-04-12T13:28:44.000Z</time>
      </trkpt>
      <trkpt lat="43.1653" lon="5.84529">
        <ele>326.39999389648</ele>
        <time>2016-04-12T13:28:50.000Z</time>
      </trkpt>
      <trkpt lat="43.16563" lon="5.84522">
        <ele>323</ele>
        <time>2016-04-12T13:28:55.000Z</time>
      </trkpt>
      <trkpt lat="43.1657" lon="5.8452">
        <ele>322.79998779297</ele>
        <time>2016-04-12T13:28:56.000Z</time>
      </trkpt>
      <trkpt lat="43.16599" lon="5.84509">
        <ele>322.79998779297</ele>
        <time>2016-04-12T13:29:00.000Z</time>
      </trkpt>
      <trkpt lat="43.16606" lon="5.84505">
        <ele>323.20001220703</ele>
        <time>2016-04-12T13:29:01.000Z</time>
      </trkpt>
      <trkpt lat="43.16628" lon="5.84491">
        <ele>323.60000610352</ele>
        <time>2016-04-12T13:29:04.000Z</time>
      </trkpt>
      <trkpt lat="43.16658" lon="5.84477">
        <ele>322</ele>
        <time>2016-04-12T13:29:08.000Z</time>
      </trkpt>
      <trkpt lat="43.16666" lon="5.84476">
        <ele>321</ele>
        <time>2016-04-12T13:29:09.000Z</time>
      </trkpt>
      <trkpt lat="43.16682" lon="5.84478">
        <ele>319.20001220703</ele>
        <time>2016-04-12T13:29:11.000Z</time>
      </trkpt>
      <trkpt lat="43.16707" lon="5.84481">
        <ele>318.79998779297</ele>
        <time>2016-04-12T13:29:14.000Z</time>
      </trkpt>
      <trkpt lat="43.16739" lon="5.84484">
        <ele>318.20001220703</ele>
        <time>2016-04-12T13:29:18.000Z</time>
      </trkpt>
      <trkpt lat="43.16755" lon="5.84488">
        <ele>317.79998779297</ele>
        <time>2016-04-12T13:29:20.000Z</time>
      </trkpt>
      <trkpt lat="43.1677" lon="5.84495">
        <ele>317.79998779297</ele>
        <time>2016-04-12T13:29:22.000Z</time>
      </trkpt>
      <trkpt lat="43.16795" lon="5.84522">
        <ele>317.39999389648</ele>
        <time>2016-04-12T13:29:26.000Z</time>
      </trkpt>
      <trkpt lat="43.16813" lon="5.84558">
        <ele>314.60000610352</ele>
        <time>2016-04-12T13:29:30.000Z</time>
      </trkpt>
      <trkpt lat="43.16821" lon="5.84577">
        <ele>312.79998779297</ele>
        <time>2016-04-12T13:29:32.000Z</time>
      </trkpt>
      <trkpt lat="43.16833" lon="5.84607">
        <ele>310.20001220703</ele>
        <time>2016-04-12T13:29:35.000Z</time>
      </trkpt>
      <trkpt lat="43.16839" lon="5.84616">
        <ele>309.60000610352</ele>
        <time>2016-04-12T13:29:36.000Z</time>
      </trkpt>
      <trkpt lat="43.16844" lon="5.84624">
        <ele>309.20001220703</ele>
        <time>2016-04-12T13:29:37.000Z</time>
      </trkpt>
      <trkpt lat="43.16856" lon="5.84641">
        <ele>308.60000610352</ele>
        <time>2016-04-12T13:29:39.000Z</time>
      </trkpt>
      <trkpt lat="43.16874" lon="5.84665">
        <ele>308.79998779297</ele>
        <time>2016-04-12T13:29:42.000Z</time>
      </trkpt>
      <trkpt lat="43.16886" lon="5.84679">
        <ele>309.20001220703</ele>
        <time>2016-04-12T13:29:44.000Z</time>
      </trkpt>
      <trkpt lat="43.16896" lon="5.84693">
        <ele>309.39999389648</ele>
        <time>2016-04-12T13:29:46.000Z</time>
      </trkpt>
      <trkpt lat="43.16909" lon="5.84709">
        <ele>310</ele>
        <time>2016-04-12T13:29:49.000Z</time>
      </trkpt>
      <trkpt lat="43.1692" lon="5.84722">
        <ele>310.39999389648</ele>
        <time>2016-04-12T13:29:52.000Z</time>
      </trkpt>
      <trkpt lat="43.16925" lon="5.84727">
        <ele>311</ele>
        <time>2016-04-12T13:29:54.000Z</time>
      </trkpt>
      <trkpt lat="43.16928" lon="5.84727">
        <ele>311.20001220703</ele>
        <time>2016-04-12T13:29:55.000Z</time>
      </trkpt>
      <trkpt lat="43.16931" lon="5.84723">
        <ele>311</ele>
        <time>2016-04-12T13:29:56.000Z</time>
      </trkpt>
      <trkpt lat="43.16932" lon="5.84717">
        <ele>311.60000610352</ele>
        <time>2016-04-12T13:29:57.000Z</time>
      </trkpt>
      <trkpt lat="43.16944" lon="5.84687">
        <ele>315.20001220703</ele>
        <time>2016-04-12T13:30:02.000Z</time>
      </trkpt>
      <trkpt lat="43.16949" lon="5.84684">
        <ele>315.79998779297</ele>
        <time>2016-04-12T13:30:03.000Z</time>
      </trkpt>
      <trkpt lat="43.16958" lon="5.84679">
        <ele>316.39999389648</ele>
        <time>2016-04-12T13:30:05.000Z</time>
      </trkpt>
      <trkpt lat="43.16963" lon="5.84676">
        <ele>316.79998779297</ele>
        <time>2016-04-12T13:30:06.000Z</time>
      </trkpt>
      <trkpt lat="43.16967" lon="5.84673">
        <ele>317</ele>
        <time>2016-04-12T13:30:07.000Z</time>
      </trkpt>
      <trkpt lat="43.16974" lon="5.84664">
        <ele>317.60000610352</ele>
        <time>2016-04-12T13:30:09.000Z</time>
      </trkpt>
      <trkpt lat="43.16977" lon="5.8466">
        <ele>318</ele>
        <time>2016-04-12T13:30:10.000Z</time>
      </trkpt>
      <trkpt lat="43.16981" lon="5.84651">
        <ele>318.60000610352</ele>
        <time>2016-04-12T13:30:12.000Z</time>
      </trkpt>
      <trkpt lat="43.16984" lon="5.84646">
        <ele>318.79998779297</ele>
        <time>2016-04-12T13:30:13.000Z</time>
      </trkpt>
      <trkpt lat="43.16988" lon="5.84637">
        <ele>319.60000610352</ele>
        <time>2016-04-12T13:30:15.000Z</time>
      </trkpt>
      <trkpt lat="43.1699" lon="5.84634">
        <ele>320</ele>
        <time>2016-04-12T13:30:16.000Z</time>
      </trkpt>
      <trkpt lat="43.16995" lon="5.84628">
        <ele>320.60000610352</ele>
        <time>2016-04-12T13:30:18.000Z</time>
      </trkpt>
      <trkpt lat="43.17002" lon="5.84627">
        <ele>320.79998779297</ele>
        <time>2016-04-12T13:30:20.000Z</time>
      </trkpt>
      <trkpt lat="43.17016" lon="5.84629">
        <ele>320.20001220703</ele>
        <time>2016-04-12T13:30:24.000Z</time>
      </trkpt>
      <trkpt lat="43.17024" lon="5.84631">
        <ele>319.39999389648</ele>
        <time>2016-04-12T13:30:26.000Z</time>
      </trkpt>
      <trkpt lat="43.17047" lon="5.84639">
        <ele>317.20001220703</ele>
        <time>2016-04-12T13:30:32.000Z</time>
      </trkpt>
      <trkpt lat="43.17057" lon="5.84643">
        <ele>316.79998779297</ele>
        <time>2016-04-12T13:30:35.000Z</time>
      </trkpt>
      <trkpt lat="43.17068" lon="5.84646">
        <ele>316.20001220703</ele>
        <time>2016-04-12T13:30:41.000Z</time>
      </trkpt>
      <trkpt lat="43.17074" lon="5.84649">
        <ele>316</ele>
        <time>2016-04-12T13:31:18.000Z</time>
      </trkpt>
      <trkpt lat="43.17077" lon="5.84649">
        <ele>315.79998779297</ele>
        <time>2016-04-12T13:31:20.000Z</time>
      </trkpt>
      <trkpt lat="43.1709" lon="5.84655">
        <ele>315.20001220703</ele>
        <time>2016-04-12T13:31:24.000Z</time>
      </trkpt>
      <trkpt lat="43.17124" lon="5.84666">
        <ele>317.39999389648</ele>
        <time>2016-04-12T13:31:32.000Z</time>
      </trkpt>
      <trkpt lat="43.17166" lon="5.84672">
        <ele>320</ele>
        <time>2016-04-12T13:31:40.000Z</time>
      </trkpt>
      <trkpt lat="43.17216" lon="5.84677">
        <ele>322.79998779297</ele>
        <time>2016-04-12T13:31:50.000Z</time>
      </trkpt>
      <trkpt lat="43.17251" lon="5.84683">
        <ele>323.79998779297</ele>
        <time>2016-04-12T13:31:57.000Z</time>
      </trkpt>
      <trkpt lat="43.17256" lon="5.84683">
        <ele>324</ele>
        <time>2016-04-12T13:31:58.000Z</time>
      </trkpt>
      <trkpt lat="43.17296" lon="5.84689">
        <ele>323.20001220703</ele>
        <time>2016-04-12T13:32:06.000Z</time>
      </trkpt>
      <trkpt lat="43.17301" lon="5.84689">
        <ele>323</ele>
        <time>2016-04-12T13:32:07.000Z</time>
      </trkpt>
      <trkpt lat="43.17306" lon="5.8469">
        <ele>322.79998779297</ele>
        <time>2016-04-12T13:32:08.000Z</time>
      </trkpt>
      <trkpt lat="43.17349" lon="5.84698">
        <ele>322.39999389648</ele>
        <time>2016-04-12T13:32:16.000Z</time>
      </trkpt>
      <trkpt lat="43.17382" lon="5.84704">
        <ele>320.20001220703</ele>
        <time>2016-04-12T13:32:21.000Z</time>
      </trkpt>
      <trkpt lat="43.17396" lon="5.84704">
        <ele>319</ele>
        <time>2016-04-12T13:32:23.000Z</time>
      </trkpt>
      <trkpt lat="43.1741" lon="5.84705">
        <ele>318</ele>
        <time>2016-04-12T13:32:25.000Z</time>
      </trkpt>
      <trkpt lat="43.17433" lon="5.84708">
        <ele>315.60000610352</ele>
        <time>2016-04-12T13:32:28.000Z</time>
      </trkpt>
      <trkpt lat="43.17441" lon="5.8471">
        <ele>314.39999389648</ele>
        <time>2016-04-12T13:32:29.000Z</time>
      </trkpt>
      <trkpt lat="43.17458" lon="5.84717">
        <ele>312.39999389648</ele>
        <time>2016-04-12T13:32:31.000Z</time>
      </trkpt>
      <trkpt lat="43.17472" lon="5.84728">
        <ele>311</ele>
        <time>2016-04-12T13:32:33.000Z</time>
      </trkpt>
      <trkpt lat="43.17479" lon="5.84734">
        <ele>310.20001220703</ele>
        <time>2016-04-12T13:32:34.000Z</time>
      </trkpt>
      <trkpt lat="43.17485" lon="5.84742">
        <ele>309.79998779297</ele>
        <time>2016-04-12T13:32:35.000Z</time>
      </trkpt>
      <trkpt lat="43.17493" lon="5.84763">
        <ele>310</ele>
        <time>2016-04-12T13:32:37.000Z</time>
      </trkpt>
      <trkpt lat="43.17494" lon="5.84775">
        <ele>310.60000610352</ele>
        <time>2016-04-12T13:32:38.000Z</time>
      </trkpt>
      <trkpt lat="43.17494" lon="5.84798">
        <ele>311.79998779297</ele>
        <time>2016-04-12T13:32:40.000Z</time>
      </trkpt>
      <trkpt lat="43.17494" lon="5.84809">
        <ele>312.20001220703</ele>
        <time>2016-04-12T13:32:41.000Z</time>
      </trkpt>
      <trkpt lat="43.17495" lon="5.84833">
        <ele>312.20001220703</ele>
        <time>2016-04-12T13:32:43.000Z</time>
      </trkpt>
      <trkpt lat="43.17501" lon="5.84857">
        <ele>311.79998779297</ele>
        <time>2016-04-12T13:32:45.000Z</time>
      </trkpt>
      <trkpt lat="43.17513" lon="5.84882">
        <ele>310.79998779297</ele>
        <time>2016-04-12T13:32:47.000Z</time>
      </trkpt>
      <trkpt lat="43.1752" lon="5.84895">
        <ele>310.20001220703</ele>
        <time>2016-04-12T13:32:48.000Z</time>
      </trkpt>
      <trkpt lat="43.17526" lon="5.84906">
        <ele>310</ele>
        <time>2016-04-12T13:32:49.000Z</time>
      </trkpt>
      <trkpt lat="43.1754" lon="5.84927">
        <ele>309.79998779297</ele>
        <time>2016-04-12T13:32:51.000Z</time>
      </trkpt>
      <trkpt lat="43.17554" lon="5.84948">
        <ele>309.39999389648</ele>
        <time>2016-04-12T13:32:53.000Z</time>
      </trkpt>
      <trkpt lat="43.17561" lon="5.84958">
        <ele>309.20001220703</ele>
        <time>2016-04-12T13:32:54.000Z</time>
      </trkpt>
      <trkpt lat="43.17568" lon="5.84968">
        <ele>309</ele>
        <time>2016-04-12T13:32:55.000Z</time>
      </trkpt>
      <trkpt lat="43.17583" lon="5.84985">
        <ele>308.60000610352</ele>
        <time>2016-04-12T13:32:57.000Z</time>
      </trkpt>
      <trkpt lat="43.17598" lon="5.85002">
        <ele>308</ele>
        <time>2016-04-12T13:32:59.000Z</time>
      </trkpt>
      <trkpt lat="43.17606" lon="5.8501">
        <ele>307.60000610352</ele>
        <time>2016-04-12T13:33:00.000Z</time>
      </trkpt>
      <trkpt lat="43.17614" lon="5.85017">
        <ele>307.20001220703</ele>
        <time>2016-04-12T13:33:01.000Z</time>
      </trkpt>
      <trkpt lat="43.17629" lon="5.85032">
        <ele>306.39999389648</ele>
        <time>2016-04-12T13:33:03.000Z</time>
      </trkpt>
      <trkpt lat="43.17643" lon="5.85049">
        <ele>306</ele>
        <time>2016-04-12T13:33:05.000Z</time>
      </trkpt>
      <trkpt lat="43.1765" lon="5.85057">
        <ele>305.79998779297</ele>
        <time>2016-04-12T13:33:06.000Z</time>
      </trkpt>
      <trkpt lat="43.17658" lon="5.85064">
        <ele>305.60000610352</ele>
        <time>2016-04-12T13:33:07.000Z</time>
      </trkpt>
      <trkpt lat="43.17665" lon="5.8507">
        <ele>305.20001220703</ele>
        <time>2016-04-12T13:33:08.000Z</time>
      </trkpt>
      <trkpt lat="43.17672" lon="5.85073">
        <ele>304.39999389648</ele>
        <time>2016-04-12T13:33:09.000Z</time>
      </trkpt>
      <trkpt lat="43.17686" lon="5.85066">
        <ele>301</ele>
        <time>2016-04-12T13:33:11.000Z</time>
      </trkpt>
      <trkpt lat="43.17694" lon="5.85048">
        <ele>298.39999389648</ele>
        <time>2016-04-12T13:33:13.000Z</time>
      </trkpt>
      <trkpt lat="43.17697" lon="5.85021">
        <ele>294.39999389648</ele>
        <time>2016-04-12T13:33:15.000Z</time>
      </trkpt>
      <trkpt lat="43.17696" lon="5.85008">
        <ele>292.60000610352</ele>
        <time>2016-04-12T13:33:16.000Z</time>
      </trkpt>
      <trkpt lat="43.17694" lon="5.84996">
        <ele>291</ele>
        <time>2016-04-12T13:33:17.000Z</time>
      </trkpt>
      <trkpt lat="43.17688" lon="5.84988">
        <ele>290.39999389648</ele>
        <time>2016-04-12T13:33:18.000Z</time>
      </trkpt>
      <trkpt lat="43.17684" lon="5.8498">
        <ele>289.60000610352</ele>
        <time>2016-04-12T13:33:19.000Z</time>
      </trkpt>
      <trkpt lat="43.17682" lon="5.84965">
        <ele>288.60000610352</ele>
        <time>2016-04-12T13:33:21.000Z</time>
      </trkpt>
      <trkpt lat="43.17683" lon="5.84958">
        <ele>288.39999389648</ele>
        <time>2016-04-12T13:33:22.000Z</time>
      </trkpt>
      <trkpt lat="43.17687" lon="5.84953">
        <ele>288</ele>
        <time>2016-04-12T13:33:23.000Z</time>
      </trkpt>
      <trkpt lat="43.17692" lon="5.84947">
        <ele>287.60000610352</ele>
        <time>2016-04-12T13:33:24.000Z</time>
      </trkpt>
      <trkpt lat="43.17698" lon="5.84942">
        <ele>287</ele>
        <time>2016-04-12T13:33:25.000Z</time>
      </trkpt>
      <trkpt lat="43.17712" lon="5.84934">
        <ele>286</ele>
        <time>2016-04-12T13:33:27.000Z</time>
      </trkpt>
      <trkpt lat="43.1772" lon="5.84933">
        <ele>285.39999389648</ele>
        <time>2016-04-12T13:33:28.000Z</time>
      </trkpt>
      <trkpt lat="43.17729" lon="5.84934">
        <ele>284</ele>
        <time>2016-04-12T13:33:29.000Z</time>
      </trkpt>
      <trkpt lat="43.17747" lon="5.84946">
        <ele>282.20001220703</ele>
        <time>2016-04-12T13:33:31.000Z</time>
      </trkpt>
      <trkpt lat="43.17765" lon="5.84963">
        <ele>281.39999389648</ele>
        <time>2016-04-12T13:33:33.000Z</time>
      </trkpt>
      <trkpt lat="43.17784" lon="5.84979">
        <ele>280.79998779297</ele>
        <time>2016-04-12T13:33:35.000Z</time>
      </trkpt>
      <trkpt lat="43.17802" lon="5.84996">
        <ele>280.39999389648</ele>
        <time>2016-04-12T13:33:37.000Z</time>
      </trkpt>
      <trkpt lat="43.17819" lon="5.85012">
        <ele>280.20001220703</ele>
        <time>2016-04-12T13:33:39.000Z</time>
      </trkpt>
      <trkpt lat="43.17826" lon="5.85017">
        <ele>279.60000610352</ele>
        <time>2016-04-12T13:33:40.000Z</time>
      </trkpt>
      <trkpt lat="43.17833" lon="5.85021">
        <ele>279</ele>
        <time>2016-04-12T13:33:41.000Z</time>
      </trkpt>
      <trkpt lat="43.17839" lon="5.85023">
        <ele>278.20001220703</ele>
        <time>2016-04-12T13:33:42.000Z</time>
      </trkpt>
      <trkpt lat="43.17844" lon="5.85022">
        <ele>277</ele>
        <time>2016-04-12T13:33:43.000Z</time>
      </trkpt>
      <trkpt lat="43.17849" lon="5.85018">
        <ele>275.39999389648</ele>
        <time>2016-04-12T13:33:44.000Z</time>
      </trkpt>
      <trkpt lat="43.17852" lon="5.85011">
        <ele>273.79998779297</ele>
        <time>2016-04-12T13:33:45.000Z</time>
      </trkpt>
      <trkpt lat="43.17855" lon="5.85004">
        <ele>272.20001220703</ele>
        <time>2016-04-12T13:33:46.000Z</time>
      </trkpt>
      <trkpt lat="43.17855" lon="5.84988">
        <ele>269.20001220703</ele>
        <time>2016-04-12T13:33:48.000Z</time>
      </trkpt>
      <trkpt lat="43.17852" lon="5.84981">
        <ele>268.39999389648</ele>
        <time>2016-04-12T13:33:49.000Z</time>
      </trkpt>
      <trkpt lat="43.17845" lon="5.84967">
        <ele>268</ele>
        <time>2016-04-12T13:33:51.000Z</time>
      </trkpt>
      <trkpt lat="43.17837" lon="5.84954">
        <ele>267.79998779297</ele>
        <time>2016-04-12T13:33:53.000Z</time>
      </trkpt>
      <trkpt lat="43.1782" lon="5.84931">
        <ele>267.79998779297</ele>
        <time>2016-04-12T13:33:57.000Z</time>
      </trkpt>
      <trkpt lat="43.17794" lon="5.84897">
        <ele>267.79998779297</ele>
        <time>2016-04-12T13:34:03.000Z</time>
      </trkpt>
      <trkpt lat="43.17776" lon="5.84875">
        <ele>267.79998779297</ele>
        <time>2016-04-12T13:34:07.000Z</time>
      </trkpt>
      <trkpt lat="43.17762" lon="5.84856">
        <ele>268</ele>
        <time>2016-04-12T13:34:10.000Z</time>
      </trkpt>
      <trkpt lat="43.17748" lon="5.84836">
        <ele>269.60000610352</ele>
        <time>2016-04-12T13:34:13.000Z</time>
      </trkpt>
      <trkpt lat="43.17719" lon="5.84796">
        <ele>271.20001220703</ele>
        <time>2016-04-12T13:34:19.000Z</time>
      </trkpt>
      <trkpt lat="43.17702" lon="5.84769">
        <ele>267.39999389648</ele>
        <time>2016-04-12T13:34:22.000Z</time>
      </trkpt>
      <trkpt lat="43.1769" lon="5.84749">
        <ele>264.39999389648</ele>
        <time>2016-04-12T13:34:24.000Z</time>
      </trkpt>
      <trkpt lat="43.17679" lon="5.84727">
        <ele>260.79998779297</ele>
        <time>2016-04-12T13:34:26.000Z</time>
      </trkpt>
      <trkpt lat="43.17668" lon="5.84699">
        <ele>260</ele>
        <time>2016-04-12T13:34:28.000Z</time>
      </trkpt>
      <trkpt lat="43.17658" lon="5.84669">
        <ele>260</ele>
        <time>2016-04-12T13:34:30.000Z</time>
      </trkpt>
      <trkpt lat="43.17646" lon="5.84639">
        <ele>260</ele>
        <time>2016-04-12T13:34:32.000Z</time>
      </trkpt>
      <trkpt lat="43.17635" lon="5.84609">
        <ele>253.19999694824</ele>
        <time>2016-04-12T13:34:34.000Z</time>
      </trkpt>
      <trkpt lat="43.17628" lon="5.84576">
        <ele>249.60000610352</ele>
        <time>2016-04-12T13:34:36.000Z</time>
      </trkpt>
      <trkpt lat="43.17625" lon="5.84561">
        <ele>249.39999389648</ele>
        <time>2016-04-12T13:34:37.000Z</time>
      </trkpt>
      <trkpt lat="43.17621" lon="5.84546">
        <ele>247.60000610352</ele>
        <time>2016-04-12T13:34:38.000Z</time>
      </trkpt>
      <trkpt lat="43.17616" lon="5.84531">
        <ele>245</ele>
        <time>2016-04-12T13:34:39.000Z</time>
      </trkpt>
      <trkpt lat="43.1761" lon="5.84517">
        <ele>242</ele>
        <time>2016-04-12T13:34:40.000Z</time>
      </trkpt>
      <trkpt lat="43.17602" lon="5.84503">
        <ele>239</ele>
        <time>2016-04-12T13:34:41.000Z</time>
      </trkpt>
      <trkpt lat="43.17596" lon="5.84489">
        <ele>236</ele>
        <time>2016-04-12T13:34:42.000Z</time>
      </trkpt>
      <trkpt lat="43.17588" lon="5.84475">
        <ele>235</ele>
        <time>2016-04-12T13:34:43.000Z</time>
      </trkpt>
      <trkpt lat="43.17581" lon="5.84462">
        <ele>233.19999694824</ele>
        <time>2016-04-12T13:34:44.000Z</time>
      </trkpt>
      <trkpt lat="43.17572" lon="5.8445">
        <ele>231.60000610352</ele>
        <time>2016-04-12T13:34:45.000Z</time>
      </trkpt>
      <trkpt lat="43.17563" lon="5.84439">
        <ele>230.60000610352</ele>
        <time>2016-04-12T13:34:46.000Z</time>
      </trkpt>
      <trkpt lat="43.17555" lon="5.84428">
        <ele>229.80000305176</ele>
        <time>2016-04-12T13:34:47.000Z</time>
      </trkpt>
      <trkpt lat="43.17547" lon="5.84417">
        <ele>229</ele>
        <time>2016-04-12T13:34:48.000Z</time>
      </trkpt>
      <trkpt lat="43.17539" lon="5.84405">
        <ele>228.39999389648</ele>
        <time>2016-04-12T13:34:49.000Z</time>
      </trkpt>
      <trkpt lat="43.17531" lon="5.84392">
        <ele>227.80000305176</ele>
        <time>2016-04-12T13:34:50.000Z</time>
      </trkpt>
      <trkpt lat="43.17526" lon="5.84377">
        <ele>224.80000305176</ele>
        <time>2016-04-12T13:34:51.000Z</time>
      </trkpt>
      <trkpt lat="43.17521" lon="5.84362">
        <ele>221.19999694824</ele>
        <time>2016-04-12T13:34:52.000Z</time>
      </trkpt>
      <trkpt lat="43.17516" lon="5.84346">
        <ele>217.39999389648</ele>
        <time>2016-04-12T13:34:53.000Z</time>
      </trkpt>
      <trkpt lat="43.17511" lon="5.8433">
        <ele>213.80000305176</ele>
        <time>2016-04-12T13:34:54.000Z</time>
      </trkpt>
      <trkpt lat="43.17505" lon="5.84314">
        <ele>213</ele>
        <time>2016-04-12T13:34:55.000Z</time>
      </trkpt>
      <trkpt lat="43.17501" lon="5.84296">
        <ele>210.60000610352</ele>
        <time>2016-04-12T13:34:56.000Z</time>
      </trkpt>
      <trkpt lat="43.17499" lon="5.84278">
        <ele>210.19999694824</ele>
        <time>2016-04-12T13:34:57.000Z</time>
      </trkpt>
      <trkpt lat="43.17497" lon="5.84259">
        <ele>209.80000305176</ele>
        <time>2016-04-12T13:34:58.000Z</time>
      </trkpt>
      <trkpt lat="43.17496" lon="5.84241">
        <ele>209.39999389648</ele>
        <time>2016-04-12T13:34:59.000Z</time>
      </trkpt>
      <trkpt lat="43.17495" lon="5.84223">
        <ele>208.80000305176</ele>
        <time>2016-04-12T13:35:00.000Z</time>
      </trkpt>
      <trkpt lat="43.17495" lon="5.84205">
        <ele>206.19999694824</ele>
        <time>2016-04-12T13:35:01.000Z</time>
      </trkpt>
      <trkpt lat="43.17495" lon="5.84189">
        <ele>207.39999389648</ele>
        <time>2016-04-12T13:35:02.000Z</time>
      </trkpt>
      <trkpt lat="43.17493" lon="5.84158">
        <ele>209.60000610352</ele>
        <time>2016-04-12T13:35:04.000Z</time>
      </trkpt>
      <trkpt lat="43.17489" lon="5.84144">
        <ele>210.39999389648</ele>
        <time>2016-04-12T13:35:05.000Z</time>
      </trkpt>
      <trkpt lat="43.17483" lon="5.84131">
        <ele>209.39999389648</ele>
        <time>2016-04-12T13:35:06.000Z</time>
      </trkpt>
      <trkpt lat="43.17476" lon="5.84119">
        <ele>207.39999389648</ele>
        <time>2016-04-12T13:35:07.000Z</time>
      </trkpt>
      <trkpt lat="43.17459" lon="5.84095">
        <ele>203.60000610352</ele>
        <time>2016-04-12T13:35:09.000Z</time>
      </trkpt>
      <trkpt lat="43.17442" lon="5.84073">
        <ele>199.80000305176</ele>
        <time>2016-04-12T13:35:11.000Z</time>
      </trkpt>
      <trkpt lat="43.17426" lon="5.84048">
        <ele>197</ele>
        <time>2016-04-12T13:35:13.000Z</time>
      </trkpt>
      <trkpt lat="43.1742" lon="5.84034">
        <ele>197.19999694824</ele>
        <time>2016-04-12T13:35:14.000Z</time>
      </trkpt>
      <trkpt lat="43.17414" lon="5.84019">
        <ele>197.19999694824</ele>
        <time>2016-04-12T13:35:15.000Z</time>
      </trkpt>
      <trkpt lat="43.17408" lon="5.84005">
        <ele>197.39999389648</ele>
        <time>2016-04-12T13:35:16.000Z</time>
      </trkpt>
      <trkpt lat="43.17402" lon="5.83991">
        <ele>197.39999389648</ele>
        <time>2016-04-12T13:35:17.000Z</time>
      </trkpt>
      <trkpt lat="43.17396" lon="5.83976">
        <ele>197.60000610352</ele>
        <time>2016-04-12T13:35:18.000Z</time>
      </trkpt>
      <trkpt lat="43.17391" lon="5.83962">
        <ele>194.80000305176</ele>
        <time>2016-04-12T13:35:19.000Z</time>
      </trkpt>
      <trkpt lat="43.17387" lon="5.83947">
        <ele>191</ele>
        <time>2016-04-12T13:35:20.000Z</time>
      </trkpt>
      <trkpt lat="43.17383" lon="5.83933">
        <ele>187.39999389648</ele>
        <time>2016-04-12T13:35:21.000Z</time>
      </trkpt>
      <trkpt lat="43.17381" lon="5.83919">
        <ele>185</ele>
        <time>2016-04-12T13:35:22.000Z</time>
      </trkpt>
      <trkpt lat="43.17379" lon="5.83892">
        <ele>184</ele>
        <time>2016-04-12T13:35:24.000Z</time>
      </trkpt>
      <trkpt lat="43.17379" lon="5.83879">
        <ele>183.80000305176</ele>
        <time>2016-04-12T13:35:25.000Z</time>
      </trkpt>
      <trkpt lat="43.17376" lon="5.83856">
        <ele>183</ele>
        <time>2016-04-12T13:35:27.000Z</time>
      </trkpt>
      <trkpt lat="43.17373" lon="5.83845">
        <ele>182.39999389648</ele>
        <time>2016-04-12T13:35:28.000Z</time>
      </trkpt>
      <trkpt lat="43.17365" lon="5.83826">
        <ele>180.39999389648</ele>
        <time>2016-04-12T13:35:30.000Z</time>
      </trkpt>
      <trkpt lat="43.1736" lon="5.83817">
        <ele>179.39999389648</ele>
        <time>2016-04-12T13:35:31.000Z</time>
      </trkpt>
      <trkpt lat="43.17355" lon="5.83809">
        <ele>178.19999694824</ele>
        <time>2016-04-12T13:35:32.000Z</time>
      </trkpt>
      <trkpt lat="43.1735" lon="5.83799">
        <ele>177.80000305176</ele>
        <time>2016-04-12T13:35:33.000Z</time>
      </trkpt>
      <trkpt lat="43.17338" lon="5.8378">
        <ele>178.60000610352</ele>
        <time>2016-04-12T13:35:35.000Z</time>
      </trkpt>
      <trkpt lat="43.1732" lon="5.83749">
        <ele>181</ele>
        <time>2016-04-12T13:35:38.000Z</time>
      </trkpt>
      <trkpt lat="43.17302" lon="5.83716">
        <ele>182</ele>
        <time>2016-04-12T13:35:41.000Z</time>
      </trkpt>
      <trkpt lat="43.17285" lon="5.83682">
        <ele>176.39999389648</ele>
        <time>2016-04-12T13:35:44.000Z</time>
      </trkpt>
      <trkpt lat="43.17276" lon="5.8366">
        <ele>172.80000305176</ele>
        <time>2016-04-12T13:35:46.000Z</time>
      </trkpt>
      <trkpt lat="43.17272" lon="5.83636">
        <ele>171.39999389648</ele>
        <time>2016-04-12T13:35:48.000Z</time>
      </trkpt>
      <trkpt lat="43.17271" lon="5.83624">
        <ele>171.39999389648</ele>
        <time>2016-04-12T13:35:49.000Z</time>
      </trkpt>
      <trkpt lat="43.17271" lon="5.83612">
        <ele>171.39999389648</ele>
        <time>2016-04-12T13:35:50.000Z</time>
      </trkpt>
      <trkpt lat="43.17273" lon="5.83587">
        <ele>171.80000305176</ele>
        <time>2016-04-12T13:35:52.000Z</time>
      </trkpt>
      <trkpt lat="43.17273" lon="5.83564">
        <ele>171.39999389648</ele>
        <time>2016-04-12T13:35:54.000Z</time>
      </trkpt>
      <trkpt lat="43.17271" lon="5.83554">
        <ele>170.39999389648</ele>
        <time>2016-04-12T13:35:55.000Z</time>
      </trkpt>
      <trkpt lat="43.17269" lon="5.83544">
        <ele>170.19999694824</ele>
        <time>2016-04-12T13:35:56.000Z</time>
      </trkpt>
      <trkpt lat="43.17265" lon="5.83535">
        <ele>170</ele>
        <time>2016-04-12T13:35:57.000Z</time>
      </trkpt>
      <trkpt lat="43.17259" lon="5.83518">
        <ele>169.80000305176</ele>
        <time>2016-04-12T13:35:59.000Z</time>
      </trkpt>
      <trkpt lat="43.17248" lon="5.83487">
        <ele>170.39999389648</ele>
        <time>2016-04-12T13:36:03.000Z</time>
      </trkpt>
      <trkpt lat="43.17236" lon="5.83443">
        <ele>168.60000610352</ele>
        <time>2016-04-12T13:36:09.000Z</time>
      </trkpt>
      <trkpt lat="43.17235" lon="5.83436">
        <ele>168</ele>
        <time>2016-04-12T13:36:10.000Z</time>
      </trkpt>
      <trkpt lat="43.17229" lon="5.83406">
        <ele>165.39999389648</ele>
        <time>2016-04-12T13:36:14.000Z</time>
      </trkpt>
      <trkpt lat="43.17226" lon="5.83389">
        <ele>164</ele>
        <time>2016-04-12T13:36:16.000Z</time>
      </trkpt>
      <trkpt lat="43.17221" lon="5.83361">
        <ele>162.60000610352</ele>
        <time>2016-04-12T13:36:19.000Z</time>
      </trkpt>
      <trkpt lat="43.17219" lon="5.83332">
        <ele>161.19999694824</ele>
        <time>2016-04-12T13:36:22.000Z</time>
      </trkpt>
      <trkpt lat="43.17219" lon="5.83323">
        <ele>160.60000610352</ele>
        <time>2016-04-12T13:36:23.000Z</time>
      </trkpt>
      <trkpt lat="43.1722" lon="5.83294">
        <ele>158.60000610352</ele>
        <time>2016-04-12T13:36:26.000Z</time>
      </trkpt>
      <trkpt lat="43.17224" lon="5.83265">
        <ele>156.19999694824</ele>
        <time>2016-04-12T13:36:29.000Z</time>
      </trkpt>
      <trkpt lat="43.17225" lon="5.83256">
        <ele>156</ele>
        <time>2016-04-12T13:36:30.000Z</time>
      </trkpt>
      <trkpt lat="43.1723" lon="5.83221">
        <ele>154.80000305176</ele>
        <time>2016-04-12T13:36:34.000Z</time>
      </trkpt>
      <trkpt lat="43.17232" lon="5.83214">
        <ele>154.60000610352</ele>
        <time>2016-04-12T13:36:35.000Z</time>
      </trkpt>
      <trkpt lat="43.17235" lon="5.83198">
        <ele>154.19999694824</ele>
        <time>2016-04-12T13:36:37.000Z</time>
      </trkpt>
      <trkpt lat="43.17235" lon="5.83181">
        <ele>153</ele>
        <time>2016-04-12T13:36:39.000Z</time>
      </trkpt>
      <trkpt lat="43.17232" lon="5.83164">
        <ele>151.80000305176</ele>
        <time>2016-04-12T13:36:41.000Z</time>
      </trkpt>
      <trkpt lat="43.17229" lon="5.83138">
        <ele>150</ele>
        <time>2016-04-12T13:36:44.000Z</time>
      </trkpt>
      <trkpt lat="43.17228" lon="5.83129">
        <ele>149.60000610352</ele>
        <time>2016-04-12T13:36:45.000Z</time>
      </trkpt>
      <trkpt lat="43.17227" lon="5.8312">
        <ele>149.39999389648</ele>
        <time>2016-04-12T13:36:46.000Z</time>
      </trkpt>
      <trkpt lat="43.17224" lon="5.83089">
        <ele>148.19999694824</ele>
        <time>2016-04-12T13:36:50.000Z</time>
      </trkpt>
      <trkpt lat="43.17223" lon="5.83083">
        <ele>148</ele>
        <time>2016-04-12T13:36:51.000Z</time>
      </trkpt>
      <trkpt lat="43.17222" lon="5.83071">
        <ele>147.60000610352</ele>
        <time>2016-04-12T13:36:53.000Z</time>
      </trkpt>
      <trkpt lat="43.17221" lon="5.83062">
        <ele>147.19999694824</ele>
        <time>2016-04-12T13:36:55.000Z</time>
      </trkpt>
      <trkpt lat="43.17221" lon="5.83058">
        <ele>147.19999694824</ele>
        <time>2016-04-12T13:36:56.000Z</time>
      </trkpt>
      <trkpt lat="43.1722" lon="5.83052">
        <ele>147</ele>
        <time>2016-04-12T13:36:58.000Z</time>
      </trkpt>
      <trkpt lat="43.1722" lon="5.83047">
        <ele>147.19999694824</ele>
        <time>2016-04-12T13:37:01.000Z</time>
      </trkpt>
      <trkpt lat="43.1722" lon="5.83043">
        <ele>147.19999694824</ele>
        <time>2016-04-12T13:37:27.000Z</time>
      </trkpt>
      <trkpt lat="43.17219" lon="5.83036">
        <ele>147.19999694824</ele>
        <time>2016-04-12T13:37:29.000Z</time>
      </trkpt>
      <trkpt lat="43.17219" lon="5.83015">
        <ele>147.39999389648</ele>
        <time>2016-04-12T13:37:34.000Z</time>
      </trkpt>
      <trkpt lat="43.1723" lon="5.83012">
        <ele>147.60000610352</ele>
        <time>2016-04-12T13:37:37.000Z</time>
      </trkpt>
      <trkpt lat="43.17233" lon="5.83011">
        <ele>147.80000305176</ele>
        <time>2016-04-12T13:37:38.000Z</time>
      </trkpt>
      <trkpt lat="43.1725" lon="5.83006">
        <ele>148</ele>
        <time>2016-04-12T13:37:43.000Z</time>
      </trkpt>
      <trkpt lat="43.17276" lon="5.83003">
        <ele>148</ele>
        <time>2016-04-12T13:37:50.000Z</time>
      </trkpt>
      <trkpt lat="43.17303" lon="5.8301">
        <ele>147.19999694824</ele>
        <time>2016-04-12T13:37:58.000Z</time>
      </trkpt>
      <trkpt lat="43.17323" lon="5.83015">
        <ele>146.80000305176</ele>
        <time>2016-04-12T13:38:04.000Z</time>
      </trkpt>
      <trkpt lat="43.17333" lon="5.83021">
        <ele>146.39999389648</ele>
        <time>2016-04-12T13:38:07.000Z</time>
      </trkpt>
      <trkpt lat="43.17335" lon="5.83025">
        <ele>146.19999694824</ele>
        <time>2016-04-12T13:38:08.000Z</time>
      </trkpt>
      <trkpt lat="43.17344" lon="5.8305">
        <ele>145.19999694824</ele>
        <time>2016-04-12T13:38:13.000Z</time>
      </trkpt>
      <trkpt lat="43.17359" lon="5.8309">
        <ele>146.39999389648</ele>
        <time>2016-04-12T13:38:21.000Z</time>
      </trkpt>
      <trkpt lat="43.17361" lon="5.83095">
        <ele>146.60000610352</ele>
        <time>2016-04-12T13:38:22.000Z</time>
      </trkpt>
      <trkpt lat="43.1738" lon="5.8314">
        <ele>148.39999389648</ele>
        <time>2016-04-12T13:38:31.000Z</time>
      </trkpt>
      <trkpt lat="43.17406" lon="5.83188">
        <ele>150.60000610352</ele>
        <time>2016-04-12T13:38:41.000Z</time>
      </trkpt>
      <trkpt lat="43.17419" lon="5.83203">
        <ele>151.19999694824</ele>
        <time>2016-04-12T13:38:45.000Z</time>
      </trkpt>
      <trkpt lat="43.17427" lon="5.83206">
        <ele>151.39999389648</ele>
        <time>2016-04-12T13:38:47.000Z</time>
      </trkpt>
      <trkpt lat="43.17435" lon="5.83208">
        <ele>151.60000610352</ele>
        <time>2016-04-12T13:38:49.000Z</time>
      </trkpt>
      <trkpt lat="43.17443" lon="5.83209">
        <ele>151.80000305176</ele>
        <time>2016-04-12T13:38:51.000Z</time>
      </trkpt>
      <trkpt lat="43.17457" lon="5.8321">
        <ele>152.19999694824</ele>
        <time>2016-04-12T13:38:54.000Z</time>
      </trkpt>
      <trkpt lat="43.175" lon="5.83218">
        <ele>153.60000610352</ele>
        <time>2016-04-12T13:39:04.000Z</time>
      </trkpt>
      <trkpt lat="43.17508" lon="5.83222">
        <ele>154</ele>
        <time>2016-04-12T13:39:06.000Z</time>
      </trkpt>
      <trkpt lat="43.17518" lon="5.83231">
        <ele>154.39999389648</ele>
        <time>2016-04-12T13:39:09.000Z</time>
      </trkpt>
      <trkpt lat="43.17537" lon="5.83255">
        <ele>155.39999389648</ele>
        <time>2016-04-12T13:39:16.000Z</time>
      </trkpt>
      <trkpt lat="43.17548" lon="5.8326">
        <ele>155.80000305176</ele>
        <time>2016-04-12T13:39:19.000Z</time>
      </trkpt>
      <trkpt lat="43.17556" lon="5.83263">
        <ele>156</ele>
        <time>2016-04-12T13:39:21.000Z</time>
      </trkpt>
      <trkpt lat="43.17559" lon="5.83266">
        <ele>156.19999694824</ele>
        <time>2016-04-12T13:39:22.000Z</time>
      </trkpt>
      <trkpt lat="43.17567" lon="5.83272">
        <ele>156.39999389648</ele>
        <time>2016-04-12T13:39:24.000Z</time>
      </trkpt>
      <trkpt lat="43.17575" lon="5.83277">
        <ele>156.80000305176</ele>
        <time>2016-04-12T13:39:26.000Z</time>
      </trkpt>
      <trkpt lat="43.17594" lon="5.83279">
        <ele>157</ele>
        <time>2016-04-12T13:39:30.000Z</time>
      </trkpt>
      <trkpt lat="43.17598" lon="5.83279">
        <ele>157</ele>
        <time>2016-04-12T13:39:31.000Z</time>
      </trkpt>
      <trkpt lat="43.17629" lon="5.83278">
        <ele>157.39999389648</ele>
        <time>2016-04-12T13:39:38.000Z</time>
      </trkpt>
      <trkpt lat="43.17638" lon="5.83278">
        <ele>157.60000610352</ele>
        <time>2016-04-12T13:39:40.000Z</time>
      </trkpt>
      <trkpt lat="43.17646" lon="5.8328">
        <ele>157.60000610352</ele>
        <time>2016-04-12T13:39:42.000Z</time>
      </trkpt>
      <trkpt lat="43.1765" lon="5.83281">
        <ele>157.80000305176</ele>
        <time>2016-04-12T13:39:43.000Z</time>
      </trkpt>
      <trkpt lat="43.17662" lon="5.83285">
        <ele>158.19999694824</ele>
        <time>2016-04-12T13:39:46.000Z</time>
      </trkpt>
      <trkpt lat="43.17666" lon="5.83286">
        <ele>158.60000610352</ele>
        <time>2016-04-12T13:39:47.000Z</time>
      </trkpt>
      <trkpt lat="43.17701" lon="5.83286">
        <ele>160</ele>
        <time>2016-04-12T13:39:54.000Z</time>
      </trkpt>
      <trkpt lat="43.17729" lon="5.83278">
        <ele>161.19999694824</ele>
        <time>2016-04-12T13:40:00.000Z</time>
      </trkpt>
      <trkpt lat="43.1775" lon="5.8327">
        <ele>161.80000305176</ele>
        <time>2016-04-12T13:40:05.000Z</time>
      </trkpt>
      <trkpt lat="43.17759" lon="5.83269">
        <ele>162</ele>
        <time>2016-04-12T13:40:07.000Z</time>
      </trkpt>
      <trkpt lat="43.17781" lon="5.8327">
        <ele>163.39999389648</ele>
        <time>2016-04-12T13:40:12.000Z</time>
      </trkpt>
      <trkpt lat="43.17803" lon="5.83273">
        <ele>165</ele>
        <time>2016-04-12T13:40:17.000Z</time>
      </trkpt>
      <trkpt lat="43.17808" lon="5.83274">
        <ele>165.39999389648</ele>
        <time>2016-04-12T13:40:18.000Z</time>
      </trkpt>
      <trkpt lat="43.17812" lon="5.83276">
        <ele>165.60000610352</ele>
        <time>2016-04-12T13:40:19.000Z</time>
      </trkpt>
      <trkpt lat="43.17831" lon="5.83288">
        <ele>167</ele>
        <time>2016-04-12T13:40:23.000Z</time>
      </trkpt>
      <trkpt lat="43.17845" lon="5.83298">
        <ele>168</ele>
        <time>2016-04-12T13:40:26.000Z</time>
      </trkpt>
      <trkpt lat="43.17857" lon="5.83312">
        <ele>168.60000610352</ele>
        <time>2016-04-12T13:40:29.000Z</time>
      </trkpt>
      <trkpt lat="43.17861" lon="5.83316">
        <ele>168.80000305176</ele>
        <time>2016-04-12T13:40:30.000Z</time>
      </trkpt>
      <trkpt lat="43.17887" lon="5.83336">
        <ele>169.80000305176</ele>
        <time>2016-04-12T13:40:36.000Z</time>
      </trkpt>
      <trkpt lat="43.17891" lon="5.83339">
        <ele>170</ele>
        <time>2016-04-12T13:40:37.000Z</time>
      </trkpt>
      <trkpt lat="43.17899" lon="5.83343">
        <ele>170.39999389648</ele>
        <time>2016-04-12T13:40:39.000Z</time>
      </trkpt>
      <trkpt lat="43.17919" lon="5.83351">
        <ele>171.19999694824</ele>
        <time>2016-04-12T13:40:44.000Z</time>
      </trkpt>
      <trkpt lat="43.17923" lon="5.83352">
        <ele>171.39999389648</ele>
        <time>2016-04-12T13:40:45.000Z</time>
      </trkpt>
      <trkpt lat="43.17938" lon="5.83353">
        <ele>171.80000305176</ele>
        <time>2016-04-12T13:40:48.000Z</time>
      </trkpt>
      <trkpt lat="43.1795" lon="5.83354">
        <ele>172.19999694824</ele>
        <time>2016-04-12T13:40:51.000Z</time>
      </trkpt>
      <trkpt lat="43.17962" lon="5.83361">
        <ele>172.39999389648</ele>
        <time>2016-04-12T13:40:54.000Z</time>
      </trkpt>
      <trkpt lat="43.17969" lon="5.83367">
        <ele>172.80000305176</ele>
        <time>2016-04-12T13:40:56.000Z</time>
      </trkpt>
      <trkpt lat="43.17977" lon="5.83372">
        <ele>173</ele>
        <time>2016-04-12T13:40:58.000Z</time>
      </trkpt>
      <trkpt lat="43.1798" lon="5.83373">
        <ele>173</ele>
        <time>2016-04-12T13:40:59.000Z</time>
      </trkpt>
      <trkpt lat="43.17988" lon="5.83373">
        <ele>173.19999694824</ele>
        <time>2016-04-12T13:41:01.000Z</time>
      </trkpt>
      <trkpt lat="43.17992" lon="5.83373">
        <ele>173.39999389648</ele>
        <time>2016-04-12T13:41:02.000Z</time>
      </trkpt>
      <trkpt lat="43.18003" lon="5.83372">
        <ele>174.19999694824</ele>
        <time>2016-04-12T13:41:05.000Z</time>
      </trkpt>
      <trkpt lat="43.18015" lon="5.8337">
        <ele>175.80000305176</ele>
        <time>2016-04-12T13:41:08.000Z</time>
      </trkpt>
      <trkpt lat="43.1802" lon="5.8337">
        <ele>176.19999694824</ele>
        <time>2016-04-12T13:41:09.000Z</time>
      </trkpt>
      <trkpt lat="43.18028" lon="5.83369">
        <ele>177.19999694824</ele>
        <time>2016-04-12T13:41:11.000Z</time>
      </trkpt>
      <trkpt lat="43.1804" lon="5.8337">
        <ele>178.39999389648</ele>
        <time>2016-04-12T13:41:14.000Z</time>
      </trkpt>
      <trkpt lat="43.18044" lon="5.8337">
        <ele>178.80000305176</ele>
        <time>2016-04-12T13:41:15.000Z</time>
      </trkpt>
      <trkpt lat="43.18052" lon="5.83371">
        <ele>179.60000610352</ele>
        <time>2016-04-12T13:41:17.000Z</time>
      </trkpt>
      <trkpt lat="43.18071" lon="5.83374">
        <ele>181.60000610352</ele>
        <time>2016-04-12T13:41:21.000Z</time>
      </trkpt>
      <trkpt lat="43.18076" lon="5.83375">
        <ele>182</ele>
        <time>2016-04-12T13:41:22.000Z</time>
      </trkpt>
      <trkpt lat="43.1808" lon="5.83377">
        <ele>182.19999694824</ele>
        <time>2016-04-12T13:41:23.000Z</time>
      </trkpt>
      <trkpt lat="43.18089" lon="5.83383">
        <ele>182.80000305176</ele>
        <time>2016-04-12T13:41:25.000Z</time>
      </trkpt>
      <trkpt lat="43.18096" lon="5.83391">
        <ele>183</ele>
        <time>2016-04-12T13:41:27.000Z</time>
      </trkpt>
      <trkpt lat="43.18099" lon="5.83396">
        <ele>183.19999694824</ele>
        <time>2016-04-12T13:41:28.000Z</time>
      </trkpt>
      <trkpt lat="43.18101" lon="5.83399">
        <ele>183.19999694824</ele>
        <time>2016-04-12T13:41:29.000Z</time>
      </trkpt>
      <trkpt lat="43.18104" lon="5.83403">
        <ele>183.19999694824</ele>
        <time>2016-04-12T13:41:30.000Z</time>
      </trkpt>
      <trkpt lat="43.18111" lon="5.83408">
        <ele>183.80000305176</ele>
        <time>2016-04-12T13:41:32.000Z</time>
      </trkpt>
      <trkpt lat="43.18114" lon="5.8341">
        <ele>184.19999694824</ele>
        <time>2016-04-12T13:41:33.000Z</time>
      </trkpt>
      <trkpt lat="43.18123" lon="5.83413">
        <ele>184.80000305176</ele>
        <time>2016-04-12T13:41:35.000Z</time>
      </trkpt>
      <trkpt lat="43.18135" lon="5.83415">
        <ele>186</ele>
        <time>2016-04-12T13:41:38.000Z</time>
      </trkpt>
      <trkpt lat="43.18139" lon="5.83415">
        <ele>186.60000610352</ele>
        <time>2016-04-12T13:41:39.000Z</time>
      </trkpt>
      <trkpt lat="43.18155" lon="5.83419">
        <ele>188</ele>
        <time>2016-04-12T13:41:43.000Z</time>
      </trkpt>
      <trkpt lat="43.18163" lon="5.83422">
        <ele>188.80000305176</ele>
        <time>2016-04-12T13:41:45.000Z</time>
      </trkpt>
      <trkpt lat="43.18178" lon="5.83427">
        <ele>190.19999694824</ele>
        <time>2016-04-12T13:41:49.000Z</time>
      </trkpt>
      <trkpt lat="43.18188" lon="5.83434">
        <ele>191</ele>
        <time>2016-04-12T13:41:52.000Z</time>
      </trkpt>
      <trkpt lat="43.18194" lon="5.83447">
        <ele>191</ele>
        <time>2016-04-12T13:41:55.000Z</time>
      </trkpt>
      <trkpt lat="43.18198" lon="5.83457">
        <ele>191.19999694824</ele>
        <time>2016-04-12T13:41:57.000Z</time>
      </trkpt>
      <trkpt lat="43.182" lon="5.83461">
        <ele>191.19999694824</ele>
        <time>2016-04-12T13:41:58.000Z</time>
      </trkpt>
      <trkpt lat="43.18208" lon="5.83472">
        <ele>191.60000610352</ele>
        <time>2016-04-12T13:42:01.000Z</time>
      </trkpt>
      <trkpt lat="43.18217" lon="5.83483">
        <ele>192.19999694824</ele>
        <time>2016-04-12T13:42:04.000Z</time>
      </trkpt>
      <trkpt lat="43.18227" lon="5.83494">
        <ele>192.80000305176</ele>
        <time>2016-04-12T13:42:07.000Z</time>
      </trkpt>
      <trkpt lat="43.18243" lon="5.83511">
        <ele>194</ele>
        <time>2016-04-12T13:42:12.000Z</time>
      </trkpt>
      <trkpt lat="43.18253" lon="5.83518">
        <ele>194.80000305176</ele>
        <time>2016-04-12T13:42:15.000Z</time>
      </trkpt>
      <trkpt lat="43.18272" lon="5.83527">
        <ele>196.60000610352</ele>
        <time>2016-04-12T13:42:20.000Z</time>
      </trkpt>
      <trkpt lat="43.1831" lon="5.83543">
        <ele>199.80000305176</ele>
        <time>2016-04-12T13:42:30.000Z</time>
      </trkpt>
      <trkpt lat="43.18322" lon="5.83559">
        <ele>200.39999389648</ele>
        <time>2016-04-12T13:42:35.000Z</time>
      </trkpt>
      <trkpt lat="43.18324" lon="5.83562">
        <ele>200.39999389648</ele>
        <time>2016-04-12T13:42:36.000Z</time>
      </trkpt>
      <trkpt lat="43.18332" lon="5.83576">
        <ele>200.39999389648</ele>
        <time>2016-04-12T13:42:41.000Z</time>
      </trkpt>
      <trkpt lat="43.18344" lon="5.83567">
        <ele>202.19999694824</ele>
        <time>2016-04-12T13:42:45.000Z</time>
      </trkpt>
      <trkpt lat="43.18347" lon="5.83564">
        <ele>202.80000305176</ele>
        <time>2016-04-12T13:42:46.000Z</time>
      </trkpt>
      <trkpt lat="43.1835" lon="5.83559">
        <ele>203.39999389648</ele>
        <time>2016-04-12T13:42:47.000Z</time>
      </trkpt>
      <trkpt lat="43.1836" lon="5.83544">
        <ele>204</ele>
        <time>2016-04-12T13:42:50.000Z</time>
      </trkpt>
      <trkpt lat="43.1838" lon="5.83503">
        <ele>204.60000610352</ele>
        <time>2016-04-12T13:42:57.000Z</time>
      </trkpt>
      <trkpt lat="43.18392" lon="5.83483">
        <ele>204.80000305176</ele>
        <time>2016-04-12T13:43:01.000Z</time>
      </trkpt>
      <trkpt lat="43.184" lon="5.83476">
        <ele>205.19999694824</ele>
        <time>2016-04-12T13:43:03.000Z</time>
      </trkpt>
      <trkpt lat="43.18423" lon="5.83451">
        <ele>204.60000610352</ele>
        <time>2016-04-12T13:43:10.000Z</time>
      </trkpt>
      <trkpt lat="43.18424" lon="5.83431">
        <ele>202.80000305176</ele>
        <time>2016-04-12T13:43:13.000Z</time>
      </trkpt>
      <trkpt lat="43.18423" lon="5.83423">
        <ele>202</ele>
        <time>2016-04-12T13:43:14.000Z</time>
      </trkpt>
      <trkpt lat="43.18418" lon="5.8341">
        <ele>200.60000610352</ele>
        <time>2016-04-12T13:43:16.000Z</time>
      </trkpt>
      <trkpt lat="43.18416" lon="5.83403">
        <ele>199.80000305176</ele>
        <time>2016-04-12T13:43:17.000Z</time>
      </trkpt>
      <trkpt lat="43.18413" lon="5.83396">
        <ele>199</ele>
        <time>2016-04-12T13:43:18.000Z</time>
      </trkpt>
      <trkpt lat="43.18411" lon="5.83389">
        <ele>198.19999694824</ele>
        <time>2016-04-12T13:43:19.000Z</time>
      </trkpt>
      <trkpt lat="43.18403" lon="5.83367">
        <ele>196.80000305176</ele>
        <time>2016-04-12T13:43:22.000Z</time>
      </trkpt>
      <trkpt lat="43.18395" lon="5.83342">
        <ele>195.19999694824</ele>
        <time>2016-04-12T13:43:25.000Z</time>
      </trkpt>
      <trkpt lat="43.18387" lon="5.83317">
        <ele>193.60000610352</ele>
        <time>2016-04-12T13:43:28.000Z</time>
      </trkpt>
      <trkpt lat="43.18383" lon="5.83301">
        <ele>192.39999389648</ele>
        <time>2016-04-12T13:43:30.000Z</time>
      </trkpt>
      <trkpt lat="43.18378" lon="5.83279">
        <ele>190</ele>
        <time>2016-04-12T13:43:33.000Z</time>
      </trkpt>
      <trkpt lat="43.18378" lon="5.83271">
        <ele>189.19999694824</ele>
        <time>2016-04-12T13:43:34.000Z</time>
      </trkpt>
      <trkpt lat="43.18377" lon="5.83264">
        <ele>188.60000610352</ele>
        <time>2016-04-12T13:43:35.000Z</time>
      </trkpt>
      <trkpt lat="43.18378" lon="5.8325">
        <ele>187.19999694824</ele>
        <time>2016-04-12T13:43:37.000Z</time>
      </trkpt>
      <trkpt lat="43.18379" lon="5.83242">
        <ele>186.60000610352</ele>
        <time>2016-04-12T13:43:38.000Z</time>
      </trkpt>
      <trkpt lat="43.18387" lon="5.83208">
        <ele>184</ele>
        <time>2016-04-12T13:43:42.000Z</time>
      </trkpt>
      <trkpt lat="43.1839" lon="5.832">
        <ele>183.60000610352</ele>
        <time>2016-04-12T13:43:43.000Z</time>
      </trkpt>
      <trkpt lat="43.18395" lon="5.83194">
        <ele>183.39999389648</ele>
        <time>2016-04-12T13:43:44.000Z</time>
      </trkpt>
      <trkpt lat="43.18403" lon="5.83184">
        <ele>183.39999389648</ele>
        <time>2016-04-12T13:43:46.000Z</time>
      </trkpt>
      <trkpt lat="43.18412" lon="5.83179">
        <ele>183.80000305176</ele>
        <time>2016-04-12T13:43:48.000Z</time>
      </trkpt>
      <trkpt lat="43.18417" lon="5.83176">
        <ele>184</ele>
        <time>2016-04-12T13:43:49.000Z</time>
      </trkpt>
      <trkpt lat="43.18428" lon="5.8317">
        <ele>184.60000610352</ele>
        <time>2016-04-12T13:43:51.000Z</time>
      </trkpt>
      <trkpt lat="43.1844" lon="5.83164">
        <ele>184.80000305176</ele>
        <time>2016-04-12T13:43:53.000Z</time>
      </trkpt>
      <trkpt lat="43.18445" lon="5.83161">
        <ele>184.80000305176</ele>
        <time>2016-04-12T13:43:54.000Z</time>
      </trkpt>
      <trkpt lat="43.1845" lon="5.83156">
        <ele>184.80000305176</ele>
        <time>2016-04-12T13:43:55.000Z</time>
      </trkpt>
      <trkpt lat="43.1846" lon="5.83139">
        <ele>184.19999694824</ele>
        <time>2016-04-12T13:43:58.000Z</time>
      </trkpt>
      <trkpt lat="43.18461" lon="5.83131">
        <ele>183.80000305176</ele>
        <time>2016-04-12T13:43:59.000Z</time>
      </trkpt>
      <trkpt lat="43.18462" lon="5.83124">
        <ele>183.39999389648</ele>
        <time>2016-04-12T13:44:00.000Z</time>
      </trkpt>
      <trkpt lat="43.18465" lon="5.83118">
        <ele>183</ele>
        <time>2016-04-12T13:44:01.000Z</time>
      </trkpt>
      <trkpt lat="43.18468" lon="5.83113">
        <ele>183</ele>
        <time>2016-04-12T13:44:02.000Z</time>
      </trkpt>
      <trkpt lat="43.18481" lon="5.83106">
        <ele>183</ele>
        <time>2016-04-12T13:44:05.000Z</time>
      </trkpt>
      <trkpt lat="43.18485" lon="5.83103">
        <ele>183</ele>
        <time>2016-04-12T13:44:06.000Z</time>
      </trkpt>
      <trkpt lat="43.18487" lon="5.83098">
        <ele>182.80000305176</ele>
        <time>2016-04-12T13:44:07.000Z</time>
      </trkpt>
      <trkpt lat="43.18489" lon="5.83085">
        <ele>182.39999389648</ele>
        <time>2016-04-12T13:44:09.000Z</time>
      </trkpt>
      <trkpt lat="43.18488" lon="5.83054">
        <ele>180.80000305176</ele>
        <time>2016-04-12T13:44:13.000Z</time>
      </trkpt>
      <trkpt lat="43.18488" lon="5.83046">
        <ele>180.60000610352</ele>
        <time>2016-04-12T13:44:14.000Z</time>
      </trkpt>
      <trkpt lat="43.18488" lon="5.83033">
        <ele>180</ele>
        <time>2016-04-12T13:44:16.000Z</time>
      </trkpt>
      <trkpt lat="43.1849" lon="5.83027">
        <ele>179.80000305176</ele>
        <time>2016-04-12T13:44:17.000Z</time>
      </trkpt>
      <trkpt lat="43.18497" lon="5.83016">
        <ele>179.19999694824</ele>
        <time>2016-04-12T13:44:19.000Z</time>
      </trkpt>
      <trkpt lat="43.18504" lon="5.83003">
        <ele>178.60000610352</ele>
        <time>2016-04-12T13:44:21.000Z</time>
      </trkpt>
      <trkpt lat="43.18511" lon="5.82986">
        <ele>177.80000305176</ele>
        <time>2016-04-12T13:44:23.000Z</time>
      </trkpt>
      <trkpt lat="43.18517" lon="5.82966">
        <ele>177</ele>
        <time>2016-04-12T13:44:25.000Z</time>
      </trkpt>
      <trkpt lat="43.18518" lon="5.82926">
        <ele>175.60000610352</ele>
        <time>2016-04-12T13:44:29.000Z</time>
      </trkpt>
      <trkpt lat="43.1852" lon="5.82894">
        <ele>174.60000610352</ele>
        <time>2016-04-12T13:44:32.000Z</time>
      </trkpt>
      <trkpt lat="43.18524" lon="5.82862">
        <ele>174.19999694824</ele>
        <time>2016-04-12T13:44:35.000Z</time>
      </trkpt>
      <trkpt lat="43.18525" lon="5.82851">
        <ele>174</ele>
        <time>2016-04-12T13:44:36.000Z</time>
      </trkpt>
      <trkpt lat="43.18528" lon="5.82804">
        <ele>172.60000610352</ele>
        <time>2016-04-12T13:44:41.000Z</time>
      </trkpt>
      <trkpt lat="43.18533" lon="5.82778">
        <ele>171.39999389648</ele>
        <time>2016-04-12T13:44:44.000Z</time>
      </trkpt>
      <trkpt lat="43.18537" lon="5.82761">
        <ele>170.80000305176</ele>
        <time>2016-04-12T13:44:46.000Z</time>
      </trkpt>
      <trkpt lat="43.18539" lon="5.82752">
        <ele>170.39999389648</ele>
        <time>2016-04-12T13:44:47.000Z</time>
      </trkpt>
      <trkpt lat="43.18546" lon="5.82727">
        <ele>170.19999694824</ele>
        <time>2016-04-12T13:44:50.000Z</time>
      </trkpt>
      <trkpt lat="43.18558" lon="5.82694">
        <ele>170.39999389648</ele>
        <time>2016-04-12T13:44:54.000Z</time>
      </trkpt>
      <trkpt lat="43.18565" lon="5.82676">
        <ele>170.39999389648</ele>
        <time>2016-04-12T13:44:56.000Z</time>
      </trkpt>
      <trkpt lat="43.18582" lon="5.82633">
        <ele>170.60000610352</ele>
        <time>2016-04-12T13:45:01.000Z</time>
      </trkpt>
      <trkpt lat="43.18586" lon="5.82626">
        <ele>170.80000305176</ele>
        <time>2016-04-12T13:45:02.000Z</time>
      </trkpt>
      <trkpt lat="43.18606" lon="5.82587">
        <ele>170.60000610352</ele>
        <time>2016-04-12T13:45:08.000Z</time>
      </trkpt>
      <trkpt lat="43.1862" lon="5.82561">
        <ele>171</ele>
        <time>2016-04-12T13:45:13.000Z</time>
      </trkpt>
      <trkpt lat="43.18623" lon="5.8255">
        <ele>171.39999389648</ele>
        <time>2016-04-12T13:45:15.000Z</time>
      </trkpt>
      <trkpt lat="43.18628" lon="5.82535">
        <ele>171.60000610352</ele>
        <time>2016-04-12T13:45:18.000Z</time>
      </trkpt>
      <trkpt lat="43.18633" lon="5.82521">
        <ele>171.80000305176</ele>
        <time>2016-04-12T13:45:21.000Z</time>
      </trkpt>
      <trkpt lat="43.18635" lon="5.82516">
        <ele>172</ele>
        <time>2016-04-12T13:45:22.000Z</time>
      </trkpt>
      <trkpt lat="43.18646" lon="5.8248">
        <ele>172</ele>
        <time>2016-04-12T13:45:29.000Z</time>
      </trkpt>
      <trkpt lat="43.18658" lon="5.82441">
        <ele>171.80000305176</ele>
        <time>2016-04-12T13:45:35.000Z</time>
      </trkpt>
      <trkpt lat="43.18666" lon="5.82406">
        <ele>171.80000305176</ele>
        <time>2016-04-12T13:45:41.000Z</time>
      </trkpt>
      <trkpt lat="43.18676" lon="5.8236">
        <ele>171.19999694824</ele>
        <time>2016-04-12T13:45:50.000Z</time>
      </trkpt>
      <trkpt lat="43.18682" lon="5.82314">
        <ele>170.19999694824</ele>
        <time>2016-04-12T13:45:58.000Z</time>
      </trkpt>
      <trkpt lat="43.18683" lon="5.82264">
        <ele>170.60000610352</ele>
        <time>2016-04-12T13:46:06.000Z</time>
      </trkpt>
      <trkpt lat="43.18678" lon="5.82228">
        <ele>171</ele>
        <time>2016-04-12T13:46:12.000Z</time>
      </trkpt>
      <trkpt lat="43.18675" lon="5.82216">
        <ele>171</ele>
        <time>2016-04-12T13:46:14.000Z</time>
      </trkpt>
      <trkpt lat="43.18659" lon="5.82176">
        <ele>171.19999694824</ele>
        <time>2016-04-12T13:46:22.000Z</time>
      </trkpt>
      <trkpt lat="43.18646" lon="5.82143">
        <ele>171.39999389648</ele>
        <time>2016-04-12T13:46:29.000Z</time>
      </trkpt>
      <trkpt lat="43.18635" lon="5.82112">
        <ele>172.39999389648</ele>
        <time>2016-04-12T13:46:36.000Z</time>
      </trkpt>
      <trkpt lat="43.18639" lon="5.82084">
        <ele>173.19999694824</ele>
        <time>2016-04-12T13:46:42.000Z</time>
      </trkpt>
      <trkpt lat="43.18651" lon="5.82072">
        <ele>173.19999694824</ele>
        <time>2016-04-12T13:46:46.000Z</time>
      </trkpt>
      <trkpt lat="43.18657" lon="5.82067">
        <ele>173.19999694824</ele>
        <time>2016-04-12T13:46:50.000Z</time>
      </trkpt>
      <trkpt lat="43.18666" lon="5.82059">
        <ele>173.19999694824</ele>
        <time>2016-04-12T13:47:35.000Z</time>
      </trkpt>
      <trkpt lat="43.18678" lon="5.82049">
        <ele>173.19999694824</ele>
        <time>2016-04-12T13:47:38.000Z</time>
      </trkpt>
      <trkpt lat="43.18696" lon="5.82033">
        <ele>173</ele>
        <time>2016-04-12T13:47:42.000Z</time>
      </trkpt>
      <trkpt lat="43.18705" lon="5.82025">
        <ele>172.80000305176</ele>
        <time>2016-04-12T13:47:44.000Z</time>
      </trkpt>
      <trkpt lat="43.18741" lon="5.81996">
        <ele>171.60000610352</ele>
        <time>2016-04-12T13:47:53.000Z</time>
      </trkpt>
      <trkpt lat="43.18744" lon="5.81995">
        <ele>171.39999389648</ele>
        <time>2016-04-12T13:47:55.000Z</time>
      </trkpt>
      <trkpt lat="43.18746" lon="5.81995">
        <ele>171.39999389648</ele>
        <time>2016-04-12T13:47:56.000Z</time>
      </trkpt>
      <trkpt lat="43.18755" lon="5.82005">
        <ele>170.60000610352</ele>
        <time>2016-04-12T13:48:01.000Z</time>
      </trkpt>
      <trkpt lat="43.18757" lon="5.82008">
        <ele>170.39999389648</ele>
        <time>2016-04-12T13:48:02.000Z</time>
      </trkpt>
      <trkpt lat="43.18777" lon="5.82032">
        <ele>169.19999694824</ele>
        <time>2016-04-12T13:48:08.000Z</time>
      </trkpt>
      <trkpt lat="43.18805" lon="5.82063">
        <ele>167.80000305176</ele>
        <time>2016-04-12T13:48:15.000Z</time>
      </trkpt>
      <trkpt lat="43.18814" lon="5.82071">
        <ele>167.60000610352</ele>
        <time>2016-04-12T13:48:17.000Z</time>
      </trkpt>
      <trkpt lat="43.18836" lon="5.82093">
        <ele>166.80000305176</ele>
        <time>2016-04-12T13:48:22.000Z</time>
      </trkpt>
      <trkpt lat="43.18841" lon="5.82096">
        <ele>166.60000610352</ele>
        <time>2016-04-12T13:48:23.000Z</time>
      </trkpt>
      <trkpt lat="43.18851" lon="5.821">
        <ele>166.60000610352</ele>
        <time>2016-04-12T13:48:25.000Z</time>
      </trkpt>
      <trkpt lat="43.18878" lon="5.82106">
        <ele>166.80000305176</ele>
        <time>2016-04-12T13:48:30.000Z</time>
      </trkpt>
      <trkpt lat="43.18896" lon="5.82109">
        <ele>167</ele>
        <time>2016-04-12T13:48:33.000Z</time>
      </trkpt>
      <trkpt lat="43.1894" lon="5.82117">
        <ele>166.80000305176</ele>
        <time>2016-04-12T13:48:40.000Z</time>
      </trkpt>
      <trkpt lat="43.1896" lon="5.82118">
        <ele>166.60000610352</ele>
        <time>2016-04-12T13:48:43.000Z</time>
      </trkpt>
      <trkpt lat="43.18987" lon="5.8212">
        <ele>166.19999694824</ele>
        <time>2016-04-12T13:48:47.000Z</time>
      </trkpt>
      <trkpt lat="43.19028" lon="5.82113">
        <ele>166.60000610352</ele>
        <time>2016-04-12T13:48:53.000Z</time>
      </trkpt>
      <trkpt lat="43.19035" lon="5.8211">
        <ele>166.60000610352</ele>
        <time>2016-04-12T13:48:54.000Z</time>
      </trkpt>
      <trkpt lat="43.19064" lon="5.82092">
        <ele>166.39999389648</ele>
        <time>2016-04-12T13:48:59.000Z</time>
      </trkpt>
      <trkpt lat="43.19117" lon="5.8206">
        <ele>164.19999694824</ele>
        <time>2016-04-12T13:49:08.000Z</time>
      </trkpt>
      <trkpt lat="43.19124" lon="5.82057">
        <ele>164</ele>
        <time>2016-04-12T13:49:09.000Z</time>
      </trkpt>
      <trkpt lat="43.19129" lon="5.82056">
        <ele>164</ele>
        <time>2016-04-12T13:49:10.000Z</time>
      </trkpt>
      <trkpt lat="43.19142" lon="5.82056">
        <ele>164</ele>
        <time>2016-04-12T13:49:12.000Z</time>
      </trkpt>
      <trkpt lat="43.19148" lon="5.82055">
        <ele>164</ele>
        <time>2016-04-12T13:49:13.000Z</time>
      </trkpt>
      <trkpt lat="43.19153" lon="5.82052">
        <ele>164</ele>
        <time>2016-04-12T13:49:14.000Z</time>
      </trkpt>
      <trkpt lat="43.19162" lon="5.82043">
        <ele>164.39999389648</ele>
        <time>2016-04-12T13:49:16.000Z</time>
      </trkpt>
      <trkpt lat="43.19192" lon="5.82015">
        <ele>164</ele>
        <time>2016-04-12T13:49:22.000Z</time>
      </trkpt>
      <trkpt lat="43.19245" lon="5.8198">
        <ele>164.80000305176</ele>
        <time>2016-04-12T13:49:32.000Z</time>
      </trkpt>
      <trkpt lat="43.19251" lon="5.81976">
        <ele>164.80000305176</ele>
        <time>2016-04-12T13:49:33.000Z</time>
      </trkpt>
      <trkpt lat="43.19271" lon="5.81958">
        <ele>165</ele>
        <time>2016-04-12T13:49:38.000Z</time>
      </trkpt>
      <trkpt lat="43.1929" lon="5.81926">
        <ele>165</ele>
        <time>2016-04-12T13:49:44.000Z</time>
      </trkpt>
      <trkpt lat="43.19296" lon="5.81915">
        <ele>164.80000305176</ele>
        <time>2016-04-12T13:49:46.000Z</time>
      </trkpt>
      <trkpt lat="43.19309" lon="5.81881">
        <ele>164.19999694824</ele>
        <time>2016-04-12T13:49:51.000Z</time>
      </trkpt>
      <trkpt lat="43.19331" lon="5.81813">
        <ele>161.39999389648</ele>
        <time>2016-04-12T13:50:00.000Z</time>
      </trkpt>
      <trkpt lat="43.19351" lon="5.81751">
        <ele>161.80000305176</ele>
        <time>2016-04-12T13:50:08.000Z</time>
      </trkpt>
      <trkpt lat="43.19364" lon="5.81708">
        <ele>161.80000305176</ele>
        <time>2016-04-12T13:50:14.000Z</time>
      </trkpt>
      <trkpt lat="43.19369" lon="5.81705">
        <ele>161.80000305176</ele>
        <time>2016-04-12T13:50:15.000Z</time>
      </trkpt>
      <trkpt lat="43.19388" lon="5.81694">
        <ele>161.60000610352</ele>
        <time>2016-04-12T13:50:19.000Z</time>
      </trkpt>
      <trkpt lat="43.19392" lon="5.81691">
        <ele>161.60000610352</ele>
        <time>2016-04-12T13:50:20.000Z</time>
      </trkpt>
      <trkpt lat="43.19405" lon="5.81667">
        <ele>160.60000610352</ele>
        <time>2016-04-12T13:50:24.000Z</time>
      </trkpt>
      <trkpt lat="43.19432" lon="5.81625">
        <ele>158.80000305176</ele>
        <time>2016-04-12T13:50:31.000Z</time>
      </trkpt>
      <trkpt lat="43.19448" lon="5.81602">
        <ele>158.80000305176</ele>
        <time>2016-04-12T13:50:35.000Z</time>
      </trkpt>
      <trkpt lat="43.19465" lon="5.81581">
        <ele>158.80000305176</ele>
        <time>2016-04-12T13:50:39.000Z</time>
      </trkpt>
      <trkpt lat="43.19476" lon="5.81563">
        <ele>159.19999694824</ele>
        <time>2016-04-12T13:50:42.000Z</time>
      </trkpt>
      <trkpt lat="43.19479" lon="5.81549">
        <ele>159.39999389648</ele>
        <time>2016-04-12T13:50:44.000Z</time>
      </trkpt>
      <trkpt lat="43.1948" lon="5.81533">
        <ele>160</ele>
        <time>2016-04-12T13:50:46.000Z</time>
      </trkpt>
      <trkpt lat="43.1948" lon="5.81526">
        <ele>160.39999389648</ele>
        <time>2016-04-12T13:50:47.000Z</time>
      </trkpt>
      <trkpt lat="43.19481" lon="5.8151">
        <ele>160.39999389648</ele>
        <time>2016-04-12T13:50:49.000Z</time>
      </trkpt>
      <trkpt lat="43.19491" lon="5.81432">
        <ele>160.39999389648</ele>
        <time>2016-04-12T13:50:59.000Z</time>
      </trkpt>
      <trkpt lat="43.19507" lon="5.81409">
        <ele>160.80000305176</ele>
        <time>2016-04-12T13:51:03.000Z</time>
      </trkpt>
      <trkpt lat="43.19522" lon="5.81396">
        <ele>160.80000305176</ele>
        <time>2016-04-12T13:51:06.000Z</time>
      </trkpt>
      <trkpt lat="43.19533" lon="5.81391">
        <ele>160.39999389648</ele>
        <time>2016-04-12T13:51:08.000Z</time>
      </trkpt>
      <trkpt lat="43.19539" lon="5.81389">
        <ele>160.39999389648</ele>
        <time>2016-04-12T13:51:09.000Z</time>
      </trkpt>
      <trkpt lat="43.19572" lon="5.81366">
        <ele>159.60000610352</ele>
        <time>2016-04-12T13:51:15.000Z</time>
      </trkpt>
      <trkpt lat="43.19598" lon="5.81347">
        <ele>159</ele>
        <time>2016-04-12T13:51:20.000Z</time>
      </trkpt>
      <trkpt lat="43.19614" lon="5.81336">
        <ele>158.80000305176</ele>
        <time>2016-04-12T13:51:23.000Z</time>
      </trkpt>
      <trkpt lat="43.19643" lon="5.8131">
        <ele>157.80000305176</ele>
        <time>2016-04-12T13:51:29.000Z</time>
      </trkpt>
      <trkpt lat="43.19663" lon="5.81301">
        <ele>157.39999389648</ele>
        <time>2016-04-12T13:51:33.000Z</time>
      </trkpt>
      <trkpt lat="43.19668" lon="5.81301">
        <ele>157.39999389648</ele>
        <time>2016-04-12T13:51:34.000Z</time>
      </trkpt>
      <trkpt lat="43.1968" lon="5.81295">
        <ele>157</ele>
        <time>2016-04-12T13:51:38.000Z</time>
      </trkpt>
      <trkpt lat="43.19682" lon="5.81291">
        <ele>157</ele>
        <time>2016-04-12T13:51:39.000Z</time>
      </trkpt>
      <trkpt lat="43.19689" lon="5.81277">
        <ele>157.19999694824</ele>
        <time>2016-04-12T13:51:42.000Z</time>
      </trkpt>
      <trkpt lat="43.19695" lon="5.81267">
        <ele>157.19999694824</ele>
        <time>2016-04-12T13:51:44.000Z</time>
      </trkpt>
      <trkpt lat="43.1972" lon="5.81216">
        <ele>157</ele>
        <time>2016-04-12T13:51:53.000Z</time>
      </trkpt>
      <trkpt lat="43.19738" lon="5.81189">
        <ele>157.19999694824</ele>
        <time>2016-04-12T13:51:58.000Z</time>
      </trkpt>
      <trkpt lat="43.19747" lon="5.81181">
        <ele>156.80000305176</ele>
        <time>2016-04-12T13:52:00.000Z</time>
      </trkpt>
      <trkpt lat="43.19779" lon="5.81143">
        <ele>156.19999694824</ele>
        <time>2016-04-12T13:52:08.000Z</time>
      </trkpt>
      <trkpt lat="43.19804" lon="5.81102">
        <ele>155.60000610352</ele>
        <time>2016-04-12T13:52:16.000Z</time>
      </trkpt>
      <trkpt lat="43.19824" lon="5.81063">
        <ele>155</ele>
        <time>2016-04-12T13:52:23.000Z</time>
      </trkpt>
      <trkpt lat="43.1984" lon="5.81031">
        <ele>155.39999389648</ele>
        <time>2016-04-12T13:52:28.000Z</time>
      </trkpt>
      <trkpt lat="43.19848" lon="5.8102">
        <ele>155.60000610352</ele>
        <time>2016-04-12T13:52:30.000Z</time>
      </trkpt>
      <trkpt lat="43.1987" lon="5.80994">
        <ele>156.19999694824</ele>
        <time>2016-04-12T13:52:35.000Z</time>
      </trkpt>
      <trkpt lat="43.19873" lon="5.80987">
        <ele>155.80000305176</ele>
        <time>2016-04-12T13:52:36.000Z</time>
      </trkpt>
      <trkpt lat="43.1989" lon="5.80945">
        <ele>155</ele>
        <time>2016-04-12T13:52:42.000Z</time>
      </trkpt>
      <trkpt lat="43.19903" lon="5.8092">
        <ele>154.60000610352</ele>
        <time>2016-04-12T13:52:46.000Z</time>
      </trkpt>
      <trkpt lat="43.19913" lon="5.80916">
        <ele>154.39999389648</ele>
        <time>2016-04-12T13:52:48.000Z</time>
      </trkpt>
      <trkpt lat="43.19929" lon="5.8092">
        <ele>154</ele>
        <time>2016-04-12T13:52:51.000Z</time>
      </trkpt>
      <trkpt lat="43.19934" lon="5.80919">
        <ele>154.19999694824</ele>
        <time>2016-04-12T13:52:52.000Z</time>
      </trkpt>
      <trkpt lat="43.19943" lon="5.80914">
        <ele>154.60000610352</ele>
        <time>2016-04-12T13:52:54.000Z</time>
      </trkpt>
      <trkpt lat="43.19953" lon="5.80903">
        <ele>154.60000610352</ele>
        <time>2016-04-12T13:52:57.000Z</time>
      </trkpt>
      <trkpt lat="43.1996" lon="5.80896">
        <ele>154.60000610352</ele>
        <time>2016-04-12T13:52:59.000Z</time>
      </trkpt>
      <trkpt lat="43.19966" lon="5.8088">
        <ele>154.60000610352</ele>
        <time>2016-04-12T13:53:03.000Z</time>
      </trkpt>
      <trkpt lat="43.19965" lon="5.80875">
        <ele>154.80000305176</ele>
        <time>2016-04-12T13:53:04.000Z</time>
      </trkpt>
      <trkpt lat="43.19959" lon="5.80861">
        <ele>155</ele>
        <time>2016-04-12T13:53:07.000Z</time>
      </trkpt>
      <trkpt lat="43.19957" lon="5.80857">
        <ele>155.19999694824</ele>
        <time>2016-04-12T13:53:08.000Z</time>
      </trkpt>
      <trkpt lat="43.19935" lon="5.80826">
        <ele>155.60000610352</ele>
        <time>2016-04-12T13:53:15.000Z</time>
      </trkpt>
      <trkpt lat="43.19931" lon="5.80815">
        <ele>155.80000305176</ele>
        <time>2016-04-12T13:53:17.000Z</time>
      </trkpt>
      <trkpt lat="43.1993" lon="5.80809">
        <ele>156</ele>
        <time>2016-04-12T13:53:18.000Z</time>
      </trkpt>
      <trkpt lat="43.19924" lon="5.80785">
        <ele>156.60000610352</ele>
        <time>2016-04-12T13:53:22.000Z</time>
      </trkpt>
      <trkpt lat="43.19919" lon="5.80768">
        <ele>157.19999694824</ele>
        <time>2016-04-12T13:53:25.000Z</time>
      </trkpt>
      <trkpt lat="43.19917" lon="5.80762">
        <ele>157.39999389648</ele>
        <time>2016-04-12T13:53:26.000Z</time>
      </trkpt>
      <trkpt lat="43.19911" lon="5.80753">
        <ele>157.60000610352</ele>
        <time>2016-04-12T13:53:28.000Z</time>
      </trkpt>
      <trkpt lat="43.19907" lon="5.80749">
        <ele>157.80000305176</ele>
        <time>2016-04-12T13:53:29.000Z</time>
      </trkpt>
      <trkpt lat="43.19903" lon="5.80746">
        <ele>157.80000305176</ele>
        <time>2016-04-12T13:53:30.000Z</time>
      </trkpt>
      <trkpt lat="43.19883" lon="5.8073">
        <ele>158.19999694824</ele>
        <time>2016-04-12T13:53:35.000Z</time>
      </trkpt>
      <trkpt lat="43.19876" lon="5.80725">
        <ele>158.19999694824</ele>
        <time>2016-04-12T13:53:37.000Z</time>
      </trkpt>
      <trkpt lat="43.19856" lon="5.80706">
        <ele>158.60000610352</ele>
        <time>2016-04-12T13:53:43.000Z</time>
      </trkpt>
      <trkpt lat="43.1985" lon="5.807">
        <ele>158.60000610352</ele>
        <time>2016-04-12T13:53:45.000Z</time>
      </trkpt>
      <trkpt lat="43.19842" lon="5.80691">
        <ele>158.80000305176</ele>
        <time>2016-04-12T13:53:49.000Z</time>
      </trkpt>
      <trkpt lat="43.19843" lon="5.80688">
        <ele>158.80000305176</ele>
        <time>2016-04-12T13:53:50.000Z</time>
      </trkpt>
      <trkpt lat="43.19844" lon="5.80677">
        <ele>159.19999694824</ele>
        <time>2016-04-12T13:53:58.000Z</time>
      </trkpt>
      <trkpt lat="43.19843" lon="5.8067">
        <ele>159.39999389648</ele>
        <time>2016-04-12T13:54:12.000Z</time>
      </trkpt>
      <trkpt lat="43.19839" lon="5.80665">
        <ele>159.60000610352</ele>
        <time>2016-04-12T13:54:14.000Z</time>
      </trkpt>
      <trkpt lat="43.19822" lon="5.80652">
        <ele>160.80000305176</ele>
        <time>2016-04-12T13:54:19.000Z</time>
      </trkpt>
      <trkpt lat="43.19808" lon="5.80642">
        <ele>161.60000610352</ele>
        <time>2016-04-12T13:54:23.000Z</time>
      </trkpt>
      <trkpt lat="43.19804" lon="5.80635">
        <ele>162</ele>
        <time>2016-04-12T13:54:25.000Z</time>
      </trkpt>
      <trkpt lat="43.19806" lon="5.80617">
        <ele>162.19999694824</ele>
        <time>2016-04-12T13:54:30.000Z</time>
      </trkpt>
      <trkpt lat="43.19811" lon="5.80597">
        <ele>162.19999694824</ele>
        <time>2016-04-12T13:54:35.000Z</time>
      </trkpt>
      <trkpt lat="43.19812" lon="5.80593">
        <ele>162.19999694824</ele>
        <time>2016-04-12T13:54:36.000Z</time>
      </trkpt>
      <trkpt lat="43.1982" lon="5.8055">
        <ele>163</ele>
        <time>2016-04-12T13:54:44.000Z</time>
      </trkpt>
      <trkpt lat="43.19823" lon="5.8054">
        <ele>163.19999694824</ele>
        <time>2016-04-12T13:54:46.000Z</time>
      </trkpt>
      <trkpt lat="43.19827" lon="5.80516">
        <ele>164.39999389648</ele>
        <time>2016-04-12T13:54:51.000Z</time>
      </trkpt>
      <trkpt lat="43.19829" lon="5.80506">
        <ele>165</ele>
        <time>2016-04-12T13:54:53.000Z</time>
      </trkpt>
      <trkpt lat="43.1983" lon="5.80491">
        <ele>165.80000305176</ele>
        <time>2016-04-12T13:54:56.000Z</time>
      </trkpt>
      <trkpt lat="43.19838" lon="5.80472">
        <ele>167</ele>
        <time>2016-04-12T13:55:01.000Z</time>
      </trkpt>
      <trkpt lat="43.1984" lon="5.8047">
        <ele>167.19999694824</ele>
        <time>2016-04-12T13:55:02.000Z</time>
      </trkpt>
      <trkpt lat="43.19843" lon="5.80471">
        <ele>167.19999694824</ele>
        <time>2016-04-12T13:55:04.000Z</time>
      </trkpt>
      <trkpt lat="43.19845" lon="5.80471">
        <ele>167</ele>
        <time>2016-04-12T13:55:05.000Z</time>
      </trkpt>
      <trkpt lat="43.19847" lon="5.80472">
        <ele>167</ele>
        <time>2016-04-12T13:55:06.000Z</time>
      </trkpt>
      <trkpt lat="43.19854" lon="5.80476">
        <ele>166.60000610352</ele>
        <time>2016-04-12T13:55:08.000Z</time>
      </trkpt>
      <trkpt lat="43.19879" lon="5.80487">
        <ele>166</ele>
        <time>2016-04-12T13:55:14.000Z</time>
      </trkpt>
      <trkpt lat="43.19914" lon="5.80487">
        <ele>166</ele>
        <time>2016-04-12T13:55:21.000Z</time>
      </trkpt>
      <trkpt lat="43.19936" lon="5.80485">
        <ele>165.80000305176</ele>
        <time>2016-04-12T13:55:25.000Z</time>
      </trkpt>
      <trkpt lat="43.19946" lon="5.80488">
        <ele>165.39999389648</ele>
        <time>2016-04-12T13:55:27.000Z</time>
      </trkpt>
      <trkpt lat="43.19951" lon="5.8049">
        <ele>165</ele>
        <time>2016-04-12T13:55:28.000Z</time>
      </trkpt>
      <trkpt lat="43.19966" lon="5.80504">
        <ele>163.60000610352</ele>
        <time>2016-04-12T13:55:31.000Z</time>
      </trkpt>
      <trkpt lat="43.1998" lon="5.8052">
        <ele>162.19999694824</ele>
        <time>2016-04-12T13:55:34.000Z</time>
      </trkpt>
      <trkpt lat="43.1999" lon="5.80533">
        <ele>161</ele>
        <time>2016-04-12T13:55:36.000Z</time>
      </trkpt>
      <trkpt lat="43.19995" lon="5.8054">
        <ele>160.39999389648</ele>
        <time>2016-04-12T13:55:37.000Z</time>
      </trkpt>
      <trkpt lat="43.2" lon="5.80546">
        <ele>160</ele>
        <time>2016-04-12T13:55:38.000Z</time>
      </trkpt>
      <trkpt lat="43.20009" lon="5.80559">
        <ele>159</ele>
        <time>2016-04-12T13:55:40.000Z</time>
      </trkpt>
      <trkpt lat="43.20018" lon="5.80572">
        <ele>158.39999389648</ele>
        <time>2016-04-12T13:55:42.000Z</time>
      </trkpt>
      <trkpt lat="43.20022" lon="5.80579">
        <ele>158</ele>
        <time>2016-04-12T13:55:43.000Z</time>
      </trkpt>
      <trkpt lat="43.2003" lon="5.80591">
        <ele>157.39999389648</ele>
        <time>2016-04-12T13:55:45.000Z</time>
      </trkpt>
      <trkpt lat="43.20038" lon="5.80604">
        <ele>156.80000305176</ele>
        <time>2016-04-12T13:55:47.000Z</time>
      </trkpt>
      <trkpt lat="43.20049" lon="5.80622">
        <ele>156</ele>
        <time>2016-04-12T13:55:50.000Z</time>
      </trkpt>
      <trkpt lat="43.20053" lon="5.80627">
        <ele>155.80000305176</ele>
        <time>2016-04-12T13:55:51.000Z</time>
      </trkpt>
      <trkpt lat="43.20062" lon="5.80633">
        <ele>155.39999389648</ele>
        <time>2016-04-12T13:55:53.000Z</time>
      </trkpt>
      <trkpt lat="43.20071" lon="5.80638">
        <ele>154.80000305176</ele>
        <time>2016-04-12T13:55:55.000Z</time>
      </trkpt>
      <trkpt lat="43.20075" lon="5.80641">
        <ele>154.80000305176</ele>
        <time>2016-04-12T13:55:56.000Z</time>
      </trkpt>
      <trkpt lat="43.20083" lon="5.80653">
        <ele>154.60000610352</ele>
        <time>2016-04-12T13:55:59.000Z</time>
      </trkpt>
      <trkpt lat="43.20094" lon="5.80674">
        <ele>154.39999389648</ele>
        <time>2016-04-12T13:56:04.000Z</time>
      </trkpt>
      <trkpt lat="43.20101" lon="5.8069">
        <ele>154.60000610352</ele>
        <time>2016-04-12T13:56:09.000Z</time>
      </trkpt>
      <trkpt lat="43.20112" lon="5.80711">
        <ele>155</ele>
        <time>2016-04-12T13:56:14.000Z</time>
      </trkpt>
      <trkpt lat="43.20122" lon="5.80723">
        <ele>155.39999389648</ele>
        <time>2016-04-12T13:56:17.000Z</time>
      </trkpt>
      <trkpt lat="43.20133" lon="5.80731">
        <ele>156</ele>
        <time>2016-04-12T13:56:20.000Z</time>
      </trkpt>
      <trkpt lat="43.20151" lon="5.80736">
        <ele>156.80000305176</ele>
        <time>2016-04-12T13:56:25.000Z</time>
      </trkpt>
      <trkpt lat="43.20155" lon="5.80735">
        <ele>156.80000305176</ele>
        <time>2016-04-12T13:56:26.000Z</time>
      </trkpt>
      <trkpt lat="43.20159" lon="5.80734">
        <ele>156.60000610352</ele>
        <time>2016-04-12T13:56:27.000Z</time>
      </trkpt>
      <trkpt lat="43.20166" lon="5.80728">
        <ele>156.39999389648</ele>
        <time>2016-04-12T13:56:29.000Z</time>
      </trkpt>
      <trkpt lat="43.20177" lon="5.80712">
        <ele>155.80000305176</ele>
        <time>2016-04-12T13:56:33.000Z</time>
      </trkpt>
      <trkpt lat="43.20181" lon="5.80705">
        <ele>155.80000305176</ele>
        <time>2016-04-12T13:56:35.000Z</time>
      </trkpt>
      <trkpt lat="43.20194" lon="5.80683">
        <ele>157</ele>
        <time>2016-04-12T13:56:42.000Z</time>
      </trkpt>
      <trkpt lat="43.20198" lon="5.8068">
        <ele>157.39999389648</ele>
        <time>2016-04-12T13:56:44.000Z</time>
      </trkpt>
      <trkpt lat="43.202" lon="5.8068">
        <ele>157.60000610352</ele>
        <time>2016-04-12T13:56:45.000Z</time>
      </trkpt>
      <trkpt lat="43.20202" lon="5.80681">
        <ele>157.80000305176</ele>
        <time>2016-04-12T13:56:46.000Z</time>
      </trkpt>
      <trkpt lat="43.20203" lon="5.80681">
        <ele>158</ele>
        <time>2016-04-12T13:56:47.000Z</time>
      </trkpt>
      <trkpt lat="43.20206" lon="5.80674">
        <ele>158.19999694824</ele>
        <time>2016-04-12T13:56:50.000Z</time>
      </trkpt>
      <trkpt lat="43.20213" lon="5.80655">
        <ele>158.80000305176</ele>
        <time>2016-04-12T13:56:56.000Z</time>
      </trkpt>
      <trkpt lat="43.20218" lon="5.8064">
        <ele>159.19999694824</ele>
        <time>2016-04-12T13:57:02.000Z</time>
      </trkpt>
      <trkpt lat="43.2022" lon="5.80634">
        <ele>159.39999389648</ele>
        <time>2016-04-12T13:57:04.000Z</time>
      </trkpt>
      <trkpt lat="43.2023" lon="5.80612">
        <ele>160.39999389648</ele>
        <time>2016-04-12T13:57:12.000Z</time>
      </trkpt>
      <trkpt lat="43.20238" lon="5.80594">
        <ele>160.39999389648</ele>
        <time>2016-04-12T13:57:17.000Z</time>
      </trkpt>
      <trkpt lat="43.20244" lon="5.80583">
        <ele>160.19999694824</ele>
        <time>2016-04-12T13:57:20.000Z</time>
      </trkpt>
      <trkpt lat="43.20253" lon="5.80567">
        <ele>160</ele>
        <time>2016-04-12T13:57:24.000Z</time>
      </trkpt>
      <trkpt lat="43.20268" lon="5.80541">
        <ele>160.19999694824</ele>
        <time>2016-04-12T13:57:30.000Z</time>
      </trkpt>
      <trkpt lat="43.20271" lon="5.80537">
        <ele>160.19999694824</ele>
        <time>2016-04-12T13:57:31.000Z</time>
      </trkpt>
      <trkpt lat="43.20286" lon="5.80509">
        <ele>160.60000610352</ele>
        <time>2016-04-12T13:57:37.000Z</time>
      </trkpt>
      <trkpt lat="43.20305" lon="5.80474">
        <ele>161.60000610352</ele>
        <time>2016-04-12T13:57:44.000Z</time>
      </trkpt>
      <trkpt lat="43.20306" lon="5.80469">
        <ele>161.60000610352</ele>
        <time>2016-04-12T13:57:45.000Z</time>
      </trkpt>
      <trkpt lat="43.20307" lon="5.80464">
        <ele>161.19999694824</ele>
        <time>2016-04-12T13:57:46.000Z</time>
      </trkpt>
      <trkpt lat="43.20305" lon="5.80453">
        <ele>160.19999694824</ele>
        <time>2016-04-12T13:57:48.000Z</time>
      </trkpt>
      <trkpt lat="43.20298" lon="5.80434">
        <ele>158.39999389648</ele>
        <time>2016-04-12T13:57:51.000Z</time>
      </trkpt>
      <trkpt lat="43.20293" lon="5.8042">
        <ele>157</ele>
        <time>2016-04-12T13:57:53.000Z</time>
      </trkpt>
      <trkpt lat="43.20292" lon="5.80413">
        <ele>156.60000610352</ele>
        <time>2016-04-12T13:57:54.000Z</time>
      </trkpt>
      <trkpt lat="43.20291" lon="5.80406">
        <ele>156.19999694824</ele>
        <time>2016-04-12T13:57:55.000Z</time>
      </trkpt>
      <trkpt lat="43.20291" lon="5.8039">
        <ele>156</ele>
        <time>2016-04-12T13:57:57.000Z</time>
      </trkpt>
      <trkpt lat="43.20294" lon="5.80373">
        <ele>156.19999694824</ele>
        <time>2016-04-12T13:57:59.000Z</time>
      </trkpt>
      <trkpt lat="43.20297" lon="5.80353">
        <ele>156.80000305176</ele>
        <time>2016-04-12T13:58:01.000Z</time>
      </trkpt>
      <trkpt lat="43.20299" lon="5.80344">
        <ele>156.80000305176</ele>
        <time>2016-04-12T13:58:02.000Z</time>
      </trkpt>
      <trkpt lat="43.20301" lon="5.80318">
        <ele>156.80000305176</ele>
        <time>2016-04-12T13:58:05.000Z</time>
      </trkpt>
      <trkpt lat="43.20303" lon="5.80311">
        <ele>157</ele>
        <time>2016-04-12T13:58:06.000Z</time>
      </trkpt>
      <trkpt lat="43.20307" lon="5.80299">
        <ele>157.39999389648</ele>
        <time>2016-04-12T13:58:08.000Z</time>
      </trkpt>
      <trkpt lat="43.20314" lon="5.80288">
        <ele>158.19999694824</ele>
        <time>2016-04-12T13:58:10.000Z</time>
      </trkpt>
      <trkpt lat="43.20321" lon="5.80279">
        <ele>158.80000305176</ele>
        <time>2016-04-12T13:58:12.000Z</time>
      </trkpt>
      <trkpt lat="43.20325" lon="5.80275">
        <ele>158.39999389648</ele>
        <time>2016-04-12T13:58:13.000Z</time>
      </trkpt>
      <trkpt lat="43.20335" lon="5.80267">
        <ele>157.39999389648</ele>
        <time>2016-04-12T13:58:15.000Z</time>
      </trkpt>
      <trkpt lat="43.20345" lon="5.80261">
        <ele>156.80000305176</ele>
        <time>2016-04-12T13:58:17.000Z</time>
      </trkpt>
      <trkpt lat="43.20363" lon="5.80258">
        <ele>157.80000305176</ele>
        <time>2016-04-12T13:58:20.000Z</time>
      </trkpt>
      <trkpt lat="43.20391" lon="5.80258">
        <ele>159.39999389648</ele>
        <time>2016-04-12T13:58:24.000Z</time>
      </trkpt>
      <trkpt lat="43.20419" lon="5.8026">
        <ele>159.80000305176</ele>
        <time>2016-04-12T13:58:28.000Z</time>
      </trkpt>
      <trkpt lat="43.20448" lon="5.8026">
        <ele>156.39999389648</ele>
        <time>2016-04-12T13:58:33.000Z</time>
      </trkpt>
      <trkpt lat="43.20459" lon="5.80251">
        <ele>152.60000610352</ele>
        <time>2016-04-12T13:58:36.000Z</time>
      </trkpt>
      <trkpt lat="43.20463" lon="5.80231">
        <ele>151</ele>
        <time>2016-04-12T13:58:39.000Z</time>
      </trkpt>
      <trkpt lat="43.20464" lon="5.80224">
        <ele>150.39999389648</ele>
        <time>2016-04-12T13:58:40.000Z</time>
      </trkpt>
      <trkpt lat="43.20471" lon="5.80204">
        <ele>149.39999389648</ele>
        <time>2016-04-12T13:58:43.000Z</time>
      </trkpt>
      <trkpt lat="43.20474" lon="5.80199">
        <ele>149</ele>
        <time>2016-04-12T13:58:44.000Z</time>
      </trkpt>
      <trkpt lat="43.20478" lon="5.80193">
        <ele>148.60000610352</ele>
        <time>2016-04-12T13:58:45.000Z</time>
      </trkpt>
      <trkpt lat="43.20482" lon="5.80188">
        <ele>148.39999389648</ele>
        <time>2016-04-12T13:58:46.000Z</time>
      </trkpt>
      <trkpt lat="43.2049" lon="5.80179">
        <ele>148</ele>
        <time>2016-04-12T13:58:48.000Z</time>
      </trkpt>
      <trkpt lat="43.205" lon="5.80172">
        <ele>147.60000610352</ele>
        <time>2016-04-12T13:58:50.000Z</time>
      </trkpt>
      <trkpt lat="43.20519" lon="5.80155">
        <ele>147.80000305176</ele>
        <time>2016-04-12T13:58:54.000Z</time>
      </trkpt>
      <trkpt lat="43.20529" lon="5.80144">
        <ele>147.80000305176</ele>
        <time>2016-04-12T13:58:56.000Z</time>
      </trkpt>
      <trkpt lat="43.20541" lon="5.80133">
        <ele>147.60000610352</ele>
        <time>2016-04-12T13:58:58.000Z</time>
      </trkpt>
      <trkpt lat="43.20552" lon="5.80124">
        <ele>147.80000305176</ele>
        <time>2016-04-12T13:59:00.000Z</time>
      </trkpt>
      <trkpt lat="43.20557" lon="5.80118">
        <ele>147.80000305176</ele>
        <time>2016-04-12T13:59:01.000Z</time>
      </trkpt>
      <trkpt lat="43.20564" lon="5.80103">
        <ele>147.60000610352</ele>
        <time>2016-04-12T13:59:03.000Z</time>
      </trkpt>
      <trkpt lat="43.20568" lon="5.8007">
        <ele>145.60000610352</ele>
        <time>2016-04-12T13:59:07.000Z</time>
      </trkpt>
      <trkpt lat="43.20568" lon="5.80062">
        <ele>145</ele>
        <time>2016-04-12T13:59:08.000Z</time>
      </trkpt>
      <trkpt lat="43.20568" lon="5.80055">
        <ele>144.60000610352</ele>
        <time>2016-04-12T13:59:09.000Z</time>
      </trkpt>
      <trkpt lat="43.20569" lon="5.80047">
        <ele>145</ele>
        <time>2016-04-12T13:59:10.000Z</time>
      </trkpt>
      <trkpt lat="43.20574" lon="5.80036">
        <ele>145.19999694824</ele>
        <time>2016-04-12T13:59:12.000Z</time>
      </trkpt>
      <trkpt lat="43.20589" lon="5.80029">
        <ele>143.80000305176</ele>
        <time>2016-04-12T13:59:15.000Z</time>
      </trkpt>
      <trkpt lat="43.20605" lon="5.80023">
        <ele>145.19999694824</ele>
        <time>2016-04-12T13:59:18.000Z</time>
      </trkpt>
      <trkpt lat="43.2061" lon="5.80019">
        <ele>146</ele>
        <time>2016-04-12T13:59:19.000Z</time>
      </trkpt>
      <trkpt lat="43.20614" lon="5.80014">
        <ele>146.60000610352</ele>
        <time>2016-04-12T13:59:20.000Z</time>
      </trkpt>
      <trkpt lat="43.20629" lon="5.79983">
        <ele>147.80000305176</ele>
        <time>2016-04-12T13:59:25.000Z</time>
      </trkpt>
      <trkpt lat="43.20631" lon="5.79976">
        <ele>147.39999389648</ele>
        <time>2016-04-12T13:59:26.000Z</time>
      </trkpt>
      <trkpt lat="43.20639" lon="5.7994">
        <ele>147.80000305176</ele>
        <time>2016-04-12T13:59:31.000Z</time>
      </trkpt>
      <trkpt lat="43.20641" lon="5.79925">
        <ele>147.60000610352</ele>
        <time>2016-04-12T13:59:33.000Z</time>
      </trkpt>
      <trkpt lat="43.20653" lon="5.79884">
        <ele>145.80000305176</ele>
        <time>2016-04-12T13:59:39.000Z</time>
      </trkpt>
      <trkpt lat="43.20656" lon="5.79878">
        <ele>146.19999694824</ele>
        <time>2016-04-12T13:59:40.000Z</time>
      </trkpt>
      <trkpt lat="43.20666" lon="5.79859">
        <ele>145.60000610352</ele>
        <time>2016-04-12T13:59:43.000Z</time>
      </trkpt>
      <trkpt lat="43.20681" lon="5.79835">
        <ele>143.39999389648</ele>
        <time>2016-04-12T13:59:47.000Z</time>
      </trkpt>
      <trkpt lat="43.20719" lon="5.79776">
        <ele>146.39999389648</ele>
        <time>2016-04-12T13:59:57.000Z</time>
      </trkpt>
      <trkpt lat="43.20723" lon="5.7977">
        <ele>147</ele>
        <time>2016-04-12T13:59:58.000Z</time>
      </trkpt>
      <trkpt lat="43.20758" lon="5.79718">
        <ele>141</ele>
        <time>2016-04-12T14:00:07.000Z</time>
      </trkpt>
      <trkpt lat="43.20763" lon="5.79713">
        <ele>140.80000305176</ele>
        <time>2016-04-12T14:00:08.000Z</time>
      </trkpt>
      <trkpt lat="43.20785" lon="5.79691">
        <ele>144</ele>
        <time>2016-04-12T14:00:13.000Z</time>
      </trkpt>
      <trkpt lat="43.20828" lon="5.79658">
        <ele>145</ele>
        <time>2016-04-12T14:00:22.000Z</time>
      </trkpt>
      <trkpt lat="43.20857" lon="5.79637">
        <ele>143.80000305176</ele>
        <time>2016-04-12T14:00:28.000Z</time>
      </trkpt>
      <trkpt lat="43.20866" lon="5.79633">
        <ele>144</ele>
        <time>2016-04-12T14:00:30.000Z</time>
      </trkpt>
      <trkpt lat="43.20871" lon="5.79631">
        <ele>144.19999694824</ele>
        <time>2016-04-12T14:00:31.000Z</time>
      </trkpt>
      <trkpt lat="43.20879" lon="5.79635">
        <ele>145.19999694824</ele>
        <time>2016-04-12T14:00:33.000Z</time>
      </trkpt>
      <trkpt lat="43.20892" lon="5.79656">
        <ele>149.19999694824</ele>
        <time>2016-04-12T14:00:37.000Z</time>
      </trkpt>
      <trkpt lat="43.20896" lon="5.79668">
        <ele>151.60000610352</ele>
        <time>2016-04-12T14:00:39.000Z</time>
      </trkpt>
      <trkpt lat="43.20902" lon="5.79679">
        <ele>153.80000305176</ele>
        <time>2016-04-12T14:00:41.000Z</time>
      </trkpt>
      <trkpt lat="43.20908" lon="5.79687">
        <ele>155.60000610352</ele>
        <time>2016-04-12T14:00:43.000Z</time>
      </trkpt>
      <trkpt lat="43.20931" lon="5.797">
        <ele>159.39999389648</ele>
        <time>2016-04-12T14:00:48.000Z</time>
      </trkpt>
      <trkpt lat="43.20942" lon="5.79702">
        <ele>160.19999694824</ele>
        <time>2016-04-12T14:00:50.000Z</time>
      </trkpt>
      <trkpt lat="43.20952" lon="5.79703">
        <ele>160.80000305176</ele>
        <time>2016-04-12T14:00:52.000Z</time>
      </trkpt>
      <trkpt lat="43.2096" lon="5.797">
        <ele>160.60000610352</ele>
        <time>2016-04-12T14:00:54.000Z</time>
      </trkpt>
      <trkpt lat="43.2098" lon="5.79681">
        <ele>157.19999694824</ele>
        <time>2016-04-12T14:00:58.000Z</time>
      </trkpt>
      <trkpt lat="43.21009" lon="5.79649">
        <ele>148.60000610352</ele>
        <time>2016-04-12T14:01:04.000Z</time>
      </trkpt>
      <trkpt lat="43.21042" lon="5.79615">
        <ele>148.80000305176</ele>
        <time>2016-04-12T14:01:10.000Z</time>
      </trkpt>
      <trkpt lat="43.21049" lon="5.79611">
        <ele>149.39999389648</ele>
        <time>2016-04-12T14:01:11.000Z</time>
      </trkpt>
      <trkpt lat="43.21072" lon="5.79603">
        <ele>149.39999389648</ele>
        <time>2016-04-12T14:01:14.000Z</time>
      </trkpt>
      <trkpt lat="43.21088" lon="5.79598">
        <ele>147.60000610352</ele>
        <time>2016-04-12T14:01:16.000Z</time>
      </trkpt>
      <trkpt lat="43.21096" lon="5.79595">
        <ele>147</ele>
        <time>2016-04-12T14:01:17.000Z</time>
      </trkpt>
      <trkpt lat="43.21119" lon="5.79589">
        <ele>149.80000305176</ele>
        <time>2016-04-12T14:01:20.000Z</time>
      </trkpt>
      <trkpt lat="43.21137" lon="5.79584">
        <ele>150.80000305176</ele>
        <time>2016-04-12T14:01:22.000Z</time>
      </trkpt>
      <trkpt lat="43.21146" lon="5.79581">
        <ele>150.80000305176</ele>
        <time>2016-04-12T14:01:23.000Z</time>
      </trkpt>
      <trkpt lat="43.21165" lon="5.79574">
        <ele>150.19999694824</ele>
        <time>2016-04-12T14:01:25.000Z</time>
      </trkpt>
      <trkpt lat="43.21174" lon="5.79569">
        <ele>149.80000305176</ele>
        <time>2016-04-12T14:01:26.000Z</time>
      </trkpt>
      <trkpt lat="43.21183" lon="5.79564">
        <ele>149.19999694824</ele>
        <time>2016-04-12T14:01:27.000Z</time>
      </trkpt>
      <trkpt lat="43.21192" lon="5.79559">
        <ele>148.80000305176</ele>
        <time>2016-04-12T14:01:28.000Z</time>
      </trkpt>
      <trkpt lat="43.21215" lon="5.79544">
        <ele>150.19999694824</ele>
        <time>2016-04-12T14:01:31.000Z</time>
      </trkpt>
      <trkpt lat="43.21222" lon="5.79539">
        <ele>150.60000610352</ele>
        <time>2016-04-12T14:01:32.000Z</time>
      </trkpt>
      <trkpt lat="43.21249" lon="5.79511">
        <ele>148.19999694824</ele>
        <time>2016-04-12T14:01:37.000Z</time>
      </trkpt>
      <trkpt lat="43.21276" lon="5.79471">
        <ele>142.60000610352</ele>
        <time>2016-04-12T14:01:44.000Z</time>
      </trkpt>
      <trkpt lat="43.21302" lon="5.79439">
        <ele>145.39999389648</ele>
        <time>2016-04-12T14:01:50.000Z</time>
      </trkpt>
      <trkpt lat="43.21341" lon="5.794">
        <ele>138.39999389648</ele>
        <time>2016-04-12T14:01:57.000Z</time>
      </trkpt>
      <trkpt lat="43.21365" lon="5.79367">
        <ele>132.60000610352</ele>
        <time>2016-04-12T14:02:02.000Z</time>
      </trkpt>
      <trkpt lat="43.21377" lon="5.7935">
        <ele>130</ele>
        <time>2016-04-12T14:02:05.000Z</time>
      </trkpt>
      <trkpt lat="43.21379" lon="5.79345">
        <ele>129.19999694824</ele>
        <time>2016-04-12T14:02:06.000Z</time>
      </trkpt>
      <trkpt lat="43.21381" lon="5.7934">
        <ele>128.80000305176</ele>
        <time>2016-04-12T14:02:07.000Z</time>
      </trkpt>
      <trkpt lat="43.21383" lon="5.79331">
        <ele>129.19999694824</ele>
        <time>2016-04-12T14:02:09.000Z</time>
      </trkpt>
      <trkpt lat="43.21382" lon="5.79321">
        <ele>129.19999694824</ele>
        <time>2016-04-12T14:02:11.000Z</time>
      </trkpt>
      <trkpt lat="43.21377" lon="5.79315">
        <ele>129</ele>
        <time>2016-04-12T14:02:13.000Z</time>
      </trkpt>
      <trkpt lat="43.21369" lon="5.7931">
        <ele>128.60000610352</ele>
        <time>2016-04-12T14:02:15.000Z</time>
      </trkpt>
      <trkpt lat="43.21355" lon="5.79302">
        <ele>127.80000305176</ele>
        <time>2016-04-12T14:02:18.000Z</time>
      </trkpt>
      <trkpt lat="43.2134" lon="5.79292">
        <ele>128</ele>
        <time>2016-04-12T14:02:21.000Z</time>
      </trkpt>
      <trkpt lat="43.21331" lon="5.79281">
        <ele>129.80000305176</ele>
        <time>2016-04-12T14:02:23.000Z</time>
      </trkpt>
      <trkpt lat="43.21327" lon="5.79275">
        <ele>130.60000610352</ele>
        <time>2016-04-12T14:02:24.000Z</time>
      </trkpt>
      <trkpt lat="43.21324" lon="5.79268">
        <ele>131.39999389648</ele>
        <time>2016-04-12T14:02:25.000Z</time>
      </trkpt>
      <trkpt lat="43.21311" lon="5.79242">
        <ele>134</ele>
        <time>2016-04-12T14:02:29.000Z</time>
      </trkpt>
      <trkpt lat="43.21292" lon="5.79213">
        <ele>137</ele>
        <time>2016-04-12T14:02:34.000Z</time>
      </trkpt>
      <trkpt lat="43.21288" lon="5.79206">
        <ele>137.19999694824</ele>
        <time>2016-04-12T14:02:35.000Z</time>
      </trkpt>
      <trkpt lat="43.21279" lon="5.79181">
        <ele>137</ele>
        <time>2016-04-12T14:02:38.000Z</time>
      </trkpt>
      <trkpt lat="43.21276" lon="5.79153">
        <ele>135.39999389648</ele>
        <time>2016-04-12T14:02:41.000Z</time>
      </trkpt>
      <trkpt lat="43.21276" lon="5.79145">
        <ele>135.19999694824</ele>
        <time>2016-04-12T14:02:42.000Z</time>
      </trkpt>
      <trkpt lat="43.21277" lon="5.79136">
        <ele>135</ele>
        <time>2016-04-12T14:02:43.000Z</time>
      </trkpt>
      <trkpt lat="43.21283" lon="5.7912">
        <ele>135</ele>
        <time>2016-04-12T14:02:45.000Z</time>
      </trkpt>
      <trkpt lat="43.21298" lon="5.79093">
        <ele>134</ele>
        <time>2016-04-12T14:02:49.000Z</time>
      </trkpt>
      <trkpt lat="43.21306" lon="5.7908">
        <ele>131.60000610352</ele>
        <time>2016-04-12T14:02:51.000Z</time>
      </trkpt>
      <trkpt lat="43.21311" lon="5.79075">
        <ele>130.39999389648</ele>
        <time>2016-04-12T14:02:52.000Z</time>
      </trkpt>
      <trkpt lat="43.21334" lon="5.79048">
        <ele>124.40000152588</ele>
        <time>2016-04-12T14:02:57.000Z</time>
      </trkpt>
      <trkpt lat="43.21337" lon="5.79042">
        <ele>123.40000152588</ele>
        <time>2016-04-12T14:02:58.000Z</time>
      </trkpt>
      <trkpt lat="43.21342" lon="5.79027">
        <ele>122.40000152588</ele>
        <time>2016-04-12T14:03:00.000Z</time>
      </trkpt>
      <trkpt lat="43.21342" lon="5.7902">
        <ele>122.19999694824</ele>
        <time>2016-04-12T14:03:01.000Z</time>
      </trkpt>
      <trkpt lat="43.21342" lon="5.79004">
        <ele>122.19999694824</ele>
        <time>2016-04-12T14:03:03.000Z</time>
      </trkpt>
      <trkpt lat="43.21341" lon="5.78974">
        <ele>122</ele>
        <time>2016-04-12T14:03:07.000Z</time>
      </trkpt>
      <trkpt lat="43.21337" lon="5.78952">
        <ele>121.40000152588</ele>
        <time>2016-04-12T14:03:10.000Z</time>
      </trkpt>
      <trkpt lat="43.21333" lon="5.78939">
        <ele>121.59999847412</ele>
        <time>2016-04-12T14:03:12.000Z</time>
      </trkpt>
      <trkpt lat="43.21319" lon="5.78926">
        <ele>122.19999694824</ele>
        <time>2016-04-12T14:03:15.000Z</time>
      </trkpt>
      <trkpt lat="43.21314" lon="5.78923">
        <ele>122.40000152588</ele>
        <time>2016-04-12T14:03:16.000Z</time>
      </trkpt>
      <trkpt lat="43.21296" lon="5.78919">
        <ele>122.80000305176</ele>
        <time>2016-04-12T14:03:19.000Z</time>
      </trkpt>
      <trkpt lat="43.21284" lon="5.78918">
        <ele>124.40000152588</ele>
        <time>2016-04-12T14:03:21.000Z</time>
      </trkpt>
      <trkpt lat="43.21266" lon="5.78916">
        <ele>127.80000305176</ele>
        <time>2016-04-12T14:03:24.000Z</time>
      </trkpt>
      <trkpt lat="43.21238" lon="5.78911">
        <ele>139.80000305176</ele>
        <time>2016-04-12T14:03:29.000Z</time>
      </trkpt>
      <trkpt lat="43.21233" lon="5.78907">
        <ele>141.80000305176</ele>
        <time>2016-04-12T14:03:30.000Z</time>
      </trkpt>
      <trkpt lat="43.21218" lon="5.78885">
        <ele>145.60000610352</ele>
        <time>2016-04-12T14:03:34.000Z</time>
      </trkpt>
      <trkpt lat="43.21212" lon="5.78854">
        <ele>141.80000305176</ele>
        <time>2016-04-12T14:03:38.000Z</time>
      </trkpt>
      <trkpt lat="43.21211" lon="5.78846">
        <ele>140.39999389648</ele>
        <time>2016-04-12T14:03:39.000Z</time>
      </trkpt>
      <trkpt lat="43.21208" lon="5.7883">
        <ele>139</ele>
        <time>2016-04-12T14:03:41.000Z</time>
      </trkpt>
      <trkpt lat="43.212" lon="5.78799">
        <ele>138.80000305176</ele>
        <time>2016-04-12T14:03:45.000Z</time>
      </trkpt>
      <trkpt lat="43.21196" lon="5.78784">
        <ele>138.19999694824</ele>
        <time>2016-04-12T14:03:47.000Z</time>
      </trkpt>
      <trkpt lat="43.21187" lon="5.78746">
        <ele>136.39999389648</ele>
        <time>2016-04-12T14:03:52.000Z</time>
      </trkpt>
      <trkpt lat="43.21179" lon="5.78715">
        <ele>135</ele>
        <time>2016-04-12T14:03:56.000Z</time>
      </trkpt>
      <trkpt lat="43.21167" lon="5.78672">
        <ele>130</ele>
        <time>2016-04-12T14:04:02.000Z</time>
      </trkpt>
      <trkpt lat="43.21153" lon="5.78639">
        <ele>126.80000305176</ele>
        <time>2016-04-12T14:04:07.000Z</time>
      </trkpt>
      <trkpt lat="43.21149" lon="5.78634">
        <ele>126.40000152588</ele>
        <time>2016-04-12T14:04:08.000Z</time>
      </trkpt>
      <trkpt lat="43.2112" lon="5.78598">
        <ele>124.59999847412</ele>
        <time>2016-04-12T14:04:15.000Z</time>
      </trkpt>
      <trkpt lat="43.21099" lon="5.78578">
        <ele>124.40000152588</ele>
        <time>2016-04-12T14:04:19.000Z</time>
      </trkpt>
      <trkpt lat="43.21083" lon="5.78564">
        <ele>123.40000152588</ele>
        <time>2016-04-12T14:04:22.000Z</time>
      </trkpt>
      <trkpt lat="43.21064" lon="5.78542">
        <ele>122.40000152588</ele>
        <time>2016-04-12T14:04:26.000Z</time>
      </trkpt>
      <trkpt lat="43.21061" lon="5.78536">
        <ele>122.40000152588</ele>
        <time>2016-04-12T14:04:27.000Z</time>
      </trkpt>
      <trkpt lat="43.21057" lon="5.78529">
        <ele>122.19999694824</ele>
        <time>2016-04-12T14:04:28.000Z</time>
      </trkpt>
      <trkpt lat="43.2102" lon="5.78469">
        <ele>121.19999694824</ele>
        <time>2016-04-12T14:04:37.000Z</time>
      </trkpt>
      <trkpt lat="43.21012" lon="5.78455">
        <ele>120.59999847412</ele>
        <time>2016-04-12T14:04:39.000Z</time>
      </trkpt>
      <trkpt lat="43.21009" lon="5.78447">
        <ele>120.19999694824</ele>
        <time>2016-04-12T14:04:40.000Z</time>
      </trkpt>
      <trkpt lat="43.21007" lon="5.78439">
        <ele>119.80000305176</ele>
        <time>2016-04-12T14:04:41.000Z</time>
      </trkpt>
      <trkpt lat="43.21011" lon="5.78414">
        <ele>117.19999694824</ele>
        <time>2016-04-12T14:04:44.000Z</time>
      </trkpt>
      <trkpt lat="43.21018" lon="5.78399">
        <ele>115.40000152588</ele>
        <time>2016-04-12T14:04:46.000Z</time>
      </trkpt>
      <trkpt lat="43.21031" lon="5.78371">
        <ele>114.19999694824</ele>
        <time>2016-04-12T14:04:50.000Z</time>
      </trkpt>
      <trkpt lat="43.21038" lon="5.78357">
        <ele>113.59999847412</ele>
        <time>2016-04-12T14:04:52.000Z</time>
      </trkpt>
      <trkpt lat="43.21054" lon="5.78325">
        <ele>112.40000152588</ele>
        <time>2016-04-12T14:04:57.000Z</time>
      </trkpt>
      <trkpt lat="43.21073" lon="5.78299">
        <ele>111.80000305176</ele>
        <time>2016-04-12T14:05:02.000Z</time>
      </trkpt>
      <trkpt lat="43.21079" lon="5.78274">
        <ele>111.19999694824</ele>
        <time>2016-04-12T14:05:06.000Z</time>
      </trkpt>
      <trkpt lat="43.21079" lon="5.78268">
        <ele>111.19999694824</ele>
        <time>2016-04-12T14:05:07.000Z</time>
      </trkpt>
      <trkpt lat="43.2108" lon="5.78256">
        <ele>111.19999694824</ele>
        <time>2016-04-12T14:05:09.000Z</time>
      </trkpt>
      <trkpt lat="43.21082" lon="5.78244">
        <ele>111.40000152588</ele>
        <time>2016-04-12T14:05:11.000Z</time>
      </trkpt>
      <trkpt lat="43.21087" lon="5.78226">
        <ele>111.59999847412</ele>
        <time>2016-04-12T14:05:14.000Z</time>
      </trkpt>
      <trkpt lat="43.21088" lon="5.78212">
        <ele>111.59999847412</ele>
        <time>2016-04-12T14:05:16.000Z</time>
      </trkpt>
      <trkpt lat="43.21089" lon="5.78205">
        <ele>111.80000305176</ele>
        <time>2016-04-12T14:05:17.000Z</time>
      </trkpt>
      <trkpt lat="43.21089" lon="5.78198">
        <ele>112</ele>
        <time>2016-04-12T14:05:18.000Z</time>
      </trkpt>
      <trkpt lat="43.21092" lon="5.7817">
        <ele>113</ele>
        <time>2016-04-12T14:05:22.000Z</time>
      </trkpt>
      <trkpt lat="43.21094" lon="5.78155">
        <ele>113.40000152588</ele>
        <time>2016-04-12T14:05:24.000Z</time>
      </trkpt>
      <trkpt lat="43.21096" lon="5.78133">
        <ele>114</ele>
        <time>2016-04-12T14:05:27.000Z</time>
      </trkpt>
      <trkpt lat="43.21098" lon="5.78104">
        <ele>114.40000152588</ele>
        <time>2016-04-12T14:05:31.000Z</time>
      </trkpt>
      <trkpt lat="43.21099" lon="5.78097">
        <ele>114.40000152588</ele>
        <time>2016-04-12T14:05:32.000Z</time>
      </trkpt>
      <trkpt lat="43.21101" lon="5.78069">
        <ele>114.59999847412</ele>
        <time>2016-04-12T14:05:36.000Z</time>
      </trkpt>
      <trkpt lat="43.21103" lon="5.78041">
        <ele>115.40000152588</ele>
        <time>2016-04-12T14:05:40.000Z</time>
      </trkpt>
      <trkpt lat="43.21104" lon="5.78034">
        <ele>115.80000305176</ele>
        <time>2016-04-12T14:05:41.000Z</time>
      </trkpt>
      <trkpt lat="43.21106" lon="5.78006">
        <ele>117</ele>
        <time>2016-04-12T14:05:45.000Z</time>
      </trkpt>
      <trkpt lat="43.21111" lon="5.77972">
        <ele>118.19999694824</ele>
        <time>2016-04-12T14:05:50.000Z</time>
      </trkpt>
      <trkpt lat="43.21112" lon="5.77965">
        <ele>118</ele>
        <time>2016-04-12T14:05:51.000Z</time>
      </trkpt>
      <trkpt lat="43.21114" lon="5.77959">
        <ele>117.80000305176</ele>
        <time>2016-04-12T14:05:52.000Z</time>
      </trkpt>
      <trkpt lat="43.21123" lon="5.77942">
        <ele>117.19999694824</ele>
        <time>2016-04-12T14:05:55.000Z</time>
      </trkpt>
      <trkpt lat="43.21126" lon="5.77937">
        <ele>117.19999694824</ele>
        <time>2016-04-12T14:05:56.000Z</time>
      </trkpt>
      <trkpt lat="43.21137" lon="5.7792">
        <ele>117</ele>
        <time>2016-04-12T14:05:59.000Z</time>
      </trkpt>
      <trkpt lat="43.21152" lon="5.779">
        <ele>117.19999694824</ele>
        <time>2016-04-12T14:06:03.000Z</time>
      </trkpt>
      <trkpt lat="43.21175" lon="5.77874">
        <ele>118</ele>
        <time>2016-04-12T14:06:09.000Z</time>
      </trkpt>
      <trkpt lat="43.21177" lon="5.7787">
        <ele>118</ele>
        <time>2016-04-12T14:06:10.000Z</time>
      </trkpt>
      <trkpt lat="43.21189" lon="5.77849">
        <ele>118</ele>
        <time>2016-04-12T14:06:15.000Z</time>
      </trkpt>
      <trkpt lat="43.21198" lon="5.7783">
        <ele>118</ele>
        <time>2016-04-12T14:06:19.000Z</time>
      </trkpt>
      <trkpt lat="43.212" lon="5.77825">
        <ele>117.80000305176</ele>
        <time>2016-04-12T14:06:20.000Z</time>
      </trkpt>
      <trkpt lat="43.21202" lon="5.77813">
        <ele>117</ele>
        <time>2016-04-12T14:06:23.000Z</time>
      </trkpt>
      <trkpt lat="43.21204" lon="5.7781">
        <ele>116.80000305176</ele>
        <time>2016-04-12T14:06:24.000Z</time>
      </trkpt>
      <trkpt lat="43.2121" lon="5.77802">
        <ele>116.80000305176</ele>
        <time>2016-04-12T14:06:26.000Z</time>
      </trkpt>
      <trkpt lat="43.21212" lon="5.77797">
        <ele>116.80000305176</ele>
        <time>2016-04-12T14:06:27.000Z</time>
      </trkpt>
      <trkpt lat="43.21216" lon="5.77787">
        <ele>116.80000305176</ele>
        <time>2016-04-12T14:06:29.000Z</time>
      </trkpt>
      <trkpt lat="43.21215" lon="5.77768">
        <ele>116.19999694824</ele>
        <time>2016-04-12T14:06:32.000Z</time>
      </trkpt>
      <trkpt lat="43.21212" lon="5.77755">
        <ele>115.80000305176</ele>
        <time>2016-04-12T14:06:34.000Z</time>
      </trkpt>
      <trkpt lat="43.21206" lon="5.77745">
        <ele>115.19999694824</ele>
        <time>2016-04-12T14:06:36.000Z</time>
      </trkpt>
      <trkpt lat="43.21194" lon="5.77729">
        <ele>114</ele>
        <time>2016-04-12T14:06:41.000Z</time>
      </trkpt>
      <trkpt lat="43.21176" lon="5.77716">
        <ele>112.80000305176</ele>
        <time>2016-04-12T14:06:46.000Z</time>
      </trkpt>
      <trkpt lat="43.21172" lon="5.77712">
        <ele>112.59999847412</ele>
        <time>2016-04-12T14:06:47.000Z</time>
      </trkpt>
      <trkpt lat="43.21157" lon="5.77693">
        <ele>111.80000305176</ele>
        <time>2016-04-12T14:06:51.000Z</time>
      </trkpt>
      <trkpt lat="43.21153" lon="5.77689">
        <ele>111.59999847412</ele>
        <time>2016-04-12T14:06:52.000Z</time>
      </trkpt>
      <trkpt lat="43.21137" lon="5.77668">
        <ele>110.80000305176</ele>
        <time>2016-04-12T14:06:56.000Z</time>
      </trkpt>
      <trkpt lat="43.21121" lon="5.77644">
        <ele>110</ele>
        <time>2016-04-12T14:07:00.000Z</time>
      </trkpt>
      <trkpt lat="43.21101" lon="5.77592">
        <ele>109.19999694824</ele>
        <time>2016-04-12T14:07:07.000Z</time>
      </trkpt>
      <trkpt lat="43.21079" lon="5.77546">
        <ele>109</ele>
        <time>2016-04-12T14:07:14.000Z</time>
      </trkpt>
      <trkpt lat="43.21058" lon="5.77507">
        <ele>110.80000305176</ele>
        <time>2016-04-12T14:07:21.000Z</time>
      </trkpt>
      <trkpt lat="43.2104" lon="5.77484">
        <ele>111.59999847412</ele>
        <time>2016-04-12T14:07:26.000Z</time>
      </trkpt>
      <trkpt lat="43.21036" lon="5.7748">
        <ele>111.59999847412</ele>
        <time>2016-04-12T14:07:27.000Z</time>
      </trkpt>
      <trkpt lat="43.21032" lon="5.77477">
        <ele>111.80000305176</ele>
        <time>2016-04-12T14:07:28.000Z</time>
      </trkpt>
      <trkpt lat="43.21022" lon="5.77472">
        <ele>112</ele>
        <time>2016-04-12T14:07:30.000Z</time>
      </trkpt>
      <trkpt lat="43.21013" lon="5.77465">
        <ele>112.80000305176</ele>
        <time>2016-04-12T14:07:32.000Z</time>
      </trkpt>
      <trkpt lat="43.20999" lon="5.77455">
        <ele>112.80000305176</ele>
        <time>2016-04-12T14:07:35.000Z</time>
      </trkpt>
      <trkpt lat="43.20985" lon="5.77447">
        <ele>112.40000152588</ele>
        <time>2016-04-12T14:07:38.000Z</time>
      </trkpt>
      <trkpt lat="43.2096" lon="5.77436">
        <ele>111.40000152588</ele>
        <time>2016-04-12T14:07:43.000Z</time>
      </trkpt>
      <trkpt lat="43.20949" lon="5.77433">
        <ele>110.80000305176</ele>
        <time>2016-04-12T14:07:45.000Z</time>
      </trkpt>
      <trkpt lat="43.20924" lon="5.77421">
        <ele>109.80000305176</ele>
        <time>2016-04-12T14:07:49.000Z</time>
      </trkpt>
      <trkpt lat="43.20911" lon="5.77398">
        <ele>110.40000152588</ele>
        <time>2016-04-12T14:07:52.000Z</time>
      </trkpt>
      <trkpt lat="43.20909" lon="5.77388">
        <ele>111.19999694824</ele>
        <time>2016-04-12T14:07:53.000Z</time>
      </trkpt>
      <trkpt lat="43.20907" lon="5.77354">
        <ele>111.40000152588</ele>
        <time>2016-04-12T14:07:56.000Z</time>
      </trkpt>
      <trkpt lat="43.20909" lon="5.77308">
        <ele>112.80000305176</ele>
        <time>2016-04-12T14:08:00.000Z</time>
      </trkpt>
      <trkpt lat="43.2091" lon="5.77275">
        <ele>113.59999847412</ele>
        <time>2016-04-12T14:08:03.000Z</time>
      </trkpt>
      <trkpt lat="43.20908" lon="5.77265">
        <ele>113.40000152588</ele>
        <time>2016-04-12T14:08:04.000Z</time>
      </trkpt>
      <trkpt lat="43.20902" lon="5.77248">
        <ele>112.59999847412</ele>
        <time>2016-04-12T14:08:06.000Z</time>
      </trkpt>
      <trkpt lat="43.20889" lon="5.77228">
        <ele>110.80000305176</ele>
        <time>2016-04-12T14:08:09.000Z</time>
      </trkpt>
      <trkpt lat="43.20879" lon="5.77216">
        <ele>110</ele>
        <time>2016-04-12T14:08:11.000Z</time>
      </trkpt>
      <trkpt lat="43.20874" lon="5.77211">
        <ele>109.80000305176</ele>
        <time>2016-04-12T14:08:12.000Z</time>
      </trkpt>
      <trkpt lat="43.20851" lon="5.77195">
        <ele>108.19999694824</ele>
        <time>2016-04-12T14:08:16.000Z</time>
      </trkpt>
      <trkpt lat="43.20818" lon="5.77169">
        <ele>107.40000152588</ele>
        <time>2016-04-12T14:08:22.000Z</time>
      </trkpt>
      <trkpt lat="43.20782" lon="5.77148">
        <ele>106.59999847412</ele>
        <time>2016-04-12T14:08:28.000Z</time>
      </trkpt>
      <trkpt lat="43.20769" lon="5.77141">
        <ele>106.19999694824</ele>
        <time>2016-04-12T14:08:30.000Z</time>
      </trkpt>
      <trkpt lat="43.20735" lon="5.77123">
        <ele>104.80000305176</ele>
        <time>2016-04-12T14:08:35.000Z</time>
      </trkpt>
      <trkpt lat="43.20728" lon="5.7712">
        <ele>104.40000152588</ele>
        <time>2016-04-12T14:08:36.000Z</time>
      </trkpt>
      <trkpt lat="43.2069" lon="5.771">
        <ele>102.59999847412</ele>
        <time>2016-04-12T14:08:41.000Z</time>
      </trkpt>
      <trkpt lat="43.20668" lon="5.77086">
        <ele>101.40000152588</ele>
        <time>2016-04-12T14:08:44.000Z</time>
      </trkpt>
      <trkpt lat="43.20654" lon="5.77076">
        <ele>100.59999847412</ele>
        <time>2016-04-12T14:08:46.000Z</time>
      </trkpt>
      <trkpt lat="43.2064" lon="5.77065">
        <ele>99.800003051758</ele>
        <time>2016-04-12T14:08:48.000Z</time>
      </trkpt>
      <trkpt lat="43.20628" lon="5.77052">
        <ele>99.199996948242</ele>
        <time>2016-04-12T14:08:50.000Z</time>
      </trkpt>
      <trkpt lat="43.20618" lon="5.77039">
        <ele>99</ele>
        <time>2016-04-12T14:08:52.000Z</time>
      </trkpt>
      <trkpt lat="43.206" lon="5.77012">
        <ele>98.599998474121</ele>
        <time>2016-04-12T14:08:56.000Z</time>
      </trkpt>
      <trkpt lat="43.20585" lon="5.76985">
        <ele>98.800003051758</ele>
        <time>2016-04-12T14:09:00.000Z</time>
      </trkpt>
      <trkpt lat="43.20567" lon="5.76962">
        <ele>99.199996948242</ele>
        <time>2016-04-12T14:09:04.000Z</time>
      </trkpt>
      <trkpt lat="43.20562" lon="5.76958">
        <ele>99</ele>
        <time>2016-04-12T14:09:05.000Z</time>
      </trkpt>
      <trkpt lat="43.20551" lon="5.76953">
        <ele>98.800003051758</ele>
        <time>2016-04-12T14:09:07.000Z</time>
      </trkpt>
      <trkpt lat="43.20534" lon="5.76951">
        <ele>98</ele>
        <time>2016-04-12T14:09:10.000Z</time>
      </trkpt>
      <trkpt lat="43.20523" lon="5.76951">
        <ele>97.599998474121</ele>
        <time>2016-04-12T14:09:12.000Z</time>
      </trkpt>
      <trkpt lat="43.20488" lon="5.76947">
        <ele>96.599998474121</ele>
        <time>2016-04-12T14:09:18.000Z</time>
      </trkpt>
      <trkpt lat="43.20464" lon="5.76945">
        <ele>96.199996948242</ele>
        <time>2016-04-12T14:09:22.000Z</time>
      </trkpt>
      <trkpt lat="43.20417" lon="5.76947">
        <ele>95</ele>
        <time>2016-04-12T14:09:30.000Z</time>
      </trkpt>
      <trkpt lat="43.20388" lon="5.76947">
        <ele>94.199996948242</ele>
        <time>2016-04-12T14:09:35.000Z</time>
      </trkpt>
      <trkpt lat="43.20357" lon="5.76949">
        <ele>93</ele>
        <time>2016-04-12T14:09:40.000Z</time>
      </trkpt>
      <trkpt lat="43.20346" lon="5.76951">
        <ele>92.599998474121</ele>
        <time>2016-04-12T14:09:42.000Z</time>
      </trkpt>
      <trkpt lat="43.20331" lon="5.76961">
        <ele>91.199996948242</ele>
        <time>2016-04-12T14:09:45.000Z</time>
      </trkpt>
      <trkpt lat="43.2032" lon="5.76968">
        <ele>90.800003051758</ele>
        <time>2016-04-12T14:09:47.000Z</time>
      </trkpt>
      <trkpt lat="43.20303" lon="5.76971">
        <ele>90.599998474121</ele>
        <time>2016-04-12T14:09:50.000Z</time>
      </trkpt>
      <trkpt lat="43.20291" lon="5.76967">
        <ele>90.400001525879</ele>
        <time>2016-04-12T14:09:52.000Z</time>
      </trkpt>
      <trkpt lat="43.20272" lon="5.7696">
        <ele>90.599998474121</ele>
        <time>2016-04-12T14:09:55.000Z</time>
      </trkpt>
      <trkpt lat="43.20254" lon="5.76949">
        <ele>90.400001525879</ele>
        <time>2016-04-12T14:09:58.000Z</time>
      </trkpt>
      <trkpt lat="43.20245" lon="5.76937">
        <ele>90.199996948242</ele>
        <time>2016-04-12T14:10:00.000Z</time>
      </trkpt>
      <trkpt lat="43.20242" lon="5.76929">
        <ele>90.400001525879</ele>
        <time>2016-04-12T14:10:01.000Z</time>
      </trkpt>
      <trkpt lat="43.20237" lon="5.76907">
        <ele>90.800003051758</ele>
        <time>2016-04-12T14:10:04.000Z</time>
      </trkpt>
      <trkpt lat="43.20228" lon="5.76871">
        <ele>91.599998474121</ele>
        <time>2016-04-12T14:10:09.000Z</time>
      </trkpt>
      <trkpt lat="43.20225" lon="5.76865">
        <ele>91.599998474121</ele>
        <time>2016-04-12T14:10:10.000Z</time>
      </trkpt>
      <trkpt lat="43.20213" lon="5.7685">
        <ele>91.400001525879</ele>
        <time>2016-04-12T14:10:13.000Z</time>
      </trkpt>
      <trkpt lat="43.20208" lon="5.76844">
        <ele>91.400001525879</ele>
        <time>2016-04-12T14:10:14.000Z</time>
      </trkpt>
      <trkpt lat="43.20204" lon="5.76839">
        <ele>91.199996948242</ele>
        <time>2016-04-12T14:10:15.000Z</time>
      </trkpt>
      <trkpt lat="43.20189" lon="5.76823">
        <ele>91</ele>
        <time>2016-04-12T14:10:18.000Z</time>
      </trkpt>
      <trkpt lat="43.20175" lon="5.76808">
        <ele>90.800003051758</ele>
        <time>2016-04-12T14:10:21.000Z</time>
      </trkpt>
      <trkpt lat="43.20165" lon="5.76799">
        <ele>90.800003051758</ele>
        <time>2016-04-12T14:10:23.000Z</time>
      </trkpt>
      <trkpt lat="43.2016" lon="5.76796">
        <ele>90.800003051758</ele>
        <time>2016-04-12T14:10:24.000Z</time>
      </trkpt>
      <trkpt lat="43.20143" lon="5.76788">
        <ele>90.599998474121</ele>
        <time>2016-04-12T14:10:27.000Z</time>
      </trkpt>
      <trkpt lat="43.20127" lon="5.76781">
        <ele>90.199996948242</ele>
        <time>2016-04-12T14:10:30.000Z</time>
      </trkpt>
      <trkpt lat="43.20121" lon="5.76779">
        <ele>90.199996948242</ele>
        <time>2016-04-12T14:10:31.000Z</time>
      </trkpt>
      <trkpt lat="43.20111" lon="5.76774">
        <ele>90</ele>
        <time>2016-04-12T14:10:33.000Z</time>
      </trkpt>
      <trkpt lat="43.20096" lon="5.76762">
        <ele>90</ele>
        <time>2016-04-12T14:10:36.000Z</time>
      </trkpt>
      <trkpt lat="43.20063" lon="5.76734">
        <ele>91.400001525879</ele>
        <time>2016-04-12T14:10:43.000Z</time>
      </trkpt>
      <trkpt lat="43.20059" lon="5.7673">
        <ele>91.599998474121</ele>
        <time>2016-04-12T14:10:44.000Z</time>
      </trkpt>
      <trkpt lat="43.20042" lon="5.76712">
        <ele>92.199996948242</ele>
        <time>2016-04-12T14:10:48.000Z</time>
      </trkpt>
      <trkpt lat="43.20034" lon="5.76701">
        <ele>92.199996948242</ele>
        <time>2016-04-12T14:10:50.000Z</time>
      </trkpt>
      <trkpt lat="43.20027" lon="5.76689">
        <ele>92.400001525879</ele>
        <time>2016-04-12T14:10:52.000Z</time>
      </trkpt>
      <trkpt lat="43.20024" lon="5.76682">
        <ele>92.400001525879</ele>
        <time>2016-04-12T14:10:53.000Z</time>
      </trkpt>
      <trkpt lat="43.20021" lon="5.76675">
        <ele>92.599998474121</ele>
        <time>2016-04-12T14:10:54.000Z</time>
      </trkpt>
      <trkpt lat="43.20008" lon="5.76639">
        <ele>92.800003051758</ele>
        <time>2016-04-12T14:10:59.000Z</time>
      </trkpt>
      <trkpt lat="43.19993" lon="5.76584">
        <ele>91.599998474121</ele>
        <time>2016-04-12T14:11:06.000Z</time>
      </trkpt>
      <trkpt lat="43.19992" lon="5.76575">
        <ele>91.599998474121</ele>
        <time>2016-04-12T14:11:07.000Z</time>
      </trkpt>
      <trkpt lat="43.19991" lon="5.76558">
        <ele>91.599998474121</ele>
        <time>2016-04-12T14:11:09.000Z</time>
      </trkpt>
      <trkpt lat="43.19993" lon="5.76539">
        <ele>91.199996948242</ele>
        <time>2016-04-12T14:11:11.000Z</time>
      </trkpt>
      <trkpt lat="43.19994" lon="5.7652">
        <ele>90.199996948242</ele>
        <time>2016-04-12T14:11:13.000Z</time>
      </trkpt>
      <trkpt lat="43.19998" lon="5.7647">
        <ele>87.400001525879</ele>
        <time>2016-04-12T14:11:18.000Z</time>
      </trkpt>
      <trkpt lat="43.19999" lon="5.7646">
        <ele>87.400001525879</ele>
        <time>2016-04-12T14:11:19.000Z</time>
      </trkpt>
      <trkpt lat="43.2" lon="5.76432">
        <ele>86.800003051758</ele>
        <time>2016-04-12T14:11:22.000Z</time>
      </trkpt>
      <trkpt lat="43.20003" lon="5.76397">
        <ele>86</ele>
        <time>2016-04-12T14:11:26.000Z</time>
      </trkpt>
      <trkpt lat="43.20003" lon="5.76389">
        <ele>85.800003051758</ele>
        <time>2016-04-12T14:11:27.000Z</time>
      </trkpt>
      <trkpt lat="43.20004" lon="5.76365">
        <ele>85.599998474121</ele>
        <time>2016-04-12T14:11:30.000Z</time>
      </trkpt>
      <trkpt lat="43.20004" lon="5.76343">
        <ele>85.400001525879</ele>
        <time>2016-04-12T14:11:33.000Z</time>
      </trkpt>
      <trkpt lat="43.20005" lon="5.76308">
        <ele>85</ele>
        <time>2016-04-12T14:11:38.000Z</time>
      </trkpt>
      <trkpt lat="43.20003" lon="5.76302">
        <ele>84.800003051758</ele>
        <time>2016-04-12T14:11:39.000Z</time>
      </trkpt>
      <trkpt lat="43.19993" lon="5.76298">
        <ele>84.599998474121</ele>
        <time>2016-04-12T14:11:41.000Z</time>
      </trkpt>
      <trkpt lat="43.19982" lon="5.763">
        <ele>84.599998474121</ele>
        <time>2016-04-12T14:11:43.000Z</time>
      </trkpt>
      <trkpt lat="43.19976" lon="5.763">
        <ele>84.599998474121</ele>
        <time>2016-04-12T14:11:44.000Z</time>
      </trkpt>
      <trkpt lat="43.19971" lon="5.763">
        <ele>84.400001525879</ele>
        <time>2016-04-12T14:11:45.000Z</time>
      </trkpt>
      <trkpt lat="43.19933" lon="5.76308">
        <ele>84</ele>
        <time>2016-04-12T14:11:52.000Z</time>
      </trkpt>
      <trkpt lat="43.19881" lon="5.76328">
        <ele>84</ele>
        <time>2016-04-12T14:12:02.000Z</time>
      </trkpt>
      <trkpt lat="43.19837" lon="5.76346">
        <ele>82.800003051758</ele>
        <time>2016-04-12T14:12:10.000Z</time>
      </trkpt>
      <trkpt lat="43.19807" lon="5.76355">
        <ele>82</ele>
        <time>2016-04-12T14:12:15.000Z</time>
      </trkpt>
      <trkpt lat="43.19795" lon="5.76356">
        <ele>83</ele>
        <time>2016-04-12T14:12:17.000Z</time>
      </trkpt>
      <trkpt lat="43.19775" lon="5.76353">
        <ele>84</ele>
        <time>2016-04-12T14:12:20.000Z</time>
      </trkpt>
      <trkpt lat="43.19756" lon="5.76346">
        <ele>85.400001525879</ele>
        <time>2016-04-12T14:12:23.000Z</time>
      </trkpt>
      <trkpt lat="43.19737" lon="5.76337">
        <ele>87.599998474121</ele>
        <time>2016-04-12T14:12:26.000Z</time>
      </trkpt>
      <trkpt lat="43.19725" lon="5.76328">
        <ele>88.599998474121</ele>
        <time>2016-04-12T14:12:28.000Z</time>
      </trkpt>
      <trkpt lat="43.19708" lon="5.7631">
        <ele>89.800003051758</ele>
        <time>2016-04-12T14:12:31.000Z</time>
      </trkpt>
      <trkpt lat="43.19684" lon="5.76276">
        <ele>89</ele>
        <time>2016-04-12T14:12:36.000Z</time>
      </trkpt>
      <trkpt lat="43.19674" lon="5.76264">
        <ele>88.400001525879</ele>
        <time>2016-04-12T14:12:38.000Z</time>
      </trkpt>
      <trkpt lat="43.19669" lon="5.76259">
        <ele>88</ele>
        <time>2016-04-12T14:12:39.000Z</time>
      </trkpt>
      <trkpt lat="43.19646" lon="5.76246">
        <ele>87.599998474121</ele>
        <time>2016-04-12T14:12:43.000Z</time>
      </trkpt>
      <trkpt lat="43.19623" lon="5.76242">
        <ele>88.199996948242</ele>
        <time>2016-04-12T14:12:47.000Z</time>
      </trkpt>
      <trkpt lat="43.19618" lon="5.76242">
        <ele>88.599998474121</ele>
        <time>2016-04-12T14:12:48.000Z</time>
      </trkpt>
      <trkpt lat="43.19602" lon="5.76245">
        <ele>90.599998474121</ele>
        <time>2016-04-12T14:12:51.000Z</time>
      </trkpt>
      <trkpt lat="43.19588" lon="5.76251">
        <ele>92</ele>
        <time>2016-04-12T14:12:54.000Z</time>
      </trkpt>
      <trkpt lat="43.19577" lon="5.76255">
        <ele>92</ele>
        <time>2016-04-12T14:12:56.000Z</time>
      </trkpt>
      <trkpt lat="43.19562" lon="5.76261">
        <ele>92.199996948242</ele>
        <time>2016-04-12T14:12:59.000Z</time>
      </trkpt>
      <trkpt lat="43.19546" lon="5.76268">
        <ele>91.800003051758</ele>
        <time>2016-04-12T14:13:02.000Z</time>
      </trkpt>
      <trkpt lat="43.1953" lon="5.76274">
        <ele>90.599998474121</ele>
        <time>2016-04-12T14:13:05.000Z</time>
      </trkpt>
      <trkpt lat="43.19497" lon="5.76285">
        <ele>88.199996948242</ele>
        <time>2016-04-12T14:13:11.000Z</time>
      </trkpt>
      <trkpt lat="43.19449" lon="5.76302">
        <ele>82.199996948242</ele>
        <time>2016-04-12T14:13:19.000Z</time>
      </trkpt>
      <trkpt lat="43.19429" lon="5.76311">
        <ele>79.400001525879</ele>
        <time>2016-04-12T14:13:22.000Z</time>
      </trkpt>
      <trkpt lat="43.19415" lon="5.76317">
        <ele>78.400001525879</ele>
        <time>2016-04-12T14:13:24.000Z</time>
      </trkpt>
      <trkpt lat="43.19401" lon="5.76324">
        <ele>77.599998474121</ele>
        <time>2016-04-12T14:13:26.000Z</time>
      </trkpt>
      <trkpt lat="43.19381" lon="5.76337">
        <ele>76.599998474121</ele>
        <time>2016-04-12T14:13:29.000Z</time>
      </trkpt>
      <trkpt lat="43.19368" lon="5.76345">
        <ele>76.199996948242</ele>
        <time>2016-04-12T14:13:31.000Z</time>
      </trkpt>
      <trkpt lat="43.19356" lon="5.76355">
        <ele>75.800003051758</ele>
        <time>2016-04-12T14:13:33.000Z</time>
      </trkpt>
      <trkpt lat="43.19341" lon="5.76371">
        <ele>76</ele>
        <time>2016-04-12T14:13:36.000Z</time>
      </trkpt>
      <trkpt lat="43.19336" lon="5.76377">
        <ele>76.199996948242</ele>
        <time>2016-04-12T14:13:37.000Z</time>
      </trkpt>
      <trkpt lat="43.19333" lon="5.76383">
        <ele>76.400001525879</ele>
        <time>2016-04-12T14:13:38.000Z</time>
      </trkpt>
      <trkpt lat="43.19315" lon="5.76419">
        <ele>77.800003051758</ele>
        <time>2016-04-12T14:13:43.000Z</time>
      </trkpt>
      <trkpt lat="43.19311" lon="5.76425">
        <ele>78</ele>
        <time>2016-04-12T14:13:44.000Z</time>
      </trkpt>
      <trkpt lat="43.19296" lon="5.76433">
        <ele>77.599998474121</ele>
        <time>2016-04-12T14:13:47.000Z</time>
      </trkpt>
      <trkpt lat="43.1928" lon="5.76422">
        <ele>76.199996948242</ele>
        <time>2016-04-12T14:13:50.000Z</time>
      </trkpt>
      <trkpt lat="43.19272" lon="5.76412">
        <ele>75.400001525879</ele>
        <time>2016-04-12T14:13:52.000Z</time>
      </trkpt>
      <trkpt lat="43.19266" lon="5.76399">
        <ele>74.599998474121</ele>
        <time>2016-04-12T14:13:54.000Z</time>
      </trkpt>
      <trkpt lat="43.19261" lon="5.76368">
        <ele>73.199996948242</ele>
        <time>2016-04-12T14:13:58.000Z</time>
      </trkpt>
      <trkpt lat="43.19257" lon="5.76343">
        <ele>72.199996948242</ele>
        <time>2016-04-12T14:14:01.000Z</time>
      </trkpt>
      <trkpt lat="43.19253" lon="5.76308">
        <ele>70.599998474121</ele>
        <time>2016-04-12T14:14:05.000Z</time>
      </trkpt>
      <trkpt lat="43.19244" lon="5.7626">
        <ele>71.800003051758</ele>
        <time>2016-04-12T14:14:10.000Z</time>
      </trkpt>
      <trkpt lat="43.19244" lon="5.76249">
        <ele>71.599998474121</ele>
        <time>2016-04-12T14:14:11.000Z</time>
      </trkpt>
      <trkpt lat="43.1925" lon="5.76215">
        <ele>71.599998474121</ele>
        <time>2016-04-12T14:14:14.000Z</time>
      </trkpt>
      <trkpt lat="43.19253" lon="5.76204">
        <ele>72</ele>
        <time>2016-04-12T14:14:15.000Z</time>
      </trkpt>
      <trkpt lat="43.19259" lon="5.76176">
        <ele>72.599998474121</ele>
        <time>2016-04-12T14:14:18.000Z</time>
      </trkpt>
      <trkpt lat="43.19261" lon="5.76168">
        <ele>72.599998474121</ele>
        <time>2016-04-12T14:14:19.000Z</time>
      </trkpt>
      <trkpt lat="43.19262" lon="5.76152">
        <ele>73.400001525879</ele>
        <time>2016-04-12T14:14:21.000Z</time>
      </trkpt>
      <trkpt lat="43.19261" lon="5.76128">
        <ele>74.800003051758</ele>
        <time>2016-04-12T14:14:24.000Z</time>
      </trkpt>
      <trkpt lat="43.19258" lon="5.76104">
        <ele>76.800003051758</ele>
        <time>2016-04-12T14:14:27.000Z</time>
      </trkpt>
      <trkpt lat="43.19253" lon="5.76064">
        <ele>80.199996948242</ele>
        <time>2016-04-12T14:14:32.000Z</time>
      </trkpt>
      <trkpt lat="43.1925" lon="5.76034">
        <ele>82.199996948242</ele>
        <time>2016-04-12T14:14:36.000Z</time>
      </trkpt>
      <trkpt lat="43.19248" lon="5.76003">
        <ele>83.599998474121</ele>
        <time>2016-04-12T14:14:40.000Z</time>
      </trkpt>
      <trkpt lat="43.19248" lon="5.75995">
        <ele>83.800003051758</ele>
        <time>2016-04-12T14:14:41.000Z</time>
      </trkpt>
      <trkpt lat="43.19247" lon="5.75972">
        <ele>84.599998474121</ele>
        <time>2016-04-12T14:14:44.000Z</time>
      </trkpt>
      <trkpt lat="43.19249" lon="5.75933">
        <ele>85.800003051758</ele>
        <time>2016-04-12T14:14:49.000Z</time>
      </trkpt>
      <trkpt lat="43.19252" lon="5.75902">
        <ele>87.199996948242</ele>
        <time>2016-04-12T14:14:53.000Z</time>
      </trkpt>
      <trkpt lat="43.19254" lon="5.75863">
        <ele>88.199996948242</ele>
        <time>2016-04-12T14:14:58.000Z</time>
      </trkpt>
      <trkpt lat="43.19255" lon="5.75855">
        <ele>88.599998474121</ele>
        <time>2016-04-12T14:14:59.000Z</time>
      </trkpt>
      <trkpt lat="43.19256" lon="5.75832">
        <ele>89.599998474121</ele>
        <time>2016-04-12T14:15:02.000Z</time>
      </trkpt>
      <trkpt lat="43.19258" lon="5.75802">
        <ele>91</ele>
        <time>2016-04-12T14:15:06.000Z</time>
      </trkpt>
      <trkpt lat="43.19259" lon="5.75779">
        <ele>92</ele>
        <time>2016-04-12T14:15:09.000Z</time>
      </trkpt>
      <trkpt lat="43.1926" lon="5.75764">
        <ele>92.400001525879</ele>
        <time>2016-04-12T14:15:11.000Z</time>
      </trkpt>
      <trkpt lat="43.1926" lon="5.75742">
        <ele>93.199996948242</ele>
        <time>2016-04-12T14:15:14.000Z</time>
      </trkpt>
      <trkpt lat="43.19259" lon="5.75721">
        <ele>94</ele>
        <time>2016-04-12T14:15:17.000Z</time>
      </trkpt>
      <trkpt lat="43.19259" lon="5.75714">
        <ele>94</ele>
        <time>2016-04-12T14:15:18.000Z</time>
      </trkpt>
      <trkpt lat="43.19258" lon="5.75687">
        <ele>94</ele>
        <time>2016-04-12T14:15:22.000Z</time>
      </trkpt>
      <trkpt lat="43.19256" lon="5.75661">
        <ele>94</ele>
        <time>2016-04-12T14:15:26.000Z</time>
      </trkpt>
      <trkpt lat="43.19256" lon="5.75654">
        <ele>94</ele>
        <time>2016-04-12T14:15:27.000Z</time>
      </trkpt>
      <trkpt lat="43.19255" lon="5.75634">
        <ele>94</ele>
        <time>2016-04-12T14:15:30.000Z</time>
      </trkpt>
      <trkpt lat="43.19253" lon="5.75609">
        <ele>94.400001525879</ele>
        <time>2016-04-12T14:15:34.000Z</time>
      </trkpt>
      <trkpt lat="43.19253" lon="5.75596">
        <ele>95</ele>
        <time>2016-04-12T14:15:36.000Z</time>
      </trkpt>
      <trkpt lat="43.19254" lon="5.7559">
        <ele>95.199996948242</ele>
        <time>2016-04-12T14:15:37.000Z</time>
      </trkpt>
      <trkpt lat="43.19264" lon="5.75577">
        <ele>96.400001525879</ele>
        <time>2016-04-12T14:15:41.000Z</time>
      </trkpt>
      <trkpt lat="43.19283" lon="5.75575">
        <ele>97.199996948242</ele>
        <time>2016-04-12T14:15:45.000Z</time>
      </trkpt>
      <trkpt lat="43.193" lon="5.75591">
        <ele>97.599998474121</ele>
        <time>2016-04-12T14:15:49.000Z</time>
      </trkpt>
      <trkpt lat="43.19303" lon="5.75596">
        <ele>97.599998474121</ele>
        <time>2016-04-12T14:15:50.000Z</time>
      </trkpt>
      <trkpt lat="43.19307" lon="5.75601">
        <ele>97.599998474121</ele>
        <time>2016-04-12T14:15:51.000Z</time>
      </trkpt>
      <trkpt lat="43.19317" lon="5.75615">
        <ele>97.400001525879</ele>
        <time>2016-04-12T14:15:54.000Z</time>
      </trkpt>
      <trkpt lat="43.19322" lon="5.75624">
        <ele>97.400001525879</ele>
        <time>2016-04-12T14:15:56.000Z</time>
      </trkpt>
      <trkpt lat="43.19326" lon="5.75629">
        <ele>97.400001525879</ele>
        <time>2016-04-12T14:15:58.000Z</time>
      </trkpt>
      <trkpt lat="43.19331" lon="5.75638">
        <ele>97.400001525879</ele>
        <time>2016-04-12T14:16:01.000Z</time>
      </trkpt>
      <trkpt lat="43.19333" lon="5.75642">
        <ele>97.199996948242</ele>
        <time>2016-04-12T14:16:02.000Z</time>
      </trkpt>
      <trkpt lat="43.1935" lon="5.75667">
        <ele>98</ele>
        <time>2016-04-12T14:16:08.000Z</time>
      </trkpt>
      <trkpt lat="43.19353" lon="5.75672">
        <ele>98.400001525879</ele>
        <time>2016-04-12T14:16:09.000Z</time>
      </trkpt>
      <trkpt lat="43.19364" lon="5.75693">
        <ele>100</ele>
        <time>2016-04-12T14:16:13.000Z</time>
      </trkpt>
      <trkpt lat="43.19371" lon="5.7571">
        <ele>100.59999847412</ele>
        <time>2016-04-12T14:16:16.000Z</time>
      </trkpt>
      <trkpt lat="43.19375" lon="5.75721">
        <ele>101.19999694824</ele>
        <time>2016-04-12T14:16:18.000Z</time>
      </trkpt>
      <trkpt lat="43.19386" lon="5.75741">
        <ele>103.19999694824</ele>
        <time>2016-04-12T14:16:22.000Z</time>
      </trkpt>
      <trkpt lat="43.1939" lon="5.75745">
        <ele>103.80000305176</ele>
        <time>2016-04-12T14:16:23.000Z</time>
      </trkpt>
      <trkpt lat="43.19398" lon="5.7575">
        <ele>105.59999847412</ele>
        <time>2016-04-12T14:16:25.000Z</time>
      </trkpt>
      <trkpt lat="43.19403" lon="5.75752">
        <ele>106.40000152588</ele>
        <time>2016-04-12T14:16:26.000Z</time>
      </trkpt>
      <trkpt lat="43.19411" lon="5.75756">
        <ele>108</ele>
        <time>2016-04-12T14:16:28.000Z</time>
      </trkpt>
      <trkpt lat="43.19415" lon="5.7576">
        <ele>108.80000305176</ele>
        <time>2016-04-12T14:16:29.000Z</time>
      </trkpt>
      <trkpt lat="43.19424" lon="5.75775">
        <ele>110.40000152588</ele>
        <time>2016-04-12T14:16:32.000Z</time>
      </trkpt>
      <trkpt lat="43.19425" lon="5.75781">
        <ele>110.59999847412</ele>
        <time>2016-04-12T14:16:33.000Z</time>
      </trkpt>
      <trkpt lat="43.19427" lon="5.75799">
        <ele>110.80000305176</ele>
        <time>2016-04-12T14:16:36.000Z</time>
      </trkpt>
      <trkpt lat="43.19427" lon="5.75806">
        <ele>110.59999847412</ele>
        <time>2016-04-12T14:16:37.000Z</time>
      </trkpt>
      <trkpt lat="43.19427" lon="5.75829">
        <ele>108.80000305176</ele>
        <time>2016-04-12T14:16:41.000Z</time>
      </trkpt>
      <trkpt lat="43.19428" lon="5.75846">
        <ele>107.59999847412</ele>
        <time>2016-04-12T14:16:44.000Z</time>
      </trkpt>
      <trkpt lat="43.19429" lon="5.75851">
        <ele>107.19999694824</ele>
        <time>2016-04-12T14:16:45.000Z</time>
      </trkpt>
      <trkpt lat="43.19431" lon="5.75857">
        <ele>107</ele>
        <time>2016-04-12T14:16:46.000Z</time>
      </trkpt>
      <trkpt lat="43.19439" lon="5.75871">
        <ele>107.19999694824</ele>
        <time>2016-04-12T14:16:49.000Z</time>
      </trkpt>
      <trkpt lat="43.19449" lon="5.75882">
        <ele>108.19999694824</ele>
        <time>2016-04-12T14:16:52.000Z</time>
      </trkpt>
      <trkpt lat="43.19453" lon="5.75885">
        <ele>108.59999847412</ele>
        <time>2016-04-12T14:16:53.000Z</time>
      </trkpt>
      <trkpt lat="43.19463" lon="5.75897">
        <ele>110.19999694824</ele>
        <time>2016-04-12T14:16:56.000Z</time>
      </trkpt>
      <trkpt lat="43.19473" lon="5.7591">
        <ele>111.80000305176</ele>
        <time>2016-04-12T14:16:59.000Z</time>
      </trkpt>
      <trkpt lat="43.19485" lon="5.75913">
        <ele>113.80000305176</ele>
        <time>2016-04-12T14:17:02.000Z</time>
      </trkpt>
      <trkpt lat="43.19492" lon="5.75908">
        <ele>115.19999694824</ele>
        <time>2016-04-12T14:17:04.000Z</time>
      </trkpt>
      <trkpt lat="43.19498" lon="5.759">
        <ele>116.40000152588</ele>
        <time>2016-04-12T14:17:06.000Z</time>
      </trkpt>
      <trkpt lat="43.19502" lon="5.75891">
        <ele>117.19999694824</ele>
        <time>2016-04-12T14:17:08.000Z</time>
      </trkpt>
      <trkpt lat="43.19505" lon="5.75885">
        <ele>118</ele>
        <time>2016-04-12T14:17:09.000Z</time>
      </trkpt>
      <trkpt lat="43.19511" lon="5.75875">
        <ele>119.59999847412</ele>
        <time>2016-04-12T14:17:11.000Z</time>
      </trkpt>
      <trkpt lat="43.19517" lon="5.75864">
        <ele>121</ele>
        <time>2016-04-12T14:17:13.000Z</time>
      </trkpt>
      <trkpt lat="43.1952" lon="5.75859">
        <ele>121.59999847412</ele>
        <time>2016-04-12T14:17:14.000Z</time>
      </trkpt>
      <trkpt lat="43.19526" lon="5.75849">
        <ele>122.80000305176</ele>
        <time>2016-04-12T14:17:16.000Z</time>
      </trkpt>
      <trkpt lat="43.1953" lon="5.75845">
        <ele>123.40000152588</ele>
        <time>2016-04-12T14:17:17.000Z</time>
      </trkpt>
      <trkpt lat="43.19533" lon="5.75843">
        <ele>124</ele>
        <time>2016-04-12T14:17:18.000Z</time>
      </trkpt>
      <trkpt lat="43.19537" lon="5.7584">
        <ele>124.59999847412</ele>
        <time>2016-04-12T14:17:20.000Z</time>
      </trkpt>
      <trkpt lat="43.19541" lon="5.75835">
        <ele>125.40000152588</ele>
        <time>2016-04-12T14:17:22.000Z</time>
      </trkpt>
      <trkpt lat="43.19543" lon="5.7582">
        <ele>126.40000152588</ele>
        <time>2016-04-12T14:17:25.000Z</time>
      </trkpt>
      <trkpt lat="43.19541" lon="5.75813">
        <ele>126.80000305176</ele>
        <time>2016-04-12T14:17:26.000Z</time>
      </trkpt>
      <trkpt lat="43.1954" lon="5.75806">
        <ele>127</ele>
        <time>2016-04-12T14:17:27.000Z</time>
      </trkpt>
      <trkpt lat="43.19539" lon="5.758">
        <ele>127</ele>
        <time>2016-04-12T14:17:28.000Z</time>
      </trkpt>
      <trkpt lat="43.19542" lon="5.75787">
        <ele>127.40000152588</ele>
        <time>2016-04-12T14:17:30.000Z</time>
      </trkpt>
      <trkpt lat="43.19545" lon="5.75782">
        <ele>128</ele>
        <time>2016-04-12T14:17:31.000Z</time>
      </trkpt>
      <trkpt lat="43.19549" lon="5.75778">
        <ele>128.39999389648</ele>
        <time>2016-04-12T14:17:32.000Z</time>
      </trkpt>
      <trkpt lat="43.19558" lon="5.75768">
        <ele>129.39999389648</ele>
        <time>2016-04-12T14:17:35.000Z</time>
      </trkpt>
      <trkpt lat="43.19563" lon="5.75762">
        <ele>131</ele>
        <time>2016-04-12T14:17:37.000Z</time>
      </trkpt>
      <trkpt lat="43.19566" lon="5.7576">
        <ele>131.60000610352</ele>
        <time>2016-04-12T14:17:38.000Z</time>
      </trkpt>
      <trkpt lat="43.1957" lon="5.75755">
        <ele>133</ele>
        <time>2016-04-12T14:17:40.000Z</time>
      </trkpt>
      <trkpt lat="43.19576" lon="5.75749">
        <ele>134.80000305176</ele>
        <time>2016-04-12T14:17:43.000Z</time>
      </trkpt>
      <trkpt lat="43.1958" lon="5.75747">
        <ele>135.60000610352</ele>
        <time>2016-04-12T14:17:45.000Z</time>
      </trkpt>
    </trkseg>
  </trk>
</gpx>